     2              OBSERVATION DATA    GPS                 RINEX VERSION / TYPE
teqc 2000Jul20 Karen Wendt 20020411 23:20:49UTC             PGM / RUN BY / DATE
                                                            COMMENT
L2: 1 -> 1; 150 -> 5; 250 -> 9                              COMMENT
L2: 1 -> 1; 150 -> 5; 250 -> 9                              COMMENT
L2: 1 -> 1; 150 -> 5; 250 -> 9                              COMMENT
L2: 1 -> 1; 150 -> 5; 250 -> 9                              COMMENT
L2: 1 -> 1; 150 -> 5; 250 -> 9                              COMMENT
L2: 1 -> 1; 150 -> 5; 250 -> 9                              COMMENT
L2: 1 -> 1; 150 -> 5; 250 -> 9                              COMMENT
L2: 1 -> 1; 150 -> 5; 250 -> 9                              COMMENT
L2: 1 -> 1; 150 -> 5; 250 -> 9                              COMMENT
L2: 1 -> 1; 150 -> 5; 250 -> 9                              COMMENT
L2: 1 -> 1; 150 -> 5; 250 -> 9                              COMMENT
L2: 1 -> 1; 150 -> 5; 250 -> 9                              COMMENT
L2: 1 -> 1; 150 -> 5; 250 -> 9                              COMMENT
L2: 1 -> 1; 150 -> 5; 250 -> 9                              COMMENT
Original Marker Name: wlr3 Willow_No3_1984_NCER             COMMENT
Campaign Name: USGS Mojave 2002                             COMMENT
4-Character Station Name: WLR3                              COMMENT
6-Character Antenna Code: DMRCHT                            COMMENT
Vertical Measurement Point: BCR                             COMMENT
Vertical Offset to Rinex Ref. Point: 0.0348                 COMMENT
Radial Measurement Point: ECF                               COMMENT
Radial Offset to Rinex Ref. Point: 0.1897                   COMMENT
Antenna Height from Field Measurement: 1.2150 m             COMMENT
Additional Antenna Identification Info.:                    COMMENT
Turborogue and Ashtech Choke Ring                           COMMENT
Original XYZ: -2372585.6781 -4618178.0976 3695059.3245      COMMENT
New XYZ position is based on association with SCEC monument COMMENT
E1F4E9F6+0011. Position of that monument is believed to be  COMMENT
valid to within 1 m horizontally; vertical accuracy         COMMENT
should be no worse than 3-times this value.                 COMMENT
                                                            COMMENT
Revised Rinex header created by UCSD GPS archive for        COMMENT
GSAC on 27-Jun-2003 (2003:178) 16:08:30 GMT                 COMMENT
For assistance contact dagnew@ucsd.edu                      COMMENT
or anderson@python.ucsd.edu                                 COMMENT
                                                            COMMENT
WILLOW NO3 1984                                             MARKER NAME
CHS US GEOLOGICAL SURVEY                                    OBSERVER / AGENCY
LP03360 ASHTECH Z-XII3 CC00                                 REC # / TYPE / VERS
CR519993703 DORNE-MARGOL. TYPE T                            ANT # / TYPE
 -2372604.4437 -4618154.2879  3695042.6116                  APPROX POSITION XYZ
        1.1653        0.0000        0.0000                  ANTENNA: DELTA H/E/N
     1     1     0                                          WAVELENGTH FACT L1/2
     5    C1    L1    L2    P1    P2                        # / TYPES OF OBSERV
    30                                                      INTERVAL
  2002     4     8    18     3   30.000000                  TIME OF FIRST OBS
  2002     4     8    23    59   30.000000                  TIME OF LAST OBS
                                                            END OF HEADER
 02  4  8 18  3 30.0000000  0  5G24G 4G30G 9G 5
  20579281.748       19070.86949     12758.33447  20579281.250    20579291.999
  22381996.232      201003.58849    142865.77546  22381996.276    22382008.881
  22090332.317     -263946.27049   -188031.99446  22090332.221    22090344.776
  22809956.977      169522.69149    120244.52846  22809956.266
  22809970.178     -142085.25849   -103716.83543
 02  4  8 18  4  0.0000000  0  6G24G 4G30G 9G10G 5
  20580736.157       26715.80449     18715.39047  20580736.073    20580746.834
  22396095.660      275096.59749    200600.41946  22396095.835    22396108.444
  22071812.331     -361270.69449   -263869.12846  22071812.192    22071824.512
  22822875.513      237405.50149    173140.04246  22822874.133    22822888.035
  23725855.481     -348055.88249   -258313.62545  23725854.503    23725873.262
                   -194763.56149    -16795.89245
 02  4  8 18  4 30.0000000  0  7G24G 4G30G 9G10G 6G 5
  20466394.871     -574152.60149   -449493.79347  20466394.660    20466405.407
  22294355.052     -259555.70449   -216011.94947  22294355.019    22294367.640
  21937451.526    -1067341.84249   -814054.34546  21937451.428    21937463.523
  22719956.653     -303435.02549   -248294.33446  22719955.772    22719969.552
  23588026.068    -1072351.65549   -822699.66045  23588026.000
  23588044.740     -849291.27049   -653021.07944  24487723.694    20602503.698
                   -856005.46649   -532049.41047  20602502.874    20602513.198
 02  4  8 18  5  0.0000000  0  7G24G 4G30G 9G10G 6G 5
  20470535.180     -552395.99149   -432540.62647  20470534.873    20470545.597
  22311051.179     -171817.94849   -147645.04247  22311051.041    22311063.765
  21921528.976    -1151014.86249   -879254.00646  21921528.971    21921541.012
  22735478.983     -221863.79849   -184732.53946  22735478.296    22735491.942
  23568603.207    -1174418.81049   -902232.24545  23568602.696    23568621.711
  24473929.310     -921707.46049   -709449.20045  24473925.814    24473943.832
  20595146.425     -894667.88649   -562175.96547  20595145.657    20595156.014
 02  4  8 18  5 30.0000000  0  7G24G 4G30G 9G10G 6G 5
  20474765.294     -530166.97449   -415219.34847  20474764.945    20474775.663
  22327792.363      -83842.59149    -79092.99946  22327792.291    22327805.056
  21905653.635    -1234439.49749   -944260.12346  21905653.672    21905665.723
  22751050.661     -140033.63649   -120968.97246  22751050.076    22751063.655
  23549195.916    -1276406.14649   -981702.60845  23549195.191    23549214.100
  24460154.310     -994091.85549   -765852.55645  24460152.479    24460170.028
  20587870.965     -932900.61449   -591967.69947  20587870.234    20587880.587
 02  4  8 18  6  0.0000000  0  7G24G 4G30G 9G10G 6G 5
  20479085.573     -507464.07649   -397528.81547  20479085.214    20479095.926
  22344578.864        4370.49649    -10355.71346  22344578.810    22344591.568
  21889826.582    -1317610.39649  -1009068.51746  21889826.708    21889838.720
  22766671.640      -57944.91049    -57003.92946  22766671.151    22766684.798
  23529804.700    -1378307.77849  -1061106.21645  23529803.846    23529822.764
  24446386.180    -1066441.49549   -822228.82845  24446384.950    24446402.896
  20580678.182     -970698.90749   -621420.91147  20580677.463    20580687.843
 02  4  8 18  6 30.0000000  0  7G24G 4G30G 9G10G 6G 5
  20483495.592     -484289.45449   -379470.70347  20483495.231    20483505.946
  22361410.115       92818.26449     58564.44147  22361410.047    22361422.742
  21874048.254    -1400525.84449  -1073677.86746  21874048.401    21874060.346
  22782341.283       24398.86149      7159.87946  22782340.813    22782354.584
  23510430.046    -1480120.94149  -1140440.85545  23510429.239    23510448.448
  24432624.705    -1138757.30749   -878578.72845  24432623.656    24432641.646
  20573568.256    -1008061.67849   -650534.75147  20573567.555    20573577.950
 02  4  8 18  7  0.0000000  0  7G24G 4G30G 9G10G 6G 5
  20487995.504     -460642.78249   -361044.77147  20487995.126    20488005.844
  22378285.986      181500.30249    127667.14947  22378285.895    22378298.614
  21858319.392    -1483181.45549  -1138084.76446  21858319.500    21858331.519
  22798059.300      106996.75849     71521.68246  22798058.842    22798072.762
  23491073.312    -1581840.29249  -1219702.40945  23491072.469    23491091.838
  24418870.332    -1211037.22349   -934900.65245  24418869.598    24418887.101
  20566541.963    -1044985.18249   -679306.30447  20566541.250    20566551.686
 02  4  8 18  7 30.0000000  0  7G24G 4G30G 9G10G 6G 5
  20492585.052     -436524.86449   -342251.63147  20492584.659    20492595.386
  22395206.003      270414.80849    196951.00447  22395205.941    22395218.711
  21842640.479    -1565573.96549  -1202286.66146  21842640.585    21842652.761
  22813825.261      189846.68849    136079.88246  22813824.857    22813838.855
  23471735.291    -1683461.76049  -1298887.69045  23471734.427    23471753.630
  24405122.956    -1283280.55249   -991194.03745  24405122.255    24405139.541
  20559599.774    -1081466.59249   -707733.36947  20559599.046    20559609.518
 02  4  8 18  8  0.0000000  0  7G24G 4G30G 9G10G 6G 5
  20497263.302     -411940.76349   -323095.23147  20497262.900    20497273.661
  22412169.089      359555.53249    266411.13247  22412169.028    22412181.842
  21827011.589    -1647704.16049  -1266284.15246  21827011.674    21827023.943
  22829637.974      272942.39649    200829.58346  22829637.551    22829651.541
  23452415.733    -1784985.70049  -1377996.95345  23452414.841    23452434.049
  24391381.648    -1355490.79249  -1047461.64245  24391381.048    24391398.316
  20552741.436    -1117507.55249   -735817.23347  20552740.734    20552751.214
 02  4  8 18  8 30.0000000  0  7G24G 4G30G 9G10G 6G 5
  20502030.589     -386888.84549   -303574.30147  20502030.180    20502040.950
  22429175.359      448923.00749    336047.94347  22429175.285    22429188.109
  21811433.590    -1729567.00549  -1330073.30846  21811433.649    21811445.912
  22845497.320      356283.57249    265770.55346  22845496.931    22845510.924
  23433115.790    -1886405.78149  -1457025.30245  23433114.893    23433134.138
  24377647.121    -1427665.23249  -1103701.38345  24377646.517    24377663.869
  20545967.733    -1153103.60949   -763554.41947  20545967.023    20545977.535
 02  4  8 18  9  0.0000000  0  7G24G 4G30G 9G10G 6G 5
  20506886.393     -361371.54049   -283690.73347  20506885.988    20506896.781
  22446224.165      538514.08549    405858.99047  22446224.072    22446236.940
  21795906.895    -1811160.44649  -1393652.52546  21795906.978    21795919.104
  22861402.834      439866.82949    330900.17146  22861402.440    22861416.553
  23413836.325    -1987719.37749  -1535970.66045  23413835.389    23413854.612
  24363919.323    -1499804.33649  -1159913.56645  24363918.829    24363936.189
  20539278.942    -1188253.59449   -790944.01648  20539278.243    20539288.720
 02  4  8 18  9 30.0000000  0  7G24G 4G30G 9G10G 6G 5
  20511830.240     -335391.54349   -263446.62847  20511829.846    20511840.626
  22463314.795      628325.30849    475841.58046  22463314.711    22463327.624
  21780431.739    -1892483.04949  -1457020.70646  21780431.821    21780443.844
  22877353.740      523688.10749    396215.24946  22877353.347    22877367.557
  23394577.522    -2088924.31149  -1614831.38645  23394576.592    23394595.631
  24350198.277    -1571909.12649  -1216098.99945  24350197.889    24350215.103
  20532675.250    -1222956.54049   -817985.27248  20532674.545    20532684.998
 02  4  8 18 10  0.0000000  0  7G24G 4G30G 9G10G 6G 5
  20516861.522     -308952.36249   -242844.71447  20516861.133    20516871.907
  22480446.515      718352.30049    545992.30446  22480446.450    22480459.431
  21765008.285    -1973534.18849  -1520177.35847  21765008.338    21765020.337
  22893349.000      607742.47749    461711.97646  22893348.584    22893362.774
  23375339.713    -2190019.03049  -1693606.21245  23375338.809    23375357.744
  24336483.366    -1643981.59149  -1272259.23245  24336483.004    24336500.226
  20526156.560    -1257212.83349   -844678.47848  20526155.838    20526166.247
 02  4  8 18 10 30.0000000  0  7G24G 4G30G 9G10G 6G 5
  20521980.361     -282052.84049   -221884.09847  20521979.969    20521990.767
  22497619.279      808595.17649    616311.24946  22497619.202    22497632.248
  21749637.387    -2054308.78549  -1583118.53347  21749637.449    21749649.510
  22909388.457      692029.63049    527390.08846  22909388.031    22909402.232
  23356124.035    -2290997.70949  -1772290.59545  23356123.123    23356141.867
  24322775.013    -1716019.08549  -1328392.22745  24322774.614    24322792.055
  20519723.683    -1291018.02149   -871020.18047  20519722.951    20519733.319
 02  4  8 18 11  0.0000000  0  7G24G 4G30G 9G10G 6G 5
  20527186.264     -254695.80649   -200566.97547  20527185.885    20527196.703
  22514832.443      899050.15049    686795.45446  22514832.356    22514845.396
  21734319.382    -2134805.48349  -1645843.15947  21734319.414    21734331.534
  22925471.338      776545.66949    593246.52946  22925470.937    22925485.194
  23336930.919    -2391857.97349  -1850882.73145  23336929.910    23336948.393
  24309073.037    -1788022.52549  -1384498.68245  24309072.729    24309090.346
  20513376.790    -1324371.26849   -897009.71847  20513376.055    20513386.421
 02  4  8 18 11 30.0000000  0  7G24G 4G30G 9G10G 6G 5
  20532478.772     -226884.08649   -178895.55347  20532478.371    20532489.206
  22532085.372      989714.00149    757442.41946  22532085.282    22532098.291
  21719054.528    -2215022.82949  -1708350.10847  21719054.571    21719066.660
  22941597.050      861286.49049    659278.14146  22941596.652    22941610.969
  23317760.534    -2492597.63849  -1929380.89545  23317759.532    23317777.987
  24295377.502    -1859993.02949  -1440579.46345  24295377.131    24295394.832
  20507116.044    -1357271.84949   -922646.52447  20507115.310    20507125.657
 02  4  8 18 12  0.0000000  0  7G24G 4G30G 9G10G 6G 5
  20537857.782     -198617.55249   -156869.72847  20537857.357    20537868.225
  22549377.824     1080585.83949    828251.46046  22549377.760    22549390.824
  21703843.590    -2294956.66349  -1770636.12446  21703843.632    21703855.634
  22957765.418      946250.85749    725483.92946  22957765.059    22957779.414
  23298614.031    -2593211.71749  -2007781.21145  23298613.066    23298631.432
  24281688.666    -1931928.97649  -1496633.29245  24281688.297    24281705.798
  20500942.060    -1389716.31549   -947927.91447  20500941.334    20500951.662
 02  4  8 18 12 30.0000000  0  7G24G 4G30G 9G10G 6G 5
  20543322.626     -169899.76849   -134492.28047  20543322.204    20543333.096
  22566708.999     1171661.25449    899219.14146  22566708.952    22566722.156
  21688686.699    -2374606.02749  -1832700.47146  21688686.745    21688698.699
  22973975.523     1031434.09649    791860.26146  22973975.177    22973989.576
  23279491.810    -2693698.53149  -2086082.35645  23279490.854    23279509.166
  24268006.003    -2003832.21949  -1552661.63345  24268005.620    24268022.847
  20494854.854    -1421704.90149   -972854.07347  20494854.118    20494864.455
 02  4  8 18 13  0.0000000  0  7G24G 4G30G 9G10G 6G 5
  20548873.631     -140729.45549   -111762.21447  20548873.211    20548884.100
  22584079.020     1262940.80449    970345.89246  22584078.977    22584092.355
  21673584.816    -2453965.86449  -1894539.22946  21673584.920    21673596.843
  22990227.326     1116836.34449    858407.26946  22990226.957    22990241.444
  23260395.022    -2794051.92049  -2164279.53145  23260393.995    23260412.494
  24254329.902    -2075699.72149  -1608662.12345  24254329.487    24254346.735
  20488855.337    -1453232.82549   -997421.28447  20488854.601    20488864.937
 02  4  8 18 13 30.0000000  0  7G24G 4G30G 9G10G 6G 5
  20554510.185     -111109.54149    -88681.80247  20554509.789    20554520.638
  22601487.248     1354420.84549   1041628.86746  22601487.216    22601500.650
  21658538.490    -2533034.87049  -1956151.35547  21658538.596    21658550.415
  23006519.878     1202453.19849    925121.51146  23006519.468    23006534.144
  23241323.999    -2894269.87549  -2242371.19445  23241322.977    23241341.419
  24240660.214    -2147532.74949  -1664635.73045  24240659.860    24240677.108
  20482943.529    -1484299.75649  -1021629.27547  20482942.784    20482953.142
 02  4  8 18 14  0.0000000  0  7G24G 4G30G 9G10G 6G 5
  20560232.083      -81041.20349    -65251.98047  20560231.688    20560242.486
  22618933.267     1446099.21149   1113066.37546  22618933.188    22618946.666
  21643548.069    -2611810.05049  -2017534.51647  21643548.174    21643559.940
  23022852.613     1288282.12649    992001.01246  23022852.231    23022867.107
  23222279.509    -2994348.53749  -2320354.30245  23222278.481    23222296.813
  24226997.242    -2219330.93449  -1720582.19845  24226996.980    24227014.105
  20477119.840    -1514903.61949  -1045476.43847  20477119.076    20477129.459
 02  4  8 18 14 30.0000000  0  7G24G 4G30G 9G10G 6G 5
  20566038.880      -50526.74849    -41474.53247  20566038.468    20566049.241
  22636416.402     1537973.25149   1184656.36546  22636416.315    22636429.960
  21628613.878    -2690289.14249  -2078686.96247  21628613.983    21628625.806
  23039225.204     1374319.77349   1059043.12046  23039224.876    23039239.712
  23203262.057    -3094284.95149  -2398226.59045  23203261.017    23203279.311
  24213340.906    -2291094.29449  -1776501.51045  24213340.653    24213357.906
  20471384.497    -1545043.10049  -1068961.74547  20471383.736    20471394.127
 02  4  8 18 15  0.0000000  0  7G24G 4G30G 9G10G 6G 5
  20571929.655      -19570.89449    -17353.13947  20571929.240    20571940.020
  22653935.700     1630037.35749   1256394.45446  22653935.646    22653949.406
  21613735.890    -2768472.88449  -2139609.28047  21613736.002    21613747.943
  23055636.534     1460560.18649   1126243.20946  23055636.195    23055650.712
  23184271.665    -3194078.71249  -2475987.71645  23184270.683    23184289.025
  24199690.641    -2362826.12749  -1832396.26245  24199690.353    24199707.837
  20465737.187    -1574719.64149  -1092086.31847  20465736.445    20465746.901
 02  4  8 18 15 30.0000000  0  7G24G 4G30G 9G10G 6G 5
  20577904.325       11825.80249      7111.76147  20577903.923    20577914.711
  22671491.049     1722290.26349   1328279.65446  22671490.992    22671504.755
  21598914.870    -2846357.60949  -2200298.60547  21598915.002    21598926.926
  23072086.019     1547001.37549   1193599.73546  23072085.647    23072099.926
  23165309.410    -3293725.44049  -2553634.26945  23165308.441    23165326.679
  24186046.648    -2434525.26949  -1888265.53645  24186046.409    24186063.989
  20460178.558    -1603930.38849  -1114847.93548  20460177.844    20460188.316
 02  4  8 18 16  0.0000000  0  7G24G 4G30G 9G10G 6G 5
  20583962.731       43662.60149     31919.59747  20583962.319    20583973.132
  22689082.122     1814730.41649   1400310.75046  22689082.045    22689095.744
  21584151.459    -2923939.93149  -2260752.28647  21584151.603    21584163.445
  23088573.048     1633641.34449   1261111.19846  23088572.664    23088587.085
  23146375.900    -3393220.83149  -2631162.89345  23146374.909    23146393.033
  24172409.012    -2506190.89349  -1944108.71545  24172408.740    24172426.553
  20454709.087    -1632672.76749  -1137244.59348  20454708.380    20454718.857
 02  4  8 18 16 30.0000000  0  7G24G 4G30G 9G10G 6G 5
  20590104.617       75937.93949     57069.15147  20590104.197    20590115.024
  22706708.291     1907355.89149   1472486.26146  22706708.213    22706721.921
  21569446.236    -3001216.73249  -2320967.90347  21569446.353    21569458.126
  23105097.417     1720477.94549   1328775.88546  23105097.124    23105111.896
  23127471.968    -3492560.92149  -2708570.53345  23127471.026    23127488.927
  24158777.826    -2577822.43249  -1999925.35545  24158777.577    24158795.674
  20449329.173    -1660944.54349  -1159274.55448  20449328.474    20449338.939
 02  4  8 18 17  0.0000000  0  7G24G 4G30G 9G10G 6G 5
  20596329.530      108649.86349     82558.90547  20596329.108    20596339.961
  22724369.229     2000164.18749   1544804.22446  22724369.176    22724382.897
  21554799.539    -3078185.70949  -2380943.65447  21554799.653    21554811.370
  23121658.937     1807507.83549   1396591.18246  23121658.648    23121673.458
  23108598.171    -3591742.65449  -2785854.75645  23108597.141    23108615.054
  24145153.008    -2649420.12449  -2055715.61645  24145152.719    24145171.113
  20444039.071    -1688744.32149  -1180936.71948  20444038.377    20444048.827
 02  4  8 18 17 30.0000000  0  7G24G 4G30G 9G10G 6G 5
  20602637.105      141796.06249    108387.05847  20602636.671    20602647.539
  22742064.460     2093152.31249   1617262.30046  22742064.456    22742078.079
  21540211.706    -3154844.98449  -2440678.08847  21540211.822    21540223.546
  23138256.822     1894727.64649   1464554.44546  23138256.477    23138271.081
  23089755.034    -3690763.30549  -2863013.48246  23089753.967    23089771.945
  24131534.462    -2720984.44049  -2111479.86845  24131534.267    24131552.675
  20438838.991    -1716071.07249  -1202230.29447  20438838.287    20438848.751
 02  4  8 18 18  0.0000000  0  7G24G 4G30G 9G10G 6G 5
  20609027.071      175375.39049    134552.71747  20609026.638    20609037.530
  22759793.555     2186318.17349   1689858.87246  22759793.513    22759807.117
  21525683.260    -3231191.49749  -2500168.81847  21525683.380    21525695.202
  23154890.133     1982134.70249   1532663.60546  23154889.783    23154904.232
  23070943.142    -3789619.12049  -2940043.77246  23070942.080    23070960.188
  24117922.309    -2792514.95249  -2167217.79545  24117922.091    24117940.575
  20433729.238    -1742922.90649  -1223153.80447  20433728.534    20433739.035
 02  4  8 18 18 30.0000000  0  7G24G 4G30G 9G10G 6G 5
  20615499.043      209385.97049    161054.41347  20615498.657    20615509.563
  22777555.877     2279659.42849   1762592.12746  22777555.846    22777569.592
  21511214.770    -3307222.99049  -2559414.07947  21511214.946    21511226.824
  23171558.240     2069725.83549   1600916.21546  23171557.864    23171572.321
  23052163.334    -3888306.49749  -3016942.80846  23052162.291    23052180.407
  24104316.395    -2864011.79349  -2222929.49345  24104316.160    24104334.891
  20428710.120    -1769298.43749  -1243706.16947  20428709.429    20428719.951
 02  4  8 18 19  0.0000000  0  7G24G 4G30G 9G10G 6G 5
  20622052.732      243825.93349    187890.69947  20622052.370    20622063.315
  22795351.096     2373173.84449   1835460.32446  22795351.127    22795365.032
  21496806.908    -3382936.64249  -2618411.65847  21496807.080    21496818.943
  23188260.796     2157498.41749   1669310.20946  23188260.501    23188275.021
  23033416.245    -3986822.43349  -3093708.24946  23033415.239    23033433.169
  24090717.036    -2935474.75549  -2278614.82645  24090716.784    24090735.692
  20423781.977    -1795195.77149  -1263885.91247  20423781.310    20423791.828
 02  4  8 18 19 30.0000000  0  7G24G 4G30G 9G10G 6G 5
  20628687.793      278693.11649    215059.87947  20628687.447    20628698.394
  22813178.887     2466858.60749   1908461.23646  22813178.895    22813192.868
  21482460.030    -3458330.48749  -2677160.04447  21482460.162    21482471.954
  23204997.342     2245449.06349   1737842.95746  23204997.064    23205011.633
  23014702.363    -4085163.73849  -3170337.62546  23014701.364    23014719.085
  24077124.518    -3006903.97549  -2334273.82945  24077124.293    24077142.830
  20418945.141    -1820613.69049  -1283692.09547  20418944.469    20418954.967
 02  4  8 18 20  0.0000000  0  7G24G 4G30G 9G10G 6G 5
  20635403.706      313985.01449    242560.00547  20635403.337    20635414.258
  22831038.570     2560710.55549   1981592.40746  22831038.541    22831052.509
  21468174.310    -3533402.67749  -2735657.79547  21468174.412    21468186.158
  23221767.192     2333573.99149   1806511.50446  23221766.905    23221781.547
  22996022.317    -4183327.46349  -3246828.62946  22996021.306    22996038.896
  24063538.554    -3078300.34749  -2389907.23145  24063538.249    24063556.255
  20414199.620    -1845551.64149  -1303124.27347  20414198.954    20414209.411
 02  4  8 18 20 30.0000000  0  7G24G 4G30G 9G10G 6G 5
  20642200.029      349699.65449    270389.53847  20642199.662    20642210.574
  22848929.484     2654727.18949   2054851.91546  22848929.485    22848943.516
  21453950.181    -3608150.77149  -2793902.99547  21453950.259    21453961.985
  23238569.648     2421870.37449   1875313.65246  23238569.332    23238584.099
  22977376.683    -4281310.66249  -3323178.97046  22977375.654    22977392.966
  24049958.699    -3149663.81349  -2445514.99645  24049958.370    24049975.887
  20409545.819    -1870007.92549  -1322181.12547  20409545.136    20409555.538
 02  4  8 18 21  0.0000000  0  7G24G 4G30G 9G10G 6G 5
  20649076.546      385835.74949    298547.47747  20649076.202    20649087.113
  22866851.376     2748906.67549   2128238.31146  22866851.418    22866865.485
  21439788.256    -3682571.83449  -2851893.36147  21439788.363    21439799.948
  23255404.210     2510335.56249   1944247.33146  23255403.838    23255418.791
  22958766.189    -4379109.19249  -3399385.41046  22958765.218    22958782.260
  24036384.897    -3220993.89249  -2501096.75545  24036384.558    24036402.010
  20404984.013    -1893980.56249  -1340861.11047  20404983.314    20404993.684
 02  4  8 18 21 30.0000000  0  7G24G 4G30G 9G10G 6G 5
  20656032.939      422391.51049    327032.43047  20656032.596    20656043.513
  22884803.991     2843247.03449   2201750.06946  22884804.009    22884818.082
  21425689.131    -3756663.14749  -2909626.77147  21425689.254    21425700.674
  23272270.169     2598966.90149   2013310.50846  23272269.833    23272285.103
  22940191.359    -4476719.92049  -3475445.51846  22940190.367    22940207.291
  24022817.472    -3292290.23649  -2556652.24345  24022817.150    24022834.756
  20400514.588    -1917467.76049  -1359162.82847  20400513.888    20400524.249
 02  4  8 18 22  0.0000000  0  7G24G 4G30G 9G10G 6G 5
  20663068.818      459364.91049    355842.81447  20663068.455    20663079.389
  22902786.762     2937745.87849   2275385.31546  22902786.730    22902800.758
  21411653.233    -3830422.21749  -2967101.27647  21411653.361    21411664.702
  23289167.188     2687761.53849   2082500.90846  23289166.924    23289182.333
  22921652.942    -4574139.10749  -3551356.39046  22921651.990    22921668.866
  24009256.593    -3363552.77049  -2612181.39645  24009256.358    24009274.042
  20396137.725    -1940468.38149  -1377085.39548  20396137.048    20396147.409
 02  4  8 18 22 30.0000000  0  7G24G 4G30G 9G10G 6G 5
  20670183.758      496753.89949    384977.03747  20670183.390    20670194.346
  22920799.043     3032400.55449   2349141.99046  22920799.051    22920813.037
  21397681.003    -3903846.63049  -3024315.01447  21397681.143    21397692.496
  23306095.007     2776716.26749   2151816.02746  23306094.735    23306109.917
  22903151.627    -4671363.30649  -3627115.32646  22903150.669    22903167.655
  23995702.175    -3434781.71649  -2667684.37345  23995701.852    23995719.685
  20391853.720    -1962981.03049  -1394627.72048  20391853.044    20391863.410
 02  4  8 18 23  0.0000000  0  7G24G 4G30G 9G10G 6G 5
  20677377.310      534555.91449    414433.10147  20677376.930    20677387.923
  22938840.321     3127208.00449   2423017.70846  22938840.331    22938854.418
  21383772.735    -3976934.88449  -3081266.82347  21383772.902    21383784.302
  23323052.697     2865827.30749   2221252.94046  23323052.386    23323067.287
  22884687.750    -4768390.57849  -3702720.80246  22884686.821    22884703.878
  23982153.910    -3505977.75149  -2723161.69245  23982153.601    23982171.633
  20387662.733    -1985005.01249  -1411789.27248  20387662.065    20387672.425
 02  4  8 18 23 30.0000000  0  7G24G 4G30G 9G10G 6G 5
  20684649.253      572770.03549    444210.28347  20684648.876    20684659.895
  22956910.497     3222166.69949   2497011.28046  22956910.551    22956924.700
  21369929.118    -4049683.30449  -3137953.82747  21369929.256    21369940.742
  23340039.520     2955092.55349   2290810.03646  23340039.157    23340054.215
  22866262.378    -4865216.38049  -3778169.29346  22866261.396    22866278.365
  23968612.100    -3577139.90649  -2778612.60845  23968611.826    23968629.917
  20383565.159    -2006537.96149  -1428568.20548  20383564.502    20383574.870
 02  4  8 18 24  0.0000000  0  7G24G 4G30G 9G10G 6G 5
  20691999.079      611393.34449    474306.31347  20691998.707    20692009.741
  22975009.046     3317273.96249   2571120.62146  22975009.072    22975023.311
  21356150.427    -4122090.39749  -3194374.86847  21356150.565    21356162.098
  23357054.826     3044508.48249   2360484.54646  23357054.577    23357069.952
  22847875.860    -4961837.92349  -3853458.61646  22847874.835    22847891.746
  23955076.850    -3648268.96349  -2834037.71945  23955076.485    23955094.436
  20379561.149    -2027579.35449  -1444964.10348  20379560.504    20379570.857
 02  4  8 18 24 30.0000000  0  7G24G 4G30G 9G10G 6G 5
  20699426.451      650424.19949    504719.91147  20699426.095    20699437.167
  22993135.297     3412526.80249   2645343.38646  22993135.313    22993149.649
  21342437.117    -4194153.50749  -3250527.88147  21342437.268    21342448.918
  23374098.354     3134072.04449   2430274.10446  23374098.069    23374113.798
  22829528.775    -5058251.89249  -3928586.20746  22829527.727    22829544.635
  23941547.894    -3719364.79949  -2889436.93245  23941547.511    23941565.243
  20375650.953    -2048127.67649  -1460975.79848  20375650.301    20375660.667
 02  4  8 18 25  0.0000000  0  7G24G 4G30G 9G10G 6G 5
  20706930.982      689860.47949    535449.42047  20706930.620    20706941.711
  23011288.866     3507923.40949   2719678.17946  23011288.866    23011303.257
  21328789.756    -4265870.36549  -3306411.08947  21328789.936    21328801.620
  23391169.314     3223780.27649   2500176.36846  23391169.041    23391185.038
  22811221.710    -5154455.28749  -4003549.69246  22811220.631    22811237.491
  23928025.256    -3790427.51549  -2944810.34545  23928024.853    23928042.354
  20371834.833    -2068181.66049  -1476602.28848  20371834.183    20371844.573
 02  4  8 18 25 30.0000000  0  7G24G 4G30G 9G10G 6G 5
  20714512.341      729700.60749    566493.62147  20714511.982    20714523.088
  23029469.305     3603461.39649   2794123.14446  23029469.330    23029483.732
  21315208.901    -4337238.14049  -3362022.29747  21315209.078    21315220.708
  23408267.268     3313630.29349   2570189.09946  23408267.023    23408283.055
  22792955.477    -5250444.00949  -4078345.90846  22792954.417    22792971.221
  23914508.947    -3861456.68549  -3000157.60945  23914508.570    23914525.741
  20368113.085    -2087739.58749  -1491842.23948  20368112.429    20368122.857
 02  4  8 18 26  0.0000000  0  7G24G 4G30G 9G10G 6G 5
  20722170.183      769942.66449    597851.01547  20722169.840    20722180.955
  23047676.339     3699138.94449   2868676.86346  23047676.355    23047690.801
  21301695.092    -4408254.18849  -3417359.43447  21301695.253    21301706.766
  23425392.021     3403619.29349   2640310.13546  23425391.778    23425407.623
  22774730.587    -5346215.02949  -4152972.50146  22774729.573    22774746.442
  23900998.993    -3932452.22149  -3055478.64645  23900998.643    23901015.484
  20364486.013    -2106800.11649  -1506694.60748  20364485.360    20364495.815
 02  4  8 18 26 30.0000000  0  7G24G 4G30G 9G10G 6G 5
  20729904.015      810583.99249    629519.52147  20729903.656    20729914.824
  23065909.422     3794953.03149   2943336.96646  23065909.393    23065923.924
  21288248.499    -4478916.74349  -3472421.12247  21288248.652    21288260.091
  23442542.700     3493743.71149   2710536.68846  23442542.415    23442558.088
  22756547.771    -5441765.25049  -4227427.04746  22756546.801    22756563.635
  23887495.325    -4003414.56549  -3110773.82745  23887494.931    23887511.466
  20360953.718    -2125362.44549  -1521158.77748  20360953.055    20360963.506
 02  4  8 18 27  0.0000000  0  7G24G 4G30G 9G10G 6G 5
  20737713.492      851623.03049    661497.93947  20737713.150    20737724.379
  23084167.809     3890901.15649   3018101.52146  23084167.734    23084182.494
  21274869.604    -4549223.27349  -3527205.38147  21274869.744    21274881.171
  23459718.357     3584000.74349   2780866.58346  23459718.085    23459733.783
  22738407.766    -5537091.27049  -4301706.87646  22738406.779    22738423.547
  23873997.807    -4074343.56949  -3166043.03345  23873997.436    23874013.826
  20357516.428    -2143425.44949  -1535233.85548  20357515.775    20357526.244
 02  4  8 18 27 30.0000000  0  7G24G 4G30G 9G10G 6G 5
  20745598.389      893058.47249    693785.24047  20745598.061    20745609.375
  23102451.426     3986982.23749   3092969.67246  23102451.345    23102466.251
  21261559.102    -4619170.32449  -3581709.52747  21261559.259    21261570.628
  23476918.566     3674388.39249   2851298.25746  23476918.317    23476934.279
  22720311.141    -5632189.18949  -4375808.96046  22720310.137    22720326.832
  23860506.730    -4145238.12749  -3221285.41645  23860506.406    23860522.939
  20354174.614    -2160986.78649  -1548918.02748  20354173.959    20354184.417
 02  4  8 18 28  0.0000000  0  7G24G 4G30G 9G10G 6G 5
  20753558.190      934887.58449    726379.29147  20753557.881    20753569.242
  23120759.997     4083193.46249   3167939.21646  23120759.960    23120774.779
  21248317.438    -4688755.94649  -3635932.04747  21248317.596    21248328.832
  23494143.033     3764903.08349   2921828.92646  23494142.763    23494158.694
  22702258.466    -5727055.96449  -4449730.93946  22702257.464    22702274.139
  23847022.133    -4216098.71949  -3276501.33545  23847021.791    23847038.602
  20350928.472    -2178045.58649  -1562210.61348  20350927.816    20350938.247
 02  4  8 18 28 30.0000000  0  7G24G 4G30G 9G10G 6G 5
  20761592.547      977108.02249    759278.27547  20761592.239    20761603.593
  23139092.950     4179531.77549   3243007.78846  23139092.859    23139107.602
  21235144.914    -4757978.24449  -3689871.43447  21235145.055    21235156.116
  23511391.260     3855541.52049   2992456.00146  23511390.952    23511406.729
  22684250.395    -5821688.62249  -4523470.48846  22684249.362    22684266.034
  23833544.072    -4286925.92149  -3331691.22545  23833543.731    23833560.716
  20347778.058    -2194601.21449  -1575111.11048  20347777.377    20347787.796
 02  4  8 18 29  0.0000000  0  7G24G 4G30G 9G10G 6G 5
  20769701.147     1019718.31149    792481.04347  20769700.805    20769712.123
  23157449.604     4275995.37349   3318174.01846  23157449.471    23157464.409
  21222042.031    -4826834.56849  -3743525.64847  21222042.166    21222053.025
  23528662.485     3946300.74449   3063177.21746  23528662.186    23528677.971
  22666287.361    -5916083.83149  -4597025.02246  22666286.317    22666302.989
  23820072.426    -4357719.45549  -3386854.88445  23820072.088    23820089.112
  20344723.624    -2210652.29449  -1587618.44948  20344722.951    20344733.392
 02  4  8 18 29 30.0000000  0  7G24G 4G30G 9G10G 6G 5
  20777883.329     1062715.68149    825985.43147  20777882.991    20777894.273
  23175829.365     4372581.76849   3393435.92946  23175829.298    23175844.557
  21209009.151    -4895322.59149  -3796892.88347  21209009.289    21209020.079
  23545956.015     4037177.89349   3133990.30746  23545955.693    23545971.738
  22648370.153    -6010238.14349  -4670391.83846  22648369.170    22648385.679
  23806607.137    -4428479.23149  -3441992.25246  23806606.869    23806623.908
  20341765.412    -2226197.73449  -1599731.78748  20341764.749    20341775.204
 02  4  8 18 30  0.0000000  0  7G24G 4G30G 9G10G 6G 5
  20786138.757     1106097.95849    859789.75647  20786138.416    20786149.680
  23194232.111     4469288.22449   3468791.38646  23194232.077    23194247.378
  21196046.656    -4963440.29549  -3849971.56147  21196046.772    21196057.668
  23563271.387     4128169.35049   3204892.47846  23563271.056    23563287.181
  22630499.399    -6104148.89249  -4743568.85846  22630498.402    22630514.817
  23793148.336    -4499205.73249  -3497103.68646  23793148.046    23793165.073
  20338903.586    -2241236.83149  -1611450.56948  20338902.930    20338913.354
 02  4  8 18 30 30.0000000  0  7G24G 4G30G 9G10G 6G 5
  20794467.209     1149863.97349    893893.10147  20794466.860    20794478.119
  23212657.573     4566113.61349   3544239.50746  23212657.562    23212672.732
  21183155.207    -5031184.41749  -3902759.14547  21183155.347    21183166.364
  23580608.149     4219273.21449   3275882.22746  23580607.755    23580623.917
  22612675.819    -6197811.78849  -4816552.76846  22612674.841    22612691.292
  23779696.173    -4569897.86049  -3552188.32346  23779695.899    23779712.653
  20336138.522    -2255767.41849  -1622773.11048  20336137.845    20336148.289
 02  4  8 18 31  0.0000000  0  7G24G 4G30G 9G10G 6G 5
  20802868.201     1194011.34449    928293.59947  20802867.874    20802879.133
  23231104.973     4663054.92049   3619777.95346  23231105.000    23231120.207
  21170335.278    -5098553.12849  -3955254.20947  21170335.422    21170346.529
  23597965.373     4310485.73749   3346956.63746  23597964.988    23597981.150
  22594899.987    -6291223.96149  -4889341.29946  22594898.997    22594915.466
  23766250.348    -4640556.26049  -3607246.68146  23766250.057    23766266.617
  20333470.321    -2269789.01049  -1633699.03348  20333469.652    20333480.088
 02  4  8 18 31 30.0000000  0  7G24G 4G30G 9G10G 6G 5
  20811341.407     1238538.11649    962989.73847  20811341.078    20811352.340
  23249574.120     4760110.44349   3695405.41046  23249574.184    23249589.573
  21157587.392    -5165543.58049  -4007454.51447  21157587.547    21157598.663
  23615342.816     4401804.56149   3418113.88046  23615342.548    23615358.697
  22577172.681    -6384381.69849  -4961931.56446  22577171.659    22577188.023
  23752810.820    -4711180.38549  -3662278.34145  23752810.552    23752827.003
  20330899.273    -2283299.95949  -1644227.05648  20330898.622    20330909.056
 02  4  8 18 32  0.0000000  0  7G24G 4G30G 9G10G 6G 5
  20819886.442     1283442.08649    997979.79147  20819886.102    20819897.373
  23268064.679     4857277.60349   3771119.85346  23268064.744    23268080.205
  21144911.932    -5232153.65049  -4059358.41147  21144912.082    21144923.190
  23632740.178     4493226.33949   3489351.33346  23632739.883    23632755.915
  22559494.202    -6477282.19249  -5034321.37446  22559493.148    22559509.425
  23739377.670    -4781770.42549  -3717283.44545  23739377.411    23739393.935
  20328425.602    -2296299.45449  -1654356.54548  20328424.954    20328435.358
 02  4  8 18 32 30.0000000  0  7G24G 4G30G 9G10G 6G 5
  20828502.739     1328720.53749   1033261.64747  20828502.398    20828513.643
  23286575.947     4954553.77249   3846919.24646  23286575.999    23286591.496
  21132309.230    -5298381.28849  -4110964.30747  21132309.387    21132320.513
  23650156.624     4584747.73649   3560666.41946  23650156.236    23650172.289
  22541865.197    -6569922.05849  -5106508.10646  22541864.183    22541880.412
  23725951.082    -4852326.57949  -3772262.13945  23725950.817    23725967.367
  20326049.403    -2308786.68749  -1664086.87048  20326048.749    20326059.129
 02  4  8 18 33  0.0000000  0  7G24G 4G30G 9G10G 6G 5
  20837190.024     1374372.04449   1068834.19747  20837189.674    20837200.901
  23305107.559     5051937.21149   3922802.21946  23305107.669    23305123.202
  21119779.764    -5364223.75649  -4162270.07247  21119779.921    21119791.102
  23667591.288     4676366.20249   3632057.16346  23667590.907    23667607.127
  22524286.446    -6662298.05949  -5178489.22546  22524285.452    22524301.667
  23712531.092    -4922848.47449  -3827214.11745  23712530.827    23712547.407
  20323770.919    -2320760.35749  -1673417.01248  20323770.267    20323780.627
 02  4  8 18 33 30.0000000  0  7G24G 4G30G 9G10G 6G 5
  20845947.919     1420394.64749   1104695.91047  20845947.551    20845958.790
  23323659.253     5149425.83849   3998767.14546  23323659.356    23323674.855
  21107324.061    -5429678.51049  -4213273.72147  21107324.244    21107335.469
  23685043.729     4768079.09749   3703521.47046  23685043.436    23685059.845
  22506758.624    -6754406.62949  -5250261.96546  22506757.636    22506773.845
  23699117.699    -4993335.83849  -3882139.20045  23699117.393    23699133.948
  20321590.452    -2332219.06949  -1682345.89348  20321589.796    20321600.161
 02  4  8 18 34  0.0000000  0  7G24G 4G30G 9G10G 6G 5
  20854775.860     1466785.87849   1140844.86947  20854775.500    20854786.794
  23342230.491     5247016.97049   4074811.94446  23342230.559    23342246.050
  21094942.571    -5494743.47949  -4263973.64147  21094942.755    21094954.001
  23702513.569     4859882.92949   3775056.65746  23702513.242    23702529.870
  22489282.222    -6846244.78249  -5321823.97946  22489281.265    22489297.465
  23685710.733    -5063789.02449  -3937037.66645  23685710.474    23685726.995
  20319508.061    -2343162.25649  -1690873.06948  20319507.408    20319517.776
 02  4  8 18 34 30.0000000  0  7G24G 4G30G 9G10G 6G 5
  20863673.552     1513543.78249   1177279.54447  20863673.200    20863684.563
  23360820.720     5344708.59349   4150935.05246  23360820.800    23360836.506
  21082635.801    -5559416.03449  -4314367.77847  21082635.965    21082647.194
  23720000.207     4951775.03949   3846660.59045  23719999.905    23720016.535
  22471857.944    -6937809.13349  -5393172.63946  22471856.987    22471873.211
  23672310.470    -5134207.75649  -3991909.28045  23672310.250    23672326.675
  20317523.993    -2353588.73249  -1698997.61748  20317523.321    20317533.717
 02  4  8 18 35  0.0000000  0  7G24G 4G30G 9G10G 6G 5
  20872640.697     1560666.20849   1213998.26247  20872640.362    20872651.723
  23379429.570     5442498.44249   4227134.72046  23379429.657    23379445.618
  21070404.047    -5623694.17949  -4364454.58647  21070404.183    21070415.384
  23737503.063     5043752.10449   3918330.73145  23737502.749    23737519.288
  22454486.364    -7029096.41949  -5464305.41246  22454485.434    22454501.704
  23658916.893    -5204592.08549  -4046754.09946  23658916.653    23658932.956
  20315638.358    -2363497.85749  -1706719.03248  20315637.697    20315648.101
 02  4  8 18 35 30.0000000  0  7G24G 4G30G 9G10G 6G 5
  20881676.850     1608151.10749   1250999.42747  20881676.496    20881687.857
  23398056.898     5540384.75649   4303409.52446  23398057.002    23398073.036
  21058247.848    -5687575.04049  -4414231.82147  21058247.998    21058259.163
  23755021.648     5135811.68949   3990065.17545  23755021.470    23755037.732
  22437168.159    -7120103.09149  -5535219.53146  22437167.253    22437183.592
  23645529.930    -5274941.53649  -4101571.74146  23645529.680    23645545.883
  20313851.432    -2372888.17249  -1714036.18648  20313850.784    20313861.217
 02  4  8 18 36  0.0000000  0  7G24G 4G30G 9G10G 6G 5
  20890781.624     1655996.59049   1288281.56547  20890781.273    20890792.621
  23416702.168     5638365.10449   4379757.60046  23416702.264    23416718.300
  21046167.672    -5751056.58549  -4463697.90947  21046167.831    21046178.979
  23772555.492     5227950.98249   4061861.71145  23772555.222    23772571.530
  22419903.966    -7210825.93049  -5605912.48946  22419903.094    22419919.399
  23632149.392    -5345256.16949  -4156362.25746  23632149.134    23632165.352
  20312163.414    -2381758.89449  -1720948.45948  20312162.742    20312173.211
 02  4  8 18 36 30.0000000  0  7G24G 4G30G 9G10G 6G 5
  20899954.590     1704200.24649   1325842.79447  20899954.243    20899965.588
  23435364.829     5736436.94049   4456176.96446  23435364.904    23435380.894
  21034163.832    -5814136.68949  -4512851.18147  21034164.011    21034175.173
  23790103.706     5320166.46149   4133717.64345  23790103.504    23790120.096
  22402694.469    -7301261.98349  -5676381.97146  22402693.618    22402709.819
  23618775.329    -5415536.22149  -4211125.84045  23618775.073    23618791.346
  20310574.360    -2390109.48949  -1727455.43748  20310573.682    20310584.197
 02  4  8 18 37  0.0000000  0  7G24G 4G30G 9G10G 6G 5
  20909195.175     1752759.56049   1363681.14847  20909194.826    20909206.193
  23454044.565     5834598.24749   4532666.04746  23454044.622    23454060.512
  21022236.836    -5876813.07449  -4561689.86747  21022237.018    21022248.180
  23807665.709     5412455.20749   4205630.63745  23807665.506    23807682.457
  22385540.216    -7391407.96849  -5746625.44246  22385539.354    22385555.466
  23605407.964    -5485781.45249  -4265862.26545  23605407.737    23605423.835
  20309084.488    -2397938.79649  -1733556.21948  20309083.834    20309094.369
 02  4  8 18 37 30.0000000  0  7G24G 4G30G 9G10G 6G 5
  20918503.087     1801672.90849   1401795.37747  20918502.722    20918514.108
  23472740.954     5932847.10549   4609223.35546  23472740.939    23472756.820
  21010387.222    -5939082.93949  -4610211.79047  21010387.402    21010398.528
  23825241.216     5504814.46949   4277598.58545  23825241.058    23825258.019
  22368441.682    -7481260.54449  -5816640.28746  22368440.801    22368456.918
  23592047.252    -5555991.63949  -4320571.37145  23592047.006    23592062.904
  20307694.035    -2405245.79249  -1739250.00848  20307693.376    20307703.923
 02  4  8 18 38  0.0000000  0  7G24G 4G30G 9G10G 6G 5
  20927877.953     1850938.32849   1440183.94847  20927877.592    20927889.029
  23491453.487     6031181.41049   4685847.24746  23491453.465    23491469.459
  20998615.383    -6000944.05949  -4658415.21047  20998615.561    20998626.653
  23842829.675     5597241.29049   4349619.15645  23842829.462    23842846.357
  22351399.689    -7570816.11349  -5886423.68946  22351398.819    22351414.923
  23578693.227    -5626166.40349  -4375252.88445  23578693.041    23578708.748
  20306403.142    -2412029.44049  -1744535.99148  20306402.500    20306413.044
 02  4  8 18 38 30.0000000  0  7G24G 4G30G 9G10G 6G 5
  20937319.412     1900553.57649   1478845.10447  20937319.085    20937330.499
  23510181.932     6129599.06149   4762536.07046  23510181.989    23510197.978
  20986921.832    -6062393.98149  -4706298.22347  20986922.026    20986933.050
  23860430.522     5689733.06949   4421690.35545  23860430.297    23860447.251
  22334414.792    -7660071.51949  -5955973.18946  22334413.888    22334429.944
  23565346.117    -5696305.64349  -4429906.72545  23565345.911    23565361.603
  20305212.088    -2418288.76549  -1749413.41848  20305211.435    20305221.983
 02  4  8 18 39  0.0000000  0  7G24G 4G30G 9G10G 6G 5
  20946827.075     1950516.38549   1517777.09747  20946826.743    20946838.119
  23528926.043     6228098.00749   4839288.23546  23528926.023    23528941.881
  20975307.029    -6123430.42449  -4753859.04247  20975307.227    20975318.160
  23878043.162     5782287.00549   4493809.96745  23878042.924    23878060.155
  22317487.569    -7749023.46949  -6025286.23546  22317486.686    22317502.743
  23552005.816    -5766409.30649  -4484532.83445  23552005.606    23552021.250
  20304120.931    -2424023.04049  -1753881.70948  20304120.280    20304130.810
 02  4  8 18 39 30.0000000  0  7G24G 4G30G 9G10G 6G 5
  20956400.641     2000825.11749   1556978.63147  20956400.306    20956411.609
  23547685.030     6326676.50249   4916102.39845  23547685.007    23547700.943
  20963771.435    -6184050.71349  -4801095.58647  20963771.613    20963782.533
  23895667.237     5874900.16149   4565975.76245  23895667.023    23895684.312
  22300618.859    -7837668.21649  -6094359.91546  22300618.004    22300634.113
  23538672.404    -5836476.79349  -4539130.74645  23538672.126    23538687.749
  20303129.909    -2429231.19649  -1757940.04148  20303129.246    20303139.757
 02  4  8 18 40  0.0000000  0  7G24G 4G30G 9G10G 6G 5
  20966039.353     2051476.29949   1596447.01647  20966039.003    20966050.278
  23566458.173     6425330.57249   4992975.46345  23566458.201    23566474.527
  20952315.068    -6244254.20449  -4848007.35747  20952315.254    20952326.200
  23913301.701     5967568.05149   4638184.16045  23913301.425    23913318.789
  22283808.973    -7926004.47449  -6163193.20946  22283808.081    22283824.146
  23525345.488    -5906509.84149  -4593701.84845  23525345.193    23525360.814
  20302238.822    -2433913.99449  -1761589.00348  20302238.163    20302248.662
 02  4  8 18 40 30.0000000  0  7G24G 4G30G 9G10G 6G 5
  20975742.871     2102468.18049   1636180.87347  20975742.516    20975753.816
  23585245.884     6524059.48849   5069906.82145  23585246.023    23585262.283
  20940938.595    -6304037.68249  -4894591.84447  20940938.780    20940949.775
  23930945.902     6060288.73049   4710433.72345  23930945.711    23930963.114
  22267058.615    -8014027.77249  -6231782.64346  22267057.677    22267073.683
  23512025.332    -5976507.10549  -4648245.05846  23512025.053    23512040.713
  20301448.062    -2438069.64549  -1764827.20248  20301447.410    20301457.902
 02  4  8 18 41  0.0000000  0  7G24G 4G30G 9G10G 6G 5
  20985510.867     2153799.31049   1676179.08147  20985510.513    20985521.907
  23604047.784     6622861.59849   5146895.20645  23604047.927    23604063.877
  20929642.607    -6363398.11949  -4940846.69247  20929642.800    20929653.829
  23948599.754     6153059.94549   4782722.67545  23948599.609    23948617.265
  22250368.450    -8101734.16149  -6300125.14546  22250367.531    22250383.525
  23498712.200    -6046467.82749  -4702759.78545  23498711.941    23498727.597
  20300757.891    -2441696.77549  -1767653.56848  20300757.228    20300767.726
 02  4  8 18 41 30.0000000  0  7G24G 4G30G 9G10G 6G 5
  20995342.973     2205467.18049   1716439.68547  20995342.647    20995354.114
  23622862.867     6721734.02749   5223938.38745  23622863.002    23622878.891
  20918427.417    -6422334.04349  -4986770.75347  20918427.634    20918438.618
  23966262.804     6245878.05549   4855048.13345  23966262.740    23966280.345
  22233739.049    -8189121.39549  -6368218.95246  22233738.164    22233754.121
  23485405.779    -6116392.85349  -4757246.70545  23485405.513    23485421.340
  20300168.301    -2444795.27249  -1770068.01148  20300167.636    20300178.150
 02  4  8 18 42  0.0000000  0  7G24G 4G30G 9G10G 6G 5
  21005238.852     2257470.26749   1756961.48947  21005238.526    21005250.065
  23641690.800     6820675.51049   5301035.39945  23641690.878    23641707.058
  20907293.638    -6480842.48649  -5032361.70747  20907293.842    20907304.748
  23983934.552     6338740.98149   4927408.49045  23983934.278    23983951.963
  22217171.210    -8276185.55249  -6436061.00946  22217170.323    22217186.271
  23472106.178    -6186281.24649  -4811705.08745  23472105.881    23472121.961
  20299679.518    -2447363.83549  -1772069.52648  20299678.865    20299689.399
 02  4  8 18 42 30.0000000  0  7G24G 4G30G 9G10G 6G 5
  21015198.105     2309806.12149   1797742.60647  21015197.781    21015209.343
  23660531.570     6919683.96349   5378184.59545  23660531.704    23660548.056
  20896241.590    -6538921.28749  -5077617.87847  20896241.793    20896252.641
  24001613.867     6431645.65649   4999801.39545  24001613.579    24001631.252
  22200665.420    -8362923.55549  -6503648.91446  22200664.510    22200680.392
  23458813.512    -6256132.74149  -4866134.71045  23458813.222    23458829.669
  20299291.716    -2449401.78149  -1773657.56848  20299291.073    20299301.628
 02  4  8 18 43  0.0000000  0  7G24G 4G30G 9G10G 6G 5
  21025220.362     2362472.99949   1838781.65647  21025220.023    21025231.599
  23679384.888     7018757.55349   5455384.51745  23679385.032    23679401.411
  20885271.818    -6596567.69949  -5122537.13047  20885272.017    20885282.872
  24019300.420     6524589.58049   5072224.88145  24019300.075    24019318.143
  22184222.505    -8449331.48049  -6570979.61946  22184221.583    22184237.298
  23445528.175    -6325946.73949  -4920535.09745  23445527.819    23445544.317
  20299005.100    -2450907.99449  -1774831.27648  20299004.452    20299015.032
 02  4  8 18 43 30.0000000  0  7G24G 4G30G 9G10G 6G 5
  21035304.848     2415466.85449   1880075.50247  21035304.492    21035316.115
  23698249.700     7117892.30449   5532632.11845  23698249.893    23698266.209
  20874384.328    -6653781.69649  -5167119.43947  20874384.514    20874395.411
  24036993.737     6617568.10449   5144675.33645  24036993.594    24037011.921
  22167842.567    -8535408.40149  -6638052.40046  22167841.642    22167857.260
  23432249.697    -6395725.06949  -4974907.68345  23432249.351    23432265.787
  20298819.421    -2451883.76949  -1775591.65448  20298818.780    20298829.404
 02  4  8 18 44  0.0000000  0  7G24G 4G30G 9G10G 6G 5
  21045451.334     2468786.90149   1921623.52347  21045450.987    21045462.697
  23717126.113     7217087.98049   5609927.17645  23717126.384    23717142.709
  20863579.918    -6710559.04549  -5211361.50547  20863580.104    20863591.045
  24054693.893     6710579.88149   5217151.69545  24054693.562    24054712.091
  22151526.496    -8621149.48249  -6704863.50046  22151525.558    22151541.149
  23418978.194    -6465466.01449  -5029251.14145  23418977.860    23418994.339
  20298735.123    -2452326.84049  -1775936.93948  20298734.488    20298745.134
 02  4  8 18 44 30.0000000  0  7G24G 4G30G 9G10G 6G 5
  21055659.451     2522430.91849   1963423.98647  21055659.120    21055670.903
  23736013.817     7316342.38649   5687268.01145  23736013.919    23736030.355
  20852858.963    -6766897.85849  -5255261.85247  20852859.136    20852870.123
  24072399.603     6803621.92849   5289651.63745  24072399.234    24072417.874
  22135274.960    -8706551.50849  -6771410.41046  22135274.029    22135289.582
  23405713.688    -6535169.49049  -5083565.41945  23405713.423    23405730.045
  20298752.283    -2452236.68449  -1775866.72348  20298751.657    20298762.324
 02  4  8 18 45  0.0000000  0  7G24G 4G30G 9G10G 6G 5
  21065928.844     2576396.67249   2005475.14847  21065928.521    21065940.334
  23754912.152     7415653.12149   5764652.75345  23754912.296    23754928.997
  20842221.893    -6822796.14049  -5298818.92647  20842222.080    20842233.034
  24090110.226     6896691.07149   5362172.68945  24090109.863    24090128.628
  22119088.568    -8791611.53649  -6837690.83346  22119087.634    22119103.088
  23392456.412    -6604835.54749  -5137850.55445  23392456.180    23392472.845
  20298870.974    -2451613.04249  -1775380.80448  20298870.344    20298881.030
 02  4  8 18 45 30.0000000  0  7G24G 4G30G 9G10G 6G 5
  21076259.119     2630682.10949   2047775.40547  21076258.799    21076270.576
  23773820.889     7515018.44649   5842080.04245  23773821.076    23773837.950
  20831669.116    -6878251.43349  -5342030.80947  20831669.295    20831680.207
  24107825.529     6989784.74649   5434712.85945  24107825.279    24107843.962
  22102967.834    -8876326.22449  -6903702.16246  22102966.894    22102982.322
  23379206.606    -6674463.75049  -5192106.17645  23379206.302    23379223.087
  20299091.379    -2450455.02649  -1774478.49148  20299090.742    20299101.439
 02  4  8 18 46  0.0000000  0  7G24G 4G30G 9G10G 6G 5
  21086649.745     2685284.64649   2090322.75347  21086649.426    21086661.188
  23792739.773     7614435.62849   5919547.72745  23792739.968    23792756.747
  20821200.889    -6933262.47149  -5384896.51847  20821201.043    20821211.905
  24125545.035     7082899.23449   5507269.23545  24125544.741    24125563.388
  22086913.178    -8960693.33049  -6969442.65846  22086912.229    22086927.667
  23365963.905    -6744054.69749  -5246332.77645  23365963.590    23365980.361
  20299413.424    -2448762.81449  -1773159.92248  20299412.789    20299423.479
 02  4  8 18 46 30.0000000  0  7G24G 4G30G 9G10G 6G 5
  21097100.292     2740202.30449   2133115.64847  21097099.981    21097111.725
  23811668.194     7713903.18249   5997054.62445  23811668.335    23811684.869
  20810817.683    -6987826.35549  -5427413.79047  20810817.861    20810828.679
  24143268.031     7176032.21349   5579840.03645  24143267.723    24143286.573
  22070925.374    -9044709.20049  -7034909.46246  22070924.427    22070939.837
  23352728.373    -6813607.57849  -5300529.72546  23352728.073    23352744.920
  20299837.365    -2446535.30749  -1771424.23548  20299836.725    20299847.419
 02  4  8 18 47  0.0000000  0  7G24G 4G30G 9G10G 6G 5
  21107610.412     2795432.91049   2176152.40447  21107610.095    21107621.836
  23830605.666     7813419.41549   6074599.48345  23830605.675    23830622.133
  20800520.010    -7041940.76849  -5469580.83547  20800520.190    20800530.965
  24160993.813     7269181.09949   5652423.20945  24160993.572    24161012.639
  22055005.143    -9128370.33849  -7100099.84846  22055004.218    22055019.505
  23339500.120    -6883122.20449  -5354696.87546  23339499.851    23339516.647
  20300363.244    -2443771.88449  -1769270.95548  20300362.601    20300373.299
 02  4  8 18 47 30.0000000  0  7G24G 4G30G 9G10G 6G 5
  21118180.437     2850978.55849   2219434.64647  21118180.128    21118191.892
  23849552.751     7912986.38849   6152183.87645  23849552.798    23849569.213
  20790309.114    -7095599.34449  -5511392.67847  20790309.288    20790320.046
  24178722.817     7362346.68349   5725019.38545  24178722.578    24178741.777
  22039153.832    -9211669.40749  -7165008.10246  22039152.882    22039168.047
  23326280.087    -6952594.27249  -5408830.84946  23326279.852    23326296.495
  20300992.002    -2440467.92149  -1766696.47448  20300991.366    20301002.090
 02  4  8 18 48  0.0000000  0  7G24G 4G30G 9G10G 6G 5
  21128808.887     2906831.30349   2262956.17647  21128808.580    21128820.369
  23868508.273     8012596.35449   6229801.76145  23868508.255    23868524.778
  20780184.193    -7148805.95949  -5552852.34947  20780184.368    20780195.145
  24196453.463     7455520.59349   5797622.05545  24196453.243    24196472.406
  22023370.861    -9294609.13749  -7229636.35946  22023369.908    22023384.988
  23313067.141    -7022029.44249  -5462936.07946  23313066.869    23313083.306
  20301722.574    -2436628.81049  -1763704.99948  20301721.910    20301732.680
 02  4  8 18 48 30.0000000  0  7G24G 4G30G 9G10G 6G 5
  21139495.509     2962989.46749   2306715.69147  21139495.172    21139507.001
  23887471.542     8112247.74849   6307451.95045  23887471.428    23887488.211
  20770145.751    -7201558.05149  -5593957.84047  20770145.927    20770156.726
  24214185.354     7548700.55249   5870229.45445  24214185.088    24214204.430
  22007656.924    -9377186.12649  -7293981.97047  22007655.957    22007670.989
  23299861.326    -7091426.87949  -5517011.89846  23299861.072    23299877.299
  20302555.131    -2432253.70349  -1760295.85948  20302554.494    20302565.293
 02  4  8 18 49  0.0000000  0  7G24G 4G30G 9G10G 6G 5
  21150239.903     3019451.46749   2350711.95947  21150239.584    21150251.441
  23906442.279     8211939.25249   6385133.38145  23906442.234    23906459.196
  20760194.372    -7253852.66649  -5634706.85347  20760194.547    20760205.373
  24231918.135     7641884.43549   5942839.89245  24231917.802    24231937.421
  21992012.711    -9459396.53349  -7358041.91947  21992011.757    21992026.829
  23286662.855    -7160785.83549  -5571057.74746  23286662.589    23286678.710
  20303489.909    -2427341.49349  -1756468.19748  20303489.267    20303500.102
 02  4  8 18 49 30.0000000  0  7G24G 4G30G 9G10G 6G 5
  21161041.671     3076215.08149   2394943.25647  21161041.356    21161053.257
  23925420.519     8311669.33849   6462844.87845  23925420.426    23925437.314
  20750330.471    -7305687.43449  -5675097.53947  20750330.665    20750341.512
  24249651.155     7735069.53049   6015451.25745  24249650.775    24249670.489
  21976438.864    -9541237.00149  -7421813.61346  21976437.939    21976453.022
  23273471.701    -7230105.84149  -5625073.24346  23273471.431    23273487.565
  20304527.017    -2421891.46549  -1752221.45548  20304526.399    20304537.252
 02  4  8 18 50  0.0000000  0  7G24G 4G30G 9G10G 6G 5
  21171900.611     3133279.19349   2439408.71447  21171900.298    21171912.280
  23944405.921     8411436.80249   6540585.48145  23944405.813    23944422.769
  20740554.648    -7357059.61249  -5715127.76747  20740554.833    20740565.680
  24267383.841     7828253.90549   6088062.08445  24267383.440    24267403.304
  21960936.150    -9622703.50449  -7485293.89746  21960935.241    21960950.347
  23260288.084    -7299385.79149  -5679057.53046  23260287.848    23260303.994
  20305666.758    -2415902.38249  -1747554.67648  20305666.120    20305676.971
 02  4  8 18 50 30.0000000  0  7G24G 4G30G 9G10G 6G 5
  21182816.239     3190641.00649   2484106.14347  21182815.952    21182827.960
  23963397.640     8511239.05149   6618353.22045  23963397.595    23963414.916
  20730867.207    -7407967.44949  -5754796.18047  20730867.399    20730878.220
  24285115.622     7921434.18849   6160669.73145  24285115.294    24285135.301
  21945505.165    -9703793.41349  -7548480.73247  21945504.263    21945519.326
  23247112.078    -7368626.00749  -5733010.85346  23247111.879    23247127.954
  20306909.029    -2409374.46449  -1742468.02548  20306908.380    20306919.245
 02  4  8 18 51  0.0000000  0  7G24G 4G30G 9G10G 6G 5
  21193788.382     3248299.44749   2529034.71947  21193788.076    21193800.069
  23982395.957     8611075.49749   6696147.60345  23982395.962    23982413.611
  20721268.714    -7458407.92049  -5794100.41247  20721268.894    20721279.722
  24302846.553     8014608.63049   6233272.78345  24302846.198    24302866.107
  21930146.567    -9784503.09749  -7611371.28847  21930145.656    21930160.722
  23233943.905    -7437825.16949  -5786932.18646  23233943.656    23233959.641
  20308254.076    -2402306.31249  -1736960.41048  20308253.419    20308264.280
 02  4  8 18 51 30.0000000  0  7G24G 4G30G 9G10G 6G 5
  21204816.185     3306250.32849   2574191.16247  21204815.861    21204827.845
  24001400.303     8710942.25949   6773965.59645  24001400.316    24001417.965
  20711759.106    -7508380.89049  -5833040.36347  20711759.307    20711770.143
  24320575.480     8107772.58649   6305867.65945  24320575.105    24320594.895
  21914860.610    -9864830.96649  -7673964.33447  21914859.679    21914874.788
  23220783.236    -7506984.96449  -5840822.83546  23220783.006    23220798.843
  20309701.651    -2394699.33149  -1731032.93048  20309701.006    20309711.868
 02  4  8 18 52  0.0000000  0  7G24G 4G30G 9G10G 6G 5
  21215899.443     3364492.80949   2619574.82447  21215899.108    21215911.131
  24020410.124     8810838.26349   6851806.39245  24020410.076    24020427.809
  20702339.120    -7557883.14749  -5871613.52747  20702339.319    20702350.179
  24338301.840     8200924.37449   6378453.08445  24338301.493    24338321.408
  21899648.031    -9944773.11849  -7736256.81547  21899647.110    21899662.207
  23207630.377    -7576104.05849  -5894681.77146  23207630.132    23207645.872
  20311251.951    -2386552.44649  -1724684.74948  20311251.323    20311262.183
 02  4  8 18 52 30.0000000  0  7G24G 4G30G 9G10G 6G 5
  21227037.798     3423024.68949   2665183.98447  21227037.458    21227049.492
  24039424.921     8910762.33649   6929669.06545  24039424.963    24039442.971
  20693009.172    -7606912.25849  -5909818.01347  20693009.348    20693020.190
  24356025.300     8294061.30149   6451026.92745  24356025.054    24356045.081
  21884509.540   -10024326.01649  -7798245.98547  21884508.640    21884523.674
  23194485.270    -7645181.92649  -5948508.58046  23194485.032    23194500.710
  20312905.162    -2377864.82649  -1717915.21648  20312904.539    20312915.398
 02  4  8 18 53  0.0000000  0  7G24G 4G30G 9G10G 6G 5
  21238230.783     3481843.80849   2711016.97547  21238230.439    21238242.481
  24058444.941     9010712.51649   7007552.06645  24058445.054    24058463.084
  20683769.614    -7655466.16249  -5947652.21247  20683769.794    20683780.628
  24373745.754     8387180.73949   6523587.13145  24373745.546    24373765.598
  21869445.704   -10103486.69149  -7859929.52547  21869444.799    21869459.790
  23181348.051    -7714218.04149  -6002302.84646  23181347.807    23181363.486
  20314661.377    -2368636.14549  -1710724.07748  20314660.753    20314671.567
 02  4  8 18 53 30.0000000  0  7G24G 4G30G 9G10G 6G 5
  21249477.863     3540947.27949   2757071.53947  21249477.543    21249489.604
  24077469.781     9110686.18449   7085453.35745  24077469.854    24077487.702
  20674620.753    -7703543.62149  -5985115.15647  20674620.948    20674631.741
  24391462.262     8480279.20649   6596130.99645  24391461.982    24391482.226
  21854457.028   -10182252.78649  -7921305.61747  21854456.095    21854471.052
  23168218.579    -7783213.05149  -6056065.09446  23168218.307    23168233.940
  20316520.449    -2358866.91449  -1703111.73448  20316519.826    20316530.619
 02  4  8 18 54  0.0000000  0  7G24G 4G30G 9G10G 6G 5
  21260778.774     3600333.55349   2803346.47447  21260778.449    21260790.550
  24096498.692     9210681.64149   7163371.61845  24096498.690    24096516.558
  20665563.048    -7751142.42549  -6022205.11747  20665563.228    20665573.993
  24409173.976     8573353.97949   6668656.39445  24409173.690    24409194.271
  21839544.028   -10260621.10349  -7982371.74347  21839543.079    21839558.015
  23155097.058    -7852166.54649  -6109794.97146  23155096.840    23155112.289
  20318482.446    -2348556.72449  -1695077.86148  20318481.828    20318492.597
 02  4  8 18 54 30.0000000  0  7G24G 4G30G 9G10G 6G 5
  21272133.185     3660001.05549   2849840.54447  21272132.859    21272144.993
  24115531.361     9310698.46649   7241306.57145  24115531.385    24115549.405
  20656596.984    -7798259.36149  -6058919.59547  20656597.165    20656607.877
  24426880.853     8666403.44849   6741162.06545  24426880.661    24426901.215
  21824707.542   -10338587.26249  -8043124.49347  21824706.590    21824721.470
  23141983.803    -7921076.92149  -6163491.23646  23141983.588    23141998.827
  20320547.650    -2337704.09349  -1686621.31248  20320547.038    20320557.815
 02  4  8 18 55  0.0000000  0  7G24G 4G30G 9G10G 6G 5
  21283540.549     3719946.68949   2896551.33747  21283540.212    21283552.370
  24134567.447     9410733.23949   7319255.49545  24134567.496    24134585.566
  20647722.760    -7844893.65149  -6095257.98747  20647722.949    20647733.657
  24444582.575     8759423.73849   6813644.99745  24444582.357    24444602.587
  21809947.836   -10416149.76949  -8103562.70647  21809946.888    21809961.700
  23128878.469    -7989945.26749  -6217154.77546  23128878.201    23128893.430
  20322715.857    -2326310.35649  -1677743.12348  20322715.247    20322726.037
 02  4  8 18 55 30.0000000  0  7G24G 4G30G 9G10G 6G 5
  21295000.370     3780168.29649   2943477.17547  21295000.038    21295012.239
  24153606.933     9510784.65949   7397217.37845  24153606.925    24153624.957
  20638940.767    -7891043.16849  -6131218.63047  20638940.949    20638951.674
  24462278.252     8852412.39349   6886103.25545  24462277.977    24462298.068
  21795265.637   -10493305.17049  -8163683.68647  21795264.692    21795279.428
  23115781.168    -8058770.84849  -6270784.98646  23115780.938    23115796.203
  20324987.130    -2314374.95449  -1668442.85348  20324986.524    20324997.317
 02  4  8 18 56  0.0000000  0  7G24G 4G30G 9G10G 6G 5
  21306512.415     3840664.32249   2990616.84447  21306512.109    21306524.350
  24172649.380     9610851.46349   7475191.25145  24172649.392    24172667.387
  20630251.547    -7936705.32449  -6166799.51447  20630251.714    20630262.422
  24479967.148     8945367.04249   6958535.03245  24479966.872    24479987.256
  21780661.550   -10570050.10649  -8223484.82147  21780660.573    21780675.240
  23102692.288    -8127553.01049  -6324381.34746  23102692.049    23102707.207
  20327361.599    -2301897.17849  -1658719.95748  20327361.001    20327371.800
 02  4  8 18 56 30.0000000  0  7G24G 4G30G 9G10G 6G 5
  21318076.225     3901432.13549   3037968.28747  21318075.933    21318088.195
  24191694.228     9710931.22449   7553175.21045  24191694.198    24191712.319
  20621655.301    -7981878.84149  -6201999.63947  20621655.485    20621666.140
  24497648.865     9038284.53949   7030937.88845  24497648.590    24497669.369
  21766135.972   -10646382.34949  -8282964.37747  21766134.968    21766149.595
  23089611.661    -8196291.97849  -6377944.05446  23089611.455    23089626.398
  20329839.202    -2288877.50849  -1648574.80748  20329838.585    20329849.393
 02  4  8 18 57  0.0000000  0  7G24G 4G30G 9G10G 6G 5
  21329691.224     3962468.78249   3085529.21747  21329690.892    21329703.179
  24210740.869     9811021.51049   7631167.38445  24210740.833    24210759.175
  20613152.388    -8026562.02549  -6236817.68547  20613152.571    20613163.173
  24515323.087     9131161.41349   7103309.09745  24515322.834    24515343.561
  21751689.369   -10722299.28549  -8342120.32547  21751688.340    21751703.001
  23076539.265    -8264987.88449  -6431473.19246  23076539.005    23076553.897
  20332419.866    -2275316.28649  -1638007.66748  20332419.239    20332430.071
 02  4  8 18 57 30.0000000  0  7G24G 4G30G 9G10G 6G 5
  21341357.273     4023773.78449   3133299.25447  21341356.926    21341369.216
  24229789.461     9911122.35549   7709167.76945  24229789.415    24229807.786
  20604743.395    -8070751.64749  -6271251.13047  20604743.583    20604754.135
  24532989.451     9223996.65849   7175647.81845  24532989.055    24533009.824
  21737322.638   -10797796.50149  -8400949.22147  21737321.606    21737336.244
  23063475.193    -8333638.96449  -6484967.41846  23063474.909    23063489.904
  20335103.879    -2261211.93749  -1627017.31548  20335103.241    20335114.118
 02  4  8 18 58  0.0000000  0  7G24G 4G30G 9G10G 6G 5
  21353073.813     4085344.40349   3181276.26647  21353073.485    21353085.865
  24248839.855    10011231.12849   7787174.31245  24248839.856    24248858.102
  20596428.529    -8114446.45049  -6305299.00347  20596428.719    20596439.256
  24550647.109     9316786.91049   7247951.48645  24550646.750    24550667.627
  21723036.193   -10872871.81449  -8459449.34447  21723035.146    21723049.740
  23050419.579    -8402245.54049  -6538426.98346  23050419.337    23050434.430
  20337891.083    -2246565.26949  -1615604.37348  20337890.461    20337901.372
 02  4  8 18 58 30.0000000  0  7G24G 4G30G 9G10G 6G 5
  21364840.477     4147178.41449   3229458.51147  21364840.179    21364852.590
  24267891.582    10111346.30149   7865185.84445  24267891.557    24267909.737
  20588208.268    -8157644.28349  -6338959.63647  20588208.450    20588219.025
  24568295.698     9409529.49949   7320218.03645  24568295.333    24568316.380
  21708830.646   -10947521.95649  -8517618.17347  21708829.610    21708844.141
  23037372.580    -8470807.16649  -6591851.52546  23037372.299    23037387.434
  20340781.529    -2231376.04349  -1603768.66448  20340780.900    20340791.820
 02  4  8 18 59  0.0000000  0  7G24G 4G30G 9G10G 6G 5
  21376656.850     4209273.38649   3277844.10847  21376656.528    21376668.944
  24286943.825    10211465.84349   7943200.83145  24286943.759    24286962.304
  20580082.809    -8200343.74749  -6372231.93147  20580082.975    20580093.621
  24585934.787     9502221.36249   7392445.02845  24585934.311    24585955.552
  21694706.434   -11021744.40949  -8575453.73147  21694705.428    21694719.952
  23024334.198    -8539323.81949  -6645240.99946  23024333.895    23024348.921
  20343775.245    -2215644.25449  -1591510.18148  20343774.608    20343785.540
 02  4  8 18 59 30.0000000  0  7G24G 4G30G 9G10G 6G 5
  21388522.495     4271627.02749   3326431.25847  21388522.134    21388534.539
  24305996.223    10311587.56949   8021217.53245  24305996.299    24306015.125
  20572052.527    -8242543.19649  -6405114.61347  20572052.684    20572063.386
  24603563.617     9594859.53149   7464630.18945  24603563.277    24603584.404
  21680664.154   -11095536.44249  -8632953.89647  21680663.140    21680677.661
  23011304.386    -8607795.41249  -6698595.37046  23011304.116    23011318.947
  20346872.148    -2199370.28049  -1578829.22048  20346871.514    20346882.453
 02  4  8 19  0  0.0000000  0  7G24G 4G30G 9G10G 6G 5
  21400437.199     4334238.82149   3375219.56147  21400436.866    21400449.204
  24325049.500    10411711.65049   8099236.03445  24325049.528    24325067.997
  20564118.016    -8284239.26949  -6437605.06047  20564118.177    20564128.924
  24621182.020     9687442.88949   7536772.62745  24621181.651    24621202.571
  21666704.569   -11168893.79049  -8690115.35347  21666703.574    21666718.052
  22998283.563    -8676220.08349  -6751913.19246  22998283.340    22998298.053
  20350072.451    -2182552.88949  -1565724.82148  20350071.798    20350082.723
 02  4  8 19  0 30.0000000  0  8G24G23G 4G30G 9G10G 6G 5
  21412399.403     4397100.16449   3424202.33647  21412399.064    21412411.399
  24484293.450    -1820006.90449  -1074543.37245  24484291.529    24484315.687
  24344101.918    10511829.85149   8177249.95345  24344101.688    24344119.835
  20556278.489    -8325436.08349  -6469706.46947  20556278.664    20556289.432
  24638788.230     9779962.73549   7608865.57545  24638787.901    24638808.755
  21652827.078   -11241819.71649  -8746940.63547  21652826.101    21652840.585
  22985270.667    -8744603.47049  -6805198.82846  22985270.368    22985285.090
  20353375.041    -2165198.04649  -1552201.62948  20353374.392    20353385.295
 02  4  8 19  1  0.0000000  0  8G24G23G 4G30G 9G10G 6G 5
  21424409.460     4460212.99249   3473381.05847  21424409.130    21424421.460
  24464432.641    -1924370.99349  -1155865.58445  24464430.808    24464456.690
  24363153.194    10611944.64749   8255261.29545  24363152.910    24363171.556
  20548535.053    -8366128.02049  -6501414.46647  20548535.245    20548545.969
  24656382.595     9872420.23149   7680909.97245  24656382.322    24656403.059
  21639032.971   -11314307.44149  -8803424.46447  21639031.980    21639046.519
  22972266.374    -8812941.51349  -6858449.14246  22972266.061    22972280.734
  20356780.611    -2147301.96849  -1538256.69748  20356779.964    20356790.831
 02  4  8 19  1 30.0000000  0  8G24G23G 4G30G 9G10G 6G 5
  21436467.687     4523578.87849   3522756.97347  21436467.352    21436479.688
  24444570.310    -2028747.51749  -1237197.45545  24444568.767    24444594.868
  24382204.177    10712058.28849   8333271.75345  24382204.060    24382223.176
  20540888.821    -8406309.35349  -6532724.59047  20540889.008    20540899.676
  24673965.166     9964816.53649   7752906.69045  24673964.799    24673986.134
  21625323.535   -11386350.10549  -8859561.49247  21625322.551    21625337.156
  22959271.531    -8881229.90449  -6911660.76046  22959271.217    22959285.773
  20360289.899    -2128860.73849  -1523886.97448  20360289.255    20360300.105
 02  4  8 19  2  0.0000000  0  8G24G23G 4G30G 9G10G 6G 5
  21448573.452     4587194.44049   3572327.43347  21448573.092    21448585.439
  24424706.211    -2133134.85349  -1318537.71845  24424704.887    24424730.741
  24401254.863    10812167.90149   8411279.04445  24401254.792    24401274.042
  20533339.893    -8445979.39649  -6563636.30147  20533340.074    20533350.702
  24691535.300    10057147.94649   7824852.81545  24691535.046    24691556.775
  21611699.085   -11457946.23749  -8915350.57947  21611698.143    21611712.746
  22946285.972    -8949469.36249  -6964834.25946  22946285.598    22946300.101
  20363902.701    -2109875.60949  -1509093.42947  20363902.054    20363912.876
 02  4  8 19  2 30.0000000  0  8G24G23G 4G30G 9G10G 6G 5
  21460726.141     4651056.60949   3622090.05347  21460725.788    21460738.128
  24404840.223    -2237531.91149  -1399885.55545  24404838.892    24404864.498
  24420304.087    10912270.47349   8489280.81945  24420304.035    24420323.025
  20525888.344    -8485137.57049  -6594149.15447  20525888.523    20525899.102
  24709092.482    10149410.56349   7896745.33645  24709092.361    24709114.121
  21598159.990   -11529093.93849  -8970790.23347  21598159.056    21598173.667
  22933309.397    -9017660.84649  -7017970.37046  22933309.080    22933323.607
  20367618.719    -2090348.13449  -1493877.27647  20367618.061    20367628.859
 02  4  8 19  3  0.0000000  0  8G24G23G 4G30G 9G10G 6G 5
  21472925.306     4715163.17749   3672043.10247  21472924.963    21472937.320
  24384972.373    -2341935.47849  -1481238.49045  24384971.049    24384996.372
  24439351.145    11012364.62149   8567276.05845  24439351.141    24439370.308
  20518534.572    -8523781.97349  -6624261.67147  20518534.744    20518545.295
  24726636.420    10241602.01649   7968582.38945  24726636.204    24726657.854
  21584706.768   -11599790.32049  -9025878.21547  21584705.849    21584720.470
  22920342.100    -9085803.56849  -7071068.50546  22920341.827    22920356.423
  20371437.944    -2070278.21449  -1478238.43447  20371437.287    20371448.076
 02  4  8 19  3 30.0000000  0  8G24G23G 4G30G 9G10G 6G 5
  21485170.787     4779513.01249   3722185.71647  21485170.436    21485182.799
  24365103.713    -2446341.92349  -1562593.65544  24365102.462    24365127.676
  24458396.697    11112449.55749   8645264.09845  24458396.554    24458415.849
  20511279.057    -8561909.77449  -6653971.63847  20511279.227    20511289.783
  24744166.501    10333720.42649   8040362.55145  24744166.309    24744187.912
  21571340.123   -11670031.93349  -9080611.84447  21571339.233    21571353.845
  22907384.331    -9153896.42849  -7124127.79246  22907384.058    22907398.828
  20375360.538    -2049664.96549  -1462176.21847  20375359.882    20375370.701
 02  4  8 19  4  0.0000000  0  8G24G23G 4G30G 9G10G 6G 5
  21497461.821     4844102.51649   3772515.09247  21497461.467    21497473.865
  24345234.908    -2550750.16549  -1643950.32744  24345233.896    24345258.524
  24477440.401    11212522.25449   8723242.58045  24477440.289    24477459.247
  20504121.852    -8599521.03949  -6683279.11747  20504122.022    20504132.574
  24761681.751    10425761.64149   8112082.54345  24761681.473    24761703.276
  21558060.299   -11739817.36949  -9134990.01647  21558059.406    21558074.029
  22894435.864    -9221940.45849  -7177149.02946  22894435.632    22894450.553
  20379386.154    -2028510.28249  -1445692.10447  20379385.485    20379396.375
 02  4  8 19  4 30.0000000  0  8G24G23G 4G30G 9G10G 6G 5
  21509797.994     4908929.40249   3823029.44547  21509797.657    21509810.104
  24325366.789    -2655157.47549  -1725306.22545  24325365.989    24325390.340
  24496481.186    11312581.15849   8801210.33445  24496481.049    24496500.262
  20497063.307    -8636613.84849  -6712182.60247  20497063.478    20497074.035
  24779181.842    10517723.11349   8183740.36845  24779181.678    24779203.694
  21544867.819   -11809143.95149  -9189010.64047  21544866.939    21544881.558
  22881496.878    -9289935.16849  -7230131.83646  22881496.669    22881511.623
  20383514.760    -2006814.27049  -1428786.17547  20383514.127    20383525.048
 02  4  8 19  5  0.0000000  0  8G24G23G 4G30G 9G10G 6G 5
  21522178.868     4973991.20949   3873726.85947  21522178.556    21522191.089
  24305499.114    -2759561.86649  -1806659.85845  24305498.364    24305522.313
  24515518.389    11412623.95849   8879165.57045  24515518.261    24515538.108
  20490103.691    -8673186.88649  -6740681.06847  20490103.856    20490114.418
  24796666.224    10609601.83049   8255333.76445  24796666.005    24796687.833
  21531763.076   -11878009.34849  -9242671.89947  21531762.221    21531776.780
  22868567.389    -9357880.57149  -7283076.20846  22868567.150    22868581.932
  20387746.333    -1984577.61049  -1411458.96548  20387745.687    20387756.630
 02  4  8 19  5 30.0000000  0  8G24G23G 4G30G 9G10G 6G 5
  21534604.373     5039287.28949   3924606.81847  21534604.024    21534616.654
  24285632.536    -2863959.03949  -1888007.90245  24285631.758    24285655.768
  24534553.076    11512650.65249   8957108.22145  24534553.001    24534572.785
  20483243.567    -8709237.04549  -6768772.10147  20483243.736    20483254.320
  24814134.382    10701396.44649   8326861.58245  24814133.942    24814155.855
  21518747.039   -11946409.09549  -9295970.32147  21518746.172    21518760.631
  22855647.670    -9425774.67949  -7335980.61246  22855647.384    22855661.964
  20392080.993    -1961799.19449  -1393709.60848  20392080.346    20392091.293
 02  4  8 19  6  0.0000000  0  8G24G23G 4G30G 9G10G 6G 5
  21547073.814     5104814.16749   3975666.61547  21547073.441    21547086.113
  24265767.524    -2968347.65049  -1969349.28545  24265766.900    24265791.066
  24553584.543    11612658.41349   9035036.05845  24553584.246    24553603.847
  20476482.935    -8744763.98349  -6796455.42947  20476483.136    20476493.772
  24831585.825    10793103.33649   8398321.04045  24831585.420    24831607.297
  21505819.856   -12014342.01949  -9348904.97847  21505818.981    21505833.353
  22842737.439    -9493618.28949  -7388845.66446  22842737.082    22842751.642
  20396518.456    -1938480.40149  -1375539.18048  20396517.794    20396528.779
 02  4  8 19  6 30.0000000  0  8G24G23G 4G30G 9G10G 6G 5
  21559586.986     5170570.74649   4026905.39547  21559586.609    21559599.299
  24245904.888    -3072724.66249  -2050681.71045  24245904.420    24245928.547
  24572611.580    11712646.02248   9112948.22245  24572611.515    24572631.061
  20469822.352    -8779765.53149  -6823729.36547  20469822.547    20469833.196
  24849020.125    10884720.27649   8469710.44345  24849019.779    24849041.840
  21492982.113   -12081804.89449  -9401473.36347  21492981.219    21492995.572
  22829836.854    -9561410.71749  -7441670.84346  22829836.514    22829851.103
  20401058.762    -1914621.13049  -1356947.60348  20401058.121    20401069.145
 02  4  8 19  7  0.0000000  0  8G24G23G 4G30G 9G10G 6G 5
  21572143.487     5236555.13249   4078321.68347  21572143.116    21572155.781
  24226045.297    -3177086.62649  -2132002.35745  24226044.908    24226068.775
  24591633.773    11812612.70748   9190844.13244  24591630.079    24591653.628
  20463262.203    -8814239.44049  -6850592.15847  20463262.398    20463273.061
  24866437.037    10976245.30449   8541028.20545  24866436.863    24866459.206
  21480234.446   -12148794.29449  -9453672.81147  21480233.544    21480247.888
  22816946.184    -9629150.91749  -7494455.33046  22816945.877    22816960.503
  20405702.033    -1890221.04749  -1337934.61448  20405701.377    20405712.429
 02  4  8 19  7 30.0000000  0  8G24G23G 4G30G 9G10G 6G 5
  21584742.879     5302764.97249   4129913.66547  21584742.513    21584755.145
  24206189.053    -3281430.66249  -2213309.04445  24206188.545    24206212.122
  24610651.811    11912556.80948   9268722.44144  24610650.609    24610672.864
  20456802.763    -8848184.02649  -6877042.48747  20456802.960    20456813.624
  24883835.947    11067675.88749   8612272.38745  24883835.828    24883858.250
  21467577.326   -12215307.63249  -9505501.29847  21467576.426    21467590.787
  22804065.592    -9696838.34249  -7547198.70546  22804065.324    22804079.904
  20410448.145    -1865280.42049  -1318500.42548  20410447.491    20410458.558
 02  4  8 19  8  0.0000000  0  8G24G23G 4G30G 9G10G 6G 5
  21597384.598     5369197.22049   4181678.94747  21597384.242    21597396.847
  24186336.450    -3385754.98049  -2294600.34845  24186335.900    24186359.615
  24629666.519    12012476.08448   9346581.31244  24629665.885    24629687.911
  20450444.208    -8881598.58949  -6903079.81247  20450444.382    20450455.046
  24901216.244    11159008.63849   8683440.32445  24901216.236    24901238.547
  21455011.135   -12281343.21449  -9556957.50847  21455010.216    21455024.555
  22791194.933    -9764473.45949  -7599901.31246  22791194.665    22791209.223
  20415296.815    -1839800.64949  -1298646.12348  20415296.174    20415307.257
 02  4  8 19  8 30.0000000  0  8G24G23G 4G30G 9G10G 6G 5
  21610068.285     5435850.08649   4233616.13347  21610067.921    21610080.544
  24166487.870    -3490057.15549  -2375874.45245  24166487.410    24166510.832
  24648676.169    12112368.59948   9424419.34644  24648675.674    24648696.609
  20444186.802    -8914481.61649  -6928702.94747  20444186.984    20444197.618
  24918577.505    11250240.83749   8754529.88545  24918577.147    24918599.588
  21442536.334   -12346898.57949  -9608039.52847  21442535.422    21442549.696
  22778334.274    -9832055.81549  -7652562.80246  22778333.998    22778348.637
  20420248.022    -1813782.16749  -1278372.04948  20420247.377    20420258.467
 02  4  8 19  9  0.0000000  0  8G24G23G 4G30G 9G10G 6G 5
  21622793.578     5502721.76049   4285723.82147  21622793.242    21622805.877
  24146644.257    -3594334.19149  -2457128.93545  24146643.966    24146667.071
  24667680.184    12212233.11148   9502235.60944  24667679.870    24667700.166
  20438030.852    -8946831.37349  -6953910.55148  20438031.035    20438041.656
  24935919.326    11341370.26149   8825539.37245  24935918.941    24935941.587
  21430153.547   -12411970.63949  -9658744.95247  21430152.604    21430166.812
  22765483.779    -9899584.74149  -7705182.67146  22765483.524    22765498.244
  20425301.679    -1787225.28549  -1257678.44548  20425301.038    20425312.133
 02  4  8 19  9 30.0000000  0  8G24G23G 4G30G 9G10G 6G 5
  21635560.210     5569810.30949   4338000.50947  21635559.863    21635572.514
  24126806.494    -3698582.86449  -2538361.32845  24126806.019    24126829.198
  24686678.176    12312068.61149   9580029.29744  24686677.998    24686698.397
  20431976.791    -8978645.82149  -6978701.02448  20431976.977    20431987.579
  24953241.180    11432394.73649   8896467.07445  24953240.909    24953263.551
  21417863.259   -12476556.31049  -9709071.36847  21417862.323    21417876.473
  22752643.745    -9967059.43049  -7757760.28046  22752643.503    22752658.202
  20430457.819    -1760129.83849  -1236565.17848  20430457.169    20430468.277
 02  4  8 19 10  0.0000000  0  8G24G23G 4G30G 9G10G 6G 5
  21648367.701     5637113.51349   4390444.46547  21648367.327    21648380.026
  24106974.413    -3802800.74049  -2619569.78145  24106973.910    24106997.364
  24705670.470    12411873.34949   9657799.01845  24705670.311    24705690.816
  20426024.817    -9009923.76649  -7003073.44648  20426024.997    20426035.590
  24970542.280    11523311.29449   8967310.71645  24970542.053    24970565.202
  21405665.937   -12540653.46749  -9759017.12947  21405664.997    21405679.082
  22739814.178   -10034479.54949  -7810295.35246  22739813.905    22739828.544
  20435716.294    -1732496.53449  -1215032.80547  20435715.638    20435726.764
 02  4  8 19 10 30.0000000  0  8G24G23G 4G30G 9G10G 6G 5
  21661215.424     5704628.38349   4443053.35547  21661215.043    21661227.807
  24087148.180    -3906985.91149  -2700752.73545  24087147.567    24087171.664
  24724656.853    12511644.95949   9735542.91345  24724656.605    24724677.111
  20420175.063    -9040664.34849  -7027027.14448  20420175.237    20420185.824
  24987822.475    11614116.67449   9038067.69545  24987822.239    24987845.670
  21393561.935   -12604260.17449  -9808580.72047  21393561.006    21393575.047
  22726994.917   -10101845.34749  -7862788.09746  22726994.609    22727009.138
  20441076.889    -1704326.62849  -1193082.29947  20441076.247    20441087.399
 02  4  8 19 11  0.0000000  0  8G24G23G 4G30G 9G10G 6G 5
  21674103.296     5772354.54749   4495826.89147  21674102.931    21674115.809
  24067328.821    -4011134.18449  -2781906.94645  24067328.195    24067352.590
  24743636.841    12611383.54949   9813261.08645  24743636.486    24743656.953
  20414428.127    -9070864.78649  -7050559.94747  20414428.285    20414438.875
  25005081.594    11704809.55349   9108737.03245  25005081.361    25005104.616
  21381551.977   -12667372.61049  -9857759.16547  21381551.030    21381565.039
  22714186.277   -10169154.94849  -7915237.05946  22714185.967    22714200.353
  20446539.756    -1675619.33749  -1170713.05647  20446539.125    20446550.275
 02  4  8 19 11 30.0000000  0  8G24G23G 4G30G 9G10G 6G 5
  21687030.870     5840289.36349   4548763.01447  21687030.541    21687043.518
  24047517.323    -4115243.31849  -2863030.61245  24047516.640    24047540.636
  24762609.629    12711086.97749   9890951.89645  24762609.312    24762629.905
  20408784.156    -9100523.78149  -7073670.84847  20408784.323    20408794.924
  25022318.688    11795387.26749   9179316.60145  25022318.418    25022341.554
  21369636.489   -12729988.58849  -9906550.75547  21369635.529    21369649.500
  22701388.350   -10236408.25349  -7967642.14746  22701388.056    22701402.344
  20452104.739    -1646375.49549  -1147925.72247  20452104.093    20452115.262
 02  4  8 19 12  0.0000000  0  8G24G23G 4G30G 9G10G 6G 5
  21699997.740     5908430.36349   4601859.78947  21699997.404    21700010.462
  24027714.115    -4219310.69949  -2944121.70245  24027713.460    24027736.619
  24781575.593    12810753.86449   9968614.21545  24781575.402    24781596.353
  20403243.425    -9129640.42249  -7096359.13947  20403243.608    20403254.230
  25039532.755    11885847.16149   9249804.38045  25039532.353    25039555.765
  21357815.880   -12792105.92349  -9954953.79447  21357814.903    21357828.899
  22688601.207   -10303605.04949  -8020003.21246  22688600.919    22688615.123
  20457771.640    -1616596.01749  -1124721.01147  20457770.980    20457782.200
 02  4  8 19 12 30.0000000  0  7G24G23G30G 9G10G 6G 5
  21713003.890     5976777.49649   4655117.18947  21713003.530    21713016.634
  24007919.466    -4323331.73149  -3025176.74245  24007918.915    24007941.596
  20397806.628    -9158210.94449  -7118621.88147  20397806.812    20397817.435
  25056723.664    11976188.54649   9320199.84344  25056723.381    25056747.112
  21346091.041   -12853719.85149 -10002964.57047  21346090.079    21346104.068
  22675825.283   -10370742.74449  -8072318.21946  22675824.973    22675839.207
  20463540.737    -1586279.26449  -1101097.64347  20463540.096    20463551.371
 02  4  8 19 13  0.0000000  0  6G24G23G30G10G 6G 5
  21726048.876     6045328.69049   4708533.59847  21726048.499    21726061.629
  23988133.898    -4427303.54749  -3106193.39945  23988133.272    23988156.186
  20392473.999    -9186234.06849  -7140458.07848  20392474.194    20392484.833
  21334462.486   -12914828.01149 -10050581.23447  21334461.530    21334475.451
  22663060.638   -10437820.81649  -8124586.76746  22663060.340    22663074.552
  20469411.971    -1555425.91349  -1077056.14547  20469411.341    20469422.675
 02  4  8 19 13 30.0000000  0  6G24G23G30G10G 6G 5
  21739131.896     6114080.02049   4762105.95747  21739131.532    21739144.666
  23968357.732    -4531225.37949  -3187171.15745  23968357.302    23968380.576
  20387245.447    -9213710.38249  -7161868.18948  20387245.633    20387256.278
  21322930.308   -12975429.95749 -10097803.44247  21322929.353    21322943.174
  22650307.166   -10504840.65249  -8176809.92346  22650306.869    22650320.996
  20475384.902    -1524038.50949  -1052598.50147  20475384.256    20475395.593
 02  4  8 19 14  0.0000000  0  6G24G23G30G10G 6G 5
  21752252.426     6183028.48649   4815831.92347  21752252.079    21752265.219
  23948591.648    -4635095.62649  -3268108.70145  23948591.165    23948614.482
  20382120.991    -9240639.73949  -7182852.10348  20382121.181    20382131.831
  21311494.699   -13035524.26249 -10144630.08547  21311493.730    21311507.489
  22637564.624   -10571803.08349  -8228988.35846  22637564.301    22637578.355
  20481459.090    -1492118.80649  -1027726.07747  20481458.411    20481469.782
 02  4  8 19 14 30.0000000  0  6G24G23G30G10G 6G 5
  21765410.403     6252173.58349   4869711.11247  21765410.080    21765423.191
  23928836.440    -4738909.71849  -3349002.43645  23928835.852    23928859.263
  20377101.264    -9267018.77249  -7203407.19848  20377101.446    20377112.065
  21300156.426   -13095106.93049 -10191058.04947  21300155.469    21300169.197
  22624833.338   -10638705.70549  -8281120.19246  22624833.004    22624847.136
  20487634.796    -1459665.71149  -1002438.02648  20487634.126    20487645.503
 02  4  8 19 15  0.0000000  0  6G24G23G30G10G 6G 5
  21778605.324     6321512.51349   4923741.34347  21778604.995    21778618.061
  23909092.138    -4842665.73249  -3429850.95045  23909091.511    23909114.796
  20372186.313    -9292847.19349  -7223533.24548  20372186.479    20372197.100
  21288915.794   -13154176.25749 -10237086.00347  21288914.871    21288928.580
  22612113.367   -10705548.74049  -8333205.61846  22612113.080    22612127.384
  20493911.674    -1426680.88349   -976735.63548  20493911.000    20493922.379
 02  4  8 19 15 30.0000000  0  6G24G23G30G10G 6G 5
  21791836.663     6391042.93649   4977920.78547  21791836.296    21791849.371
  23889359.268    -4946360.94549  -3510652.09845  23889358.692    23889381.804
  20367376.408    -9318123.50049  -7243229.07648  20367376.579    20367387.193
  21277773.352   -13212729.68649 -10282711.96147  21277772.425    21277786.126
  22599404.904   -10772331.60349  -8385244.14346  22599404.648    22599419.058
  20500289.583    -1393164.97849   -950619.41948  20500288.925    20500300.316
 02  4  8 19 16  0.0000000  0  6G24G23G30G10G 6G 5
  21805104.068     6460763.22449   5032248.17947  21805103.711    21805116.798
  23869638.302    -5049992.58649  -3591403.66945  23869637.824    23869661.068
  20362671.784    -9342846.36349  -7262493.64548  20362671.966    20362682.597
  21266729.477   -13270765.11349 -10327934.28147  21266728.550    21266742.259
  22586708.068   -10839053.79349  -8437235.38546  22586707.788    22586722.244
  20506768.418    -1359118.57949   -924089.83048  20506767.760    20506779.187
 02  4  8 19 16 30.0000000  0  6G24G23G30G10G 6G 5
  21818407.301     6530671.83549   5086722.31947  21818406.961    21818420.099
  23849930.156    -5153557.66449  -3672103.40245  23849929.678    23849952.515
  20358072.754    -9367014.19849  -7281325.72748  20358072.959    20358083.624
  21255784.696   -13328279.71249 -10372750.76147  21255783.757    21255797.522
  22574023.013   -10905714.13349  -8489178.43246  22574022.729    22574037.096
  20513348.157    -1324542.03849   -897147.14448  20513347.515    20513358.956
 02  4  8 19 17  0.0000000  0  6G24G23G30G10G 6G 5
  21831745.977     6600766.80649   5141341.67247  21831745.647    21831758.826
  23830235.210    -5257053.17249  -3752748.91645  23830234.662    23830257.133
  20353579.720    -9390625.24549  -7299723.94948  20353579.940    20353590.622
  21244939.557   -13385270.67849 -10417159.22447  21244938.635    21244952.463
  22561349.936   -10972311.62949  -8541072.50146  22561349.643    22561363.824
  20520028.731    -1289435.71849   -869791.64848  20520028.090    20520039.535
 02  4  8 19 17 30.0000000  0  6G24G23G30G10G 6G 5
  21845119.700     6671045.85049   5196104.46147  21845119.368    21845132.600
  23810554.456    -5360476.47949  -3833338.17045  23810553.986    23810576.306
  20349192.761    -9413678.70649  -7317687.68747  20349192.987    20349203.686
  21234194.429   -13441736.24149 -10461158.26847  21234193.524    21234207.399
  22548688.823   -11038846.15349  -8592917.49546  22548688.518    22548702.549
  20526809.902    -1253800.70449   -842024.18548  20526809.275    20526820.710
 02  4  8 19 18  0.0000000  0  6G24G23G30G10G 6G 5
  21858527.992     6741506.59249   5251008.83047  21858527.656    21858540.943
  23790887.903    -5463825.13549  -3913869.26745  23790887.352    23790909.886
  20344912.120    -9436173.71449  -7335216.26947  20344912.340    20344923.072
  21223549.697   -13497674.48949 -10504746.43147  21223548.803    21223562.677
  22536039.691   -11105317.53849  -8644713.28546  22536039.395    22536053.325
  20533691.445    -1217638.31249   -813845.77948  20533690.821    20533702.251
 02  4  8 19 18 30.0000000  0  6G24G23G30G10G 6G 5
  21871970.595     6812147.73749   5306053.77347  21871970.260    21871983.552
  23771235.783    -5567095.97549  -3994339.73745  23771235.128    23771258.074
  20340738.038    -9458108.54649  -7352308.34847  20340738.270    20340749.001
  21213005.831   -13553082.65049 -10547921.54047  21213004.932    21213018.817
  22523402.753   -11171724.61849  -8696458.97546  22523402.443    22523416.436
  20540673.313    -1180948.88249   -785256.69248  20540672.678    20540684.095
 02  4  8 19 19  0.0000000  0  6G24G23G30G10G 6G 5
  21885447.337     6882967.91349   5361238.21247  21885446.990    21885460.279
  23751598.898    -5670285.48849  -4074746.85845  23751598.351    23751621.483
  20336670.914    -9479481.28149  -7368962.42947  20336671.126    20336681.909
  21202563.449   -13607957.42749 -10590681.02947  21202562.552    21202576.410
  22510778.250   -11238066.10549  -8748153.55646  22510777.973    22510792.017
  20547755.425    -1143732.53849   -756257.02448  20547754.775    20547766.179
 02  4  8 19 19 30.0000000  0  6G24G23G30G10G 6G 5
  21898957.759     6953965.02349   5416560.52047  21898957.397    21898970.686
  23731978.149    -5773391.12249  -4155088.59345  23731977.753    23732000.375
  20332710.957    -9500290.94049  -7385177.75047  20332711.167    20332721.985
  21192222.922   -13662297.18349 -10633023.61647  21192222.010    21192235.815
  22498166.355   -11304341.33949  -8799796.51746  22498166.094    22498180.181
  20554937.591    -1105990.26649   -726847.53548  20554936.943    20554948.371
 02  4  8 19 20  0.0000000  0  6G24G23G30G10G 6G 5
  21912501.190     7025135.57249   5472017.97747  21912500.821    21912514.110
  23712374.042    -5876411.23149  -4235363.68345  23712373.546    23712395.331
  20328858.129    -9520537.66649  -7400954.42647  20328858.324    20328869.155
  21181984.411   -13716100.78349 -10674948.42147  21181983.478    21181997.238
  22485566.939   -11370551.09949  -8851388.45746  22485566.646    22485580.761
  20562219.462    -1067724.00149   -697029.74048  20562218.812    20562230.281
 02  4  8 19 20 30.0000000  0  6G24G23G30G10G 6G 5
  21926077.254     7096477.92149   5527609.30147  21926076.893    21926090.215
  23692786.759    -5979342.90449  -4315569.82745  23692786.255    23692807.644
  20325112.754    -9540219.87149  -7416291.21448  20325112.947    20325123.737
  21171848.426   -13769365.64649 -10716453.44047  21171847.485    21171861.212
  22472980.169   -11436694.47649  -8902928.67646  22472979.880    22472993.988
  20569600.922    -1028934.46249   -666804.19648  20569600.262    20569611.757
 02  4  8 19 21  0.0000000  0  6G24G23G30G10G 6G 5
  21939685.726     7167990.58249   5583333.33647  21939685.372    21939698.722
  23673216.849    -6082183.14549  -4395704.77045  23673216.243    23673237.734
  20321475.019    -9559336.46049  -7431187.26348  20321475.205    20321485.985
  21161815.318   -13822089.66649 -10757537.02947  21161814.371    21161828.115
  22460406.193   -11502770.66949  -8954416.54046  22460405.905    22460420.045
  20577081.783     -989622.36149   -636171.46047  20577081.133    20577092.663
 02  4  8 19 21 30.0000000  0  6G24G23G30G10G 6G 5
  21953326.374     7239672.21449   5639189.03447  21953326.018    21953339.374
  23653664.803    -6184928.62849  -4475765.91745  23653664.189    23653686.057
  20317945.219    -9577885.74649  -7445641.25848  20317945.419    20317956.173
  21151885.692   -13874269.76149 -10798196.78947  21151884.745    21151898.529
  22447845.244   -11568778.47349  -9005851.11046  22447844.950    22447859.080
  20584662.055     -949788.00049   -605131.77647  20584661.405    20584672.956
 02  4  8 19 22  0.0000000  0  6G24G23G30G10G 6G 5
  21966998.602     7311519.94949   5695174.17647  21966998.253    21967011.635
  23634131.237    -6287577.22349  -4555751.58145  23634130.612    23634152.701
  20314523.458    -9595867.24949  -7459652.81948  20314523.658    20314534.405
  21142059.816   -13925904.62749 -10838431.69247  21142058.857    21142072.667
  22435297.345   -11634717.95649  -9057232.44946  22435297.067    22435311.141
  20592341.448     -909433.08349   -573686.46647  20592340.769    20592352.310
 02  4  8 19 22 30.0000000  0  6G24G23G30G10G 6G 5
  21980702.285     7383532.93549   5751288.08447  21980701.936    21980715.380
  23614616.874    -6390124.73549  -4635658.45945  23614616.182    23614638.265
  20311210.245    -9613278.56649  -7473220.08248  20311210.431    20311221.151
  21132338.361   -13976990.90449 -10878239.12847  21132337.407    21132351.190
  22422762.894   -11700586.94349  -9108558.84846  22422762.625    22422776.588
  20600119.918     -868557.09349   -541835.13347  20600119.244    20600130.782
 02  4  8 19 23  0.0000000  0  6G24G23G30G10G 6G 5
  21994436.968     7455708.69449   5807528.82747  21994436.618    21994450.102
  23595121.828    -6492569.43349  -4715485.22145  23595121.098    23595143.298
  20308005.486    -9630119.81949  -7486343.13948  20308005.660    20308016.361
  21122721.577   -14027527.38049 -10917618.14147  21122720.635    21122734.343
  22410241.822   -11766385.86549  -9159830.66646  22410241.533    22410255.424
  20607997.158     -827162.11649   -509579.39747  20607996.491    20608008.016
 02  4  8 19 23 30.0000000  0  6G24G23G30G10G 6G 5
  22008202.274     7528045.13549   5863894.77447  22008201.909    22008215.416
  23575647.144    -6594908.47649  -4795229.65245  23575646.429    23575668.441
  20304909.450    -9646389.71649  -7499020.98648  20304909.634    20304920.336
  21113209.821   -14077511.91849 -10956567.07247  21113208.870    21113222.531
  22397734.209   -11832113.85349  -9211047.20446  22397733.932    22397747.751
  20615972.925     -785249.20049   -476920.07747  20615972.279    20615983.789
 02  4  8 19 24  0.0000000  0  6G24G23G30G10G 6G 5
  22021997.600     7600539.75449   5920383.97047  22021997.248    22022010.768
  23556193.284    -6697139.57849  -4874889.97045  23556192.617    23556214.162
  20301922.178    -9662087.97949  -7511253.40548  20301922.352    20301933.067
  21103803.310   -14126943.34249 -10995085.00747  21103802.342    21103815.958
  22385240.110   -11897770.68149  -9262208.29546  22385239.831    22385253.645
  20624046.976     -742819.97449   -443858.44047  20624046.340    20624057.849
 02  4  8 19 24 30.0000000  0  6G24G23G30G10G 6G 5
  22035822.800     7673191.41449   5976995.54147  22035822.478    22035836.059
  23536760.332    -6799259.54049  -4954463.67345  23536759.701    23536781.084
  20299043.950    -9677213.07449  -7523039.20148  20299044.144    20299054.869
  21094502.632   -14175818.66149 -11033169.61347  21094501.680    21094515.211
  22372759.734   -11963355.18749  -9313313.02546  22372759.471    22372773.267
  20632219.223     -699874.89549   -410394.83247  20632218.592    20632230.111
 02  4  8 19 25  0.0000000  0  6G24G23G30G10G 6G 5
  22049677.665     7745998.90749   6033728.54747  22049677.366    22049690.967
  23517348.932    -6901264.75449  -5033948.01445  23517348.310    23517369.898
  20296275.083    -9691763.34649  -7534377.08248  20296275.281    20296286.051
  21085308.282   -14224135.18749 -11070818.79747  21085307.306    21085320.753
  22360293.386   -12028865.90749  -9364360.26646  22360293.131    22360306.882
  20640489.641     -656414.11349   -376529.37748  20640488.997    20640500.578
 02  4  8 19 25 30.0000000  0  6G24G23G30G10G 6G 5
  22063561.838     7818960.26249   6090581.43347  22063561.544    22063575.148
  23497959.848    -7003152.60749  -5113340.91945  23497959.282    23497981.134
  20293615.795    -9705738.05949  -7545266.48748  20293616.002    20293626.773
  21076220.588   -14271891.32949 -11108031.32447  21076219.627    21076232.971
  22347841.133   -12094302.27749  -9415349.55446  22347840.892    22347854.607
  20648857.904     -612439.03649   -342263.17948  20648857.273    20648868.930
 02  4  8 19 26  0.0000000  0  6G24G23G30G10G 6G 5
  22077474.861     7892072.91049   6147552.21647  22077474.542    22077488.157
  23478594.013    -7104920.42549  -5192640.28245  23478593.378    23478615.404
  20291066.192    -9719136.32649  -7555706.70848  20291066.377    20291077.178
  21067239.891   -14319085.20949 -11144805.72647  21067238.904    21067252.187
  22335403.158   -12159663.73749  -9466280.48546  22335402.903    22335416.570
  20657323.837     -567950.70349   -307597.02848  20657323.193    20657334.942
 02  4  8 19 26 30.0000000  0  6G24G23G30G10G 6G 5
  22091416.059     7965333.85549   6204638.56547  22091415.711    22091429.360
  23459251.397    -7206566.96649  -5271845.13345  23459250.719    23459272.483
  20288626.164    -9731958.90549  -7565698.34448  20288626.346    20288637.136
  21058366.228   -14365716.28049 -11181141.57147  21058365.267    21058378.507
  22322979.263   -12224951.16749  -9517153.72746  22322978.994    22322992.695
  20665886.842     -522952.08449   -272533.25148  20665886.215    20665898.038
 02  4  8 19 27  0.0000000  0  6G24G23G30G10G 6G 5
  22105385.386     8038742.82249   6261840.24747  22105385.040    22105398.737
  23439932.567    -7308087.95549  -5350952.13945  23439931.853    23439953.282
  20286296.152    -9744203.42449  -7575239.54648  20286296.339    20286307.121
  21049600.313   -14411781.20149 -11217036.26147  21049599.366    21049612.552
  22310569.904   -12290162.30749  -9567967.52446  22310569.634    22310583.417
  20674547.015     -477442.84649   -237071.59048  20674546.379    20674558.258
 02  4  8 19 27 30.0000000  0  6G24G23G30G10G 6G 5
  22119382.351     8112297.15149   6319155.19747  22119382.020    22119395.778
  23420637.795    -7409481.34049  -5429959.70645  23420637.091    23420658.353
  20284076.149    -9755869.78049  -7584330.23248  20284076.326    20284087.101
  21040942.310   -14457279.13949 -11252489.14547  21040941.369    21040954.500
  22298175.085   -12355297.17549  -9618721.89646  22298174.805    22298188.677
  20683304.019     -431424.59449   -201213.29947  20683303.397    20683315.319
 02  4  8 19 28  0.0000000  0  6G24G23G30G10G 6G 5
  22133406.938     8185996.32149   6376583.00247  22133406.611    22133420.418
  23401367.920    -7510742.84149  -5508864.48745  23401367.193    23401388.463
  20281966.594    -9766955.73949  -7592968.66048  20281966.776    20281977.548
  21032392.912   -14502206.39549 -11287497.33747  21032391.968    21032405.043
  22285795.189   -12420353.50449  -9669415.06046  22285794.906    22285808.870
  20692157.967     -384897.18449   -164958.26847  20692157.337    20692169.278
 02  4  8 19 28 30.0000000  0  6G24G23G30G10G 6G 5
  22147458.594     8259837.89949   6434121.77247  22147458.263    22147472.088
  23382123.627    -7611870.09649  -5587664.68345  23382122.973    23382144.187
  20279967.521    -9777461.06049  -7601154.64748  20279967.690    20279978.479
  21023952.358   -14546561.62149 -11322059.79447  21023951.411    21023964.455
  22273430.289   -12485331.08649  -9720046.87346  22273430.015    22273444.057
  20701108.432     -337862.51149   -128307.97047  20701107.811    20701119.781
 02  4  8 19 29  0.0000000  0  6G24G23G30G10G 6G 5
  22161536.901     8333819.51549   6491769.66247  22161536.577    22161550.426
  23362905.539    -7712860.91549  -5666358.58045  23362904.928    23362926.020
  20278079.000    -9787385.38549  -7608887.91448  20278079.168    20278089.972
  21015620.903   -14590343.50749 -11356175.49247  21015619.969    21015633.019
  22261080.497   -12550229.51049  -9770617.00947  22261080.235    22261094.297
  20710155.150     -290322.17549    -91263.64347  20710154.528    20710166.518
 02  4  8 19 29 30.0000000  0  6G24G23G30G10G 6G 5
  22175641.413     8407938.81449   6549524.83447  22175641.133    22175654.953
  23343713.922    -7813713.42549  -5744944.69046  23343713.323    23343734.271
  20276301.002    -9796728.98249  -7616168.66748  20276301.159    20276311.967
  21007398.709   -14633551.13849 -11389843.72947  21007397.781    21007410.831
  22248745.842   -12615048.90449  -9821125.55047  22248745.554    22248759.551
  20719297.686     -242278.45249    -53827.06248  20719297.029    20719309.056
 02  4  8 19 30  0.0000000  0  6G24G23G30G10G 6G 5
  22189771.974     8482194.66049   6607386.41547  22189771.680    22189785.504
  23324549.368    -7914423.99349  -5823420.15646  23324548.771    23324569.720
  20274633.789    -9805490.27749  -7622995.67148  20274633.913    20274644.748
  20999286.303   -14676181.97949 -11423062.51047  20999285.357    20999298.426
  22236426.513   -12679787.64349  -9871571.23847  22236426.213    22236440.168
  20728535.940     -193731.60349    -15998.43248  20728535.274    20728547.346
 02  4  8 19 30 30.0000000  0  6G24G23G30G10G 6G 5
  22203927.983     8556584.36149   6665352.28147  22203927.670    22203941.514
  23305411.988    -8014990.61049  -5901783.45346  23305411.380    23305432.447
  20273077.342    -9813669.49349  -7629369.11048  20273077.471    20273088.329
  20991283.751   -14718235.37849 -11455831.33547  20991282.817    20991295.943
  22224122.450   -12744445.70549  -9921954.06847  22224122.151    22224136.065
  20737869.576     -144683.62449     22220.68448  20737868.902    20737880.986
 02  4  8 19 31  0.0000000  0  6G24G23G30G10G 6G 5
  22218109.468     8631107.86149   6723422.41347  22218109.133    22218122.996
  23286302.772    -8115408.27449  -5980030.66145  23286302.170    23286323.379
  20271632.242    -9821263.69849  -7635286.69448  20271632.351    20271643.246
  20983391.878   -14759707.13449 -11488146.93147  20983390.951    20983404.146
  22211834.174   -12809020.37149  -9972271.90447  22211833.918    22211847.854
  20747298.650      -95133.83249     60830.82648  20747297.974    20747310.073
 02  4  8 19 31 30.0000000  0  6G24G23G30G10G 6G 5
  22232315.851     8705762.30349   6781594.57947  22232315.498    22232329.364
  23267222.322    -8215675.55849  -6058160.69145  23267221.748    23267242.608
  20270298.240    -9828273.51149  -7640748.91448  20270298.384    20270309.344
  20975610.762   -14800596.77149 -11520008.92247  20975609.848    20975623.114
  22199561.762   -12873511.85949 -10022524.94347  22199561.484    22199575.458
  20756822.731      -45084.77149     99830.00447  20756822.061    20756834.164
 02  4  8 19 32  0.0000000  0  6G24G23G30G10G 6G 5
  22246546.793     8780545.96349   6839867.43947  22246546.436    22246560.301
  23248171.022    -8315789.89949  -6136171.51645  23248170.488    23248190.745
  20269075.577    -9834698.45649  -7645755.38348  20269075.741    20269086.760
  20967940.707   -14840902.91149 -11551416.24447  20967939.778    20967953.104
  22187305.186   -12937919.62049 -10072712.73247  22187304.909    22187318.936
  20766441.483        5461.93349    139216.96347  20766440.822    20766452.967
 02  4  8 19 32 30.0000000  0  6G24G23G30G10G 6G 5
  22260802.046     8855457.30249   6898239.77947  22260801.678    22260815.582
  23229149.378    -8415747.94549  -6214060.56645  23229148.806    23229168.964
  20267964.487    -9840537.42249  -7650305.24348  20267964.670    20267975.685
  20960382.109   -14880623.39849 -11582367.20947  20960381.170    20960394.511
  22175064.939   -13002242.24049 -10122834.18046  22175064.642    22175078.652
  20776154.812       56505.58449    178991.15147  20776154.148    20776166.331
 02  4  8 19 33  0.0000000  0  6G24G23G30G10G 6G 5
  22275081.185     8930494.51249   6956710.20047  22275080.832    22275094.811
  23210158.087    -8515547.08549  -6291825.79446  23210157.522    23210177.700
  20266965.001    -9845790.01949  -7654398.19448  20266965.162    20266976.178
  20952935.239   -14919756.79349 -11612860.70447  20952934.296    20952947.633
  22162840.988   -13066479.20949 -10172888.87746  22162840.655    22162854.592
  20785962.426      108044.68849    219151.40348  20785961.778    20785974.006
 02  4  8 19 33 30.0000000  0  6G24G23G30G10G 6G 5
  22289383.928     9005655.64549   7015277.18847  22289383.591    22289397.680
  23191197.586    -8615184.79449  -6369465.22446  23191197.009    23191217.168
  20266077.125    -9850455.88449  -7658033.94548  20266077.287    20266088.306
  20945600.304   -14958301.78349 -11642895.69447  20945599.363    20945612.691
  22150633.478   -13130629.77349 -10222876.24346  22150633.166    22150646.988
  20795863.935      160077.40749    259696.29048  20795863.323    20795875.603
 02  4  8 19 34  0.0000000  0  6G24G23G30G10G 6G 5
  22303709.994     9080939.39449   7073939.71947  22303709.673    22303723.901
  23172268.102    -8714657.84549  -6446976.36646  23172267.534    23172287.923
  20265301.106    -9854534.12149  -7661211.80748  20265301.254    20265312.293
  20938377.787   -14996256.21749 -11672470.51947  20938376.833    20938390.169
  22138442.603   -13194692.68149 -10272795.30246  22138442.345    22138456.092
  20805859.250      212602.90949    300625.15848  20805858.644    20805870.960
 02  4  8 19 34 30.0000000  0  6G24G23G30G10G 6G 5
  22318059.336     9156345.31849   7132697.45247  22318059.029    22318073.363
  23153370.434    -8813962.37049  -6524356.18945  23153369.947    23153390.513
  20264637.144    -9858023.34649  -7663930.70348  20264637.293    20264648.348
  20931268.073   -15033617.72749 -11701583.32647  20931267.125    20931280.481
  22126268.841   -13258665.92849 -10322644.50247  22126268.593    22126282.273
  20815948.270      265620.69749    341937.62648  20815947.659    20815959.971
 02  4  8 19 35  0.0000000  0  6G24G23G30G10G 6G 5
  22332431.272     9231869.90649   7191547.64247  22332430.960    22332445.359
  23134505.297    -8913097.06449  -6601603.65045  23134504.866    23134525.219
  20264085.094    -9860924.25349  -7666191.16648  20264085.266    20264096.331
  20924271.271   -15070385.94549 -11730233.82747  20924270.329    20924283.687
  22114112.056   -13322550.16149 -10372424.34047  22114111.799    22114125.457
  20826130.403      319127.85349    383631.41948  20826129.790    20826142.109
 02  4  8 19 35 30.0000000  0  6G24G23G30G10G 6G 5
  22346825.420     9307510.90749   7250488.53847  22346825.085    22346839.495
  23115673.271    -9012059.47149  -6678716.86545  23115672.793    23115692.904
  20263645.037    -9863236.81149  -7667993.17448  20263645.220    20263656.289
  20917387.598   -15106559.70749 -11758421.12047  20917386.665    20917399.990
  22101972.335   -13386344.82349 -10422134.38147  22101972.073    22101985.717
  20836405.331      373122.55849    425705.11948  20836404.727    20836417.040
 02  4  8 19 36  0.0000000  0  6G24G23G30G10G 6G 5
  22361241.251     9383265.88549   7309518.25047  22361240.915    22361255.292
  23096874.383    -9110847.56949  -6755694.27145  23096873.877    23096893.819
  20263316.854    -9864961.38549  -7669337.01648  20263317.037    20263328.121
  20910617.161   -15142138.46649 -11786144.77647  20910616.212    20910629.543
  22089849.713   -13450049.73449 -10471774.49047  22089849.445    22089863.047
  20846772.638      427602.68949    468157.07448  20846772.030    20846784.341
 02  4  8 19 36 30.0000000  0  6G24G23G30G10G 6G 5
  22375678.737     9459134.81049   7368636.75247  22375678.390    22375692.790
  23078109.365    -9209457.05049  -6832532.50745  23078108.768    23078128.622
  20263101.017    -9866095.96049  -7670221.12548  20263101.197    20263112.267
  20903960.440   -15177119.28849 -11813402.51747  20903959.480    20903972.830
  22077744.584   -13513662.43149 -10521342.74047  22077744.306    22077757.885
  20857232.359      482568.42449    510987.42047  20857231.739    20857244.041
 02  4  8 19 37  0.0000000  0  6G24G23G30G10G 6G 5
  22390137.575     9535115.92349   7427842.68447  22390137.220    22390151.663
  23059378.675    -9307885.19249  -6909229.44845  23059378.136    23059397.861
  20262997.489    -9866640.20249  -7670645.23448  20262997.669    20263008.713
  20897417.789   -15211500.61349 -11840193.12247  20897416.859    20897430.205
  22065657.179   -13577182.07449 -10570838.48247  22065656.914    22065670.446
  20867784.194      538018.10449    554194.86847  20867783.544    20867795.880
 02  4  8 19 37 30.0000000  0  6G24G23G30G10G 6G 5
  22404617.557     9611208.12549   7487135.17047  22404617.196    22404631.657
  23040683.247    -9406128.49949  -6985782.36145  23040682.698    23040702.526
  20263006.521    -9866593.01749  -7670608.49048  20263006.702    20263017.718
  20890989.664   -15245280.39049 -11866514.98947  20890988.750    20891002.029
  22053587.775   -13640606.97649 -10620260.39447  22053587.499    22053601.002
  20878427.943      593950.86849    597778.73847  20878427.295    20878439.626
 02  4  8 19 38  0.0000000  0  6G24G23G30G10G 6G 5
  22419118.055     9687408.38649   7546511.85247  22419117.688    22419132.192
  23022023.166    -9504185.77749  -7062190.33745  23022022.607    23022042.640
  20263127.857    -9865955.64749  -7670111.86248  20263128.048    20263139.031
  20884675.991   -15278458.79549 -11892368.25547  20884675.070    20884688.280
  22041536.277   -13703937.87249 -10669609.06347  22041536.002    22041549.451
  20889163.093      650363.64949    641736.64947  20889162.404    20889174.732
 02  4  8 19 38 30.0000000  0  6G24G23G30G10G 6G 5
  22433639.059     9763716.65249   7605972.70346  22433638.735    22433653.281
  23003399.186    -9602052.19649  -7138449.61745  23003398.659    23003418.999
  20263361.937    -9864725.86849  -7669153.62348  20263362.126    20263373.087
  20878477.373   -15311032.79249 -11917750.55147  20878476.432    20878489.548
  22029503.153   -13767172.02349 -10718882.35347  22029502.893    22029516.312
  20899989.521      707256.58549    686068.70048  20899988.859    20900001.201
 02  4  8 19 39  0.0000000  0  6G24G23G30G10G 6G 5
  22448180.055     9840129.85849   7665515.33846  22448179.719    22448194.355
  22984812.288    -9699726.63049  -7214559.25945  22984811.786    22984831.671
  20263708.467    -9862904.97849  -7667734.77648  20263708.656    20263719.614
  20872393.778   -15343002.31949 -11942661.83047  20872392.823    20872405.894
  22017488.367   -13830309.74849 -10768080.50947  22017488.091    22017501.512
  20910906.827      764626.76349    730772.63248  20910906.161    20910918.551
 02  4  8 19 39 30.0000000  0  6G24G23G30G10G 6G 5
  22462740.485     9916644.93249   7725137.35046  22462740.139    22462754.869
  22966262.447    -9797207.73649  -7290518.22545  22966261.868    22966280.949
  20264167.290    -9860494.11149  -7665856.21348  20264167.469    20264178.408
  20866425.124   -15374367.55949 -11967102.23947  20866424.185    20866437.240
  22005491.746   -13893351.58749 -10817203.94347  22005491.506    22005504.923
  20921914.295      822471.00249    775845.96548  20921913.620    20921926.068
 02  4  8 19 40  0.0000000  0  6G24G23G30G10G 6G 5
  22477320.186     9993261.13149   7784838.15846  22477319.815    22477334.586
  22947749.780    -9894491.45349  -7366323.41545  22947749.135    22947768.190
  20264738.633    -9857491.73449  -7663516.73248  20264738.823    20264749.760
  20860571.972   -15405125.91349 -11991069.74647  20860571.047    20860584.094
  21993513.798   -13956295.52549 -10866251.09347  21993513.568    21993527.000
  20933011.928      880789.14849    821288.57648  20933011.288    20933023.779
 02  4  8 19 40 30.0000000  0  6G24G23G30G10G 6G 5
  22491919.054    10069978.41649   7844617.73546  22491918.758    22491933.507
  22929275.176    -9991573.89249  -7441971.82245  22929274.574    22929293.885
  20265422.814    -9853896.57449  -7660715.34248  20265422.999    20265433.933
  20854834.662   -15435275.25849 -12014562.70047  20854833.749    20854846.801
  21981554.921   -14019139.30749 -10915220.20147  21981554.716    21981568.113
  20944199.610      939580.45949    867099.88447  20944198.973    20944211.487
 02  4  8 19 41  0.0000000  0  6G24G23G30G10G 6G 5
  22506536.766    10146794.29149   7904474.12646  22506536.449    22506551.181
  22910839.457   -10088453.02849  -7517461.77645  22910838.877    22910858.222
  20266219.699    -9849709.11649  -7657452.42048  20266219.868    20266230.777
  20849213.353   -15464815.12749 -12037580.73847  20849212.451    20849225.505
  21969615.185   -14081882.66249 -10964111.05947  21969614.982    21969628.366
  20955476.906      998842.62549    913278.08347  20955476.265    20955488.815
 02  4  8 19 41 30.0000000  0  6G24G23G30G10G 6G 5
  22521172.798    10223706.57049   7964405.64846  22521172.477    22521187.243
  22892442.856   -10185126.53449  -7592791.51745  22892442.183    22892461.551
  20267129.264    -9844929.50149  -7653728.07148  20267129.438    20267140.343
  20843708.257   -15493744.42749 -12060123.00047  20843707.352    20843720.395
  21957694.673   -14144525.05449 -11012923.23947  21957694.435    21957707.834
  20966843.366     1058573.51949    959821.53147  20966842.727    20966855.297
 02  4  8 19 42  0.0000000  0  6G24G23G30G10G 6G 5
  22535827.014    10300714.18949   8024411.45746  22535826.652    22535841.480
  22874086.032   -10281591.10149  -7667958.43046  22874085.380    22874104.799
  20268151.635    -9839557.18049  -7649541.87648  20268151.790    20268162.700
  20838319.630   -15522061.57049 -12082188.25947  20838318.722    20838331.749
  21945793.634   -14207065.01749 -11061655.62347  21945793.393    21945806.791
  20978298.873     1118772.15249   1006729.44347  20978298.226    20978310.824
 02  4  8 19 42 30.0000000  0  6G24G23G30G10G 6G 5
  22550498.917    10377815.20149   8084490.05146  22550498.534    22550513.413
  22855769.548   -10377844.57749  -7742960.86046  22855768.921    22855788.123
  20269286.693    -9833592.52849  -7644894.12548  20269286.835    20269297.752
  20833047.660   -15549766.14449 -12103776.17947  20833046.742    20833059.715
  21933912.238   -14269501.97849 -11110307.74647  21933911.989    21933925.329
  20989842.994     1179436.31249   1054000.10247  20989842.344    20989854.959
 02  4  8 19 43  0.0000000  0  6G24G23G30G10G 6G 5
  22565188.115    10455007.40349   8144639.70546  22565187.765    22565202.720
  22837493.700   -10473884.39949  -7817796.80946  22837493.013    22837512.123
  20270534.435    -9827035.78149  -7639785.00048  20270534.591    20270545.517
  20827892.432   -15576857.07749 -12124885.93347  20827891.501    20827904.445
  21922050.622   -14331835.25749 -11158879.06247  21922050.350    21922063.604
  21001475.313     1240563.80249   1101631.79247  21001474.641    21001487.256
 02  4  8 19 43 30.0000000  0  6G24G23G30G10G 6G 5
  22579894.683    10532290.48149   8204860.16646  22579894.334    22579909.331
  22819259.083   -10569706.80049  -7892463.35646  22819258.417    22819277.447
  20271895.021    -9819885.85549  -7634213.65948  20271895.179    20271906.110
  20822854.317   -15603332.56149 -12145516.11447  20822853.369    20822866.281
  21910209.085   -14394062.79149 -11207367.97147  21910208.808    21910222.047
  21013195.672     1302154.04849   1149624.07147  21013194.978    21013207.614
 02  4  8 19 44  0.0000000  0  6G24G23G30G10G 6G 5
  22594618.113    10609661.76149   8265149.35146  22594617.761    22594632.739
  22801066.234   -10665310.11649  -7966959.19546  22801065.551    22801084.459
  20273368.351    -9812143.63649  -7628180.78848  20273368.509    20273379.456
  20817933.338   -15629192.49849 -12165666.65247  20817932.395    20817945.277
  21898387.662   -14456184.69649 -11255774.57647  21898387.392    21898400.636
  21025003.466     1364204.04649   1197974.60647  21025002.754    21025015.472
 02  4  8 19 44 30.0000000  0  6G24G23G30G10G 6G 5
  22609358.094    10687120.16549   8325506.42646  22609357.727    22609372.730
  22782915.797   -10760691.01049  -8041281.70246  22782915.067    22782933.909
  20274954.455    -9803808.56949  -7621685.96448  20274954.611    20274965.572
  20813129.778   -15654435.01849 -12185336.09047  20813128.831    20813141.742
  21886586.632   -14518199.27249 -11304097.55647  21886586.352    21886599.650
  21036898.551     1426712.82549   1246682.62647  21036897.858    21036910.615
 02  4  8 19 45  0.0000000  0  6G24G23G30G10G 6G 5
  22624114.302    10764664.05749   8385930.12246  22624113.911    22624128.991
  22764808.026   -10855847.12149  -8115429.07846  22764807.342    22764826.155
  20276653.321    -9794881.02449  -7614729.47148  20276653.495    20276664.469
  20808443.824   -15679059.61449 -12204524.02847  20808442.885    20808455.829
  21874806.152   -14580105.82149 -11352336.36147  21874805.867    21874819.173
  21048880.602     1489678.44049   1295746.62447  21048879.913    21048892.687
 02  4  8 19 45 30.0000000  0  6G24G23G30G10G 6G 5
  22638886.556    10842292.09049   8446419.37446  22638886.215    22638901.271
  22746743.634   -10950775.30649  -8189398.84246  22746743.017    22746761.788
  20278465.003    -9785360.59449  -7607310.98748  20278465.161    20278476.153
  20803875.727   -15703064.85449 -12223229.35647  20803874.797    20803887.778
  21863046.467   -14641903.05649 -11400489.97147  21863046.188    21863059.475
  21060949.272     1553099.41649   1345165.44447  21060948.588    21060961.383
 02  4  8 19 46  0.0000000  0  6G24G23G30G10G 6G 5
  22653674.525    10920002.51149   8506972.81846  22653674.158    22653689.182
  22728723.208   -11045473.11849  -8263189.10746  22728722.573    22728741.193
  20280389.425    -9775247.60149  -7599430.76848  20280389.589    20280400.602
  20799425.641   -15726449.98549 -12241451.48347  20799424.698    20799437.715
  21851307.778   -14703589.94249 -11448557.60247  21851307.505    21851320.737
  21073104.174     1616973.51649   1394937.33747  21073103.514    21073116.326
 02  4  8 19 46 30.0000000  0  6G24G23G30G10G 6G 5
  22668477.893    10997793.74849   8567589.22846  22668477.519    22668492.461
  22710747.034   -11139937.73849  -8336797.66246  22710746.348    22710764.832
  20282426.611    -9764542.16149  -7591088.90248  20282426.778    20282437.812
  20795093.727   -15749214.26349 -12259189.82947  20795092.787    20795105.806
  21839590.257   -14765165.50549 -11496538.49147  21839589.997    21839603.184
  21085344.912     1681298.82949   1445060.83047  21085344.260    21085357.092
 02  4  8 19 47  0.0000000  0  6G24G23G30G10G 6G 5
  22683296.357    11075664.95049   8628267.96646  22683296.000    22683311.008
  22692815.777   -11234165.62749  -8410221.76746  22692815.072    22692833.545
  20284576.681    -9753243.40549  -7582284.71347  20284576.860    20284587.879
  20790880.273   -15771355.86749 -12276442.97447  20790879.314    20790892.358
  21827894.292   -14826627.83349 -11544431.15447  21827894.034    21827907.200
  21097671.439     1746074.72949   1495535.42247  21097670.796    21097683.636
 02  4  8 19 47 30.0000000  0  6G24G23G30G10G 6G 5
  22698129.723    11153614.81549   8689007.98546  22698129.402    22698144.479
  22674930.121   -11328153.86449  -8483459.13146  22674929.453    22674947.897
  20286839.735    -9741351.24849  -7573018.13847  20286839.873    20286850.878
  20786785.509   -15792873.69249 -12293210.06547  20786784.579    20786797.617
  21816220.175   -14887975.66049 -11592234.59847  21816219.895    21816233.038
  21110083.350     1811299.33549   1546359.65547  21110082.704    21110095.572
 02  4  8 19 48  0.0000000  0  6G24G23G30G10G 6G 5
  22712977.604    11231640.80749   8749807.32546  22712977.323    22712992.423
  22657090.626   -11421900.65849  -8556508.34146  22657089.963    22657108.221
  20289215.454    -9728866.86849  -7563290.09047  20289215.598    20289226.566
  20782809.413   -15813768.11449 -12309491.38747  20782808.481    20782821.497
  21804567.949   -14949208.77549 -11639948.64647  21804567.652    21804580.737
  21122580.109     1876969.84949   1597531.35047  21122579.472    21122592.360
 02  4  8 19 48 30.0000000  0  6G24G23G30G10G 6G 5
  22727839.767    11309741.23549   8810664.65646  22727839.444    22727854.492
  22639297.327   -11515404.17049  -8629367.97246  22639296.692    22639314.799
  20291703.670    -9715791.34849  -7553101.41547  20291703.806    20291714.763
  20778951.976   -15834039.10149 -12325286.91947  20778951.032    20778964.031
  21792937.590   -15010326.87649 -11687573.07247  21792937.283    21792950.327
  21135161.251     1943083.67549   1649048.48647  21135160.613    21135173.523
 02  4  8 19 49  0.0000000  0  6G24G23G30G10G 6G 5
  22742715.903    11387915.24649   8871579.32446  22742715.575    22742730.507
  22621550.879   -11608660.48649  -8702034.99246  22621550.327    22621568.551
  20294304.537    -9702123.55249  -7542451.22847  20294304.685    20294315.652
  20775213.561   -15853684.42349 -12340594.92147  20775212.620    20775225.570
  21781329.479   -15071327.82149 -11735106.20647  21781329.180    21781342.200
  21147826.599     2009639.98349   1700910.40947  21147825.954    21147838.833
 02  4  8 19 49 30.0000000  0  6G24G23G30G10G 6G 5
  22757605.715    11466161.49249   8932550.27346  22757605.407    22757620.344
  22603852.028   -11701667.22549  -8774507.56746  22603851.519    22603869.864
  20297018.037    -9687864.15149  -7531340.04347  20297018.187    20297029.175
  20771594.267   -15872703.84449 -12355415.20647  20771593.345    20771606.200
  21769743.831   -15132210.69649 -11782547.33247  21769743.520    21769756.528
  21160575.818     2076636.60449   1753115.43947  21160575.138    21160587.974
 02  4  8 19 50  0.0000000  0  6G24G23G30G10G 6G 5
  22772508.933    11544478.05749   8993576.02746  22772508.690    22772523.617
  22586201.293   -11794421.72349  -8846783.58246  22586200.759    22586219.115
  20299844.049    -9673013.46049  -7519768.11747  20299844.210    20299855.227
  20768094.202   -15891096.72049 -12369747.27647  20768093.248    20768106.036
  21758180.786   -15192974.53249 -11829895.70347  21758180.475    21758193.474
  21173408.358     2144071.43349   1805661.93047  21173407.674    21173420.529
 02  4  8 19 50 30.0000000  0  6G24G23G30G10G 6G 5
  22787425.223    11622863.13449   9054655.17146  22787424.963    22787440.032
  22568598.967   -11886921.56849  -8918861.15546  22568598.434    22568616.632
  20302782.499    -9657571.80449  -7507735.69747  20302782.656    20302793.720
  20764713.419   -15908862.43249 -12383590.64447  20764712.459    20764725.210
  21746640.550   -15253618.50349 -11877150.65847  21746640.244    21746653.194
  21186323.917     2211942.39049   1858548.26447  21186323.213    21186336.099
 02  4  8 19 51  0.0000000  0  6G24G23G30G10G 6G 5
  22802354.314    11701315.44049   9115786.70946  22802353.978    22802369.146
  22551045.647   -11979164.17849  -8990738.26746  22551045.167    22551063.038
  20305833.378    -9641539.58949  -7495243.10247  20305833.534    20305844.603
  20761452.099   -15926000.44549 -12396944.89847  20761451.157    20761463.881
  21735123.405   -15314141.37149 -11924311.24647  21735123.117    21735135.930
  21199322.077     2280247.34249   1911772.77947  21199321.365    21199334.283
 02  4  8 19 51 30.0000000  0  6G24G23G30G10G 6G 5
  22817295.826    11779833.32249   9176969.33446  22817295.494    22817310.705
  22533541.842   -12071147.00049  -9062412.92846  22533541.314    22533558.958
  20308996.490    -9624917.66249  -7482290.99248  20308996.644    20309007.727
  20758310.316   -15942510.52749 -12409809.85347  20758309.372    20758322.038
  21723629.439   -15374542.09149 -11971376.64147  21723629.145    21723641.879
  21212402.365     2348983.93849   1965333.63347  21212401.650    21212414.599
 02  4  8 19 52  0.0000000  0  6G24G23G30G10G 6G 5
  22832249.632    11858415.90549   9238202.38646  22832249.313    22832264.587
  22516087.982   -12162866.62249  -9133882.50646  22516087.418    22516105.008
  20312271.966    -9607705.21149  -7468878.74048  20312272.117    20312283.200
  20755288.350   -15958390.93849 -12422184.15347  20755287.394    20755299.997
  21712159.084   -15434818.76049 -12018345.38747  21712158.796    21712171.439
  21225564.565     2418151.19249   2019230.05947  21225563.848    21225576.782
 02  4  8 19 52 30.0000000  0  6G24G23G30G10G 6G 5
  22847215.627    11937062.17849   9299485.06246  22847215.292    22847230.640
  22498684.632   -12254320.02249  -9205144.64546  22498684.056    22498701.703
  20315659.744    -9589902.61649  -7455006.63648  20315659.881    20315670.989
  20752386.355   -15973641.00049 -12434067.27247  20752385.403    20752397.927
  21700712.616   -15494970.11749 -12065216.49647  21700712.340    21700724.946
  21238808.350     2487747.38149   2073460.71747  21238807.639    21238820.608
 02  4  8 19 53  0.0000000  0  6G24G23G30G10G 6G 5
  22862193.354    12015770.05949   9360815.74746  22862192.983    22862208.464
  22481332.386   -12345505.30049  -9276197.86046  22481331.818    22481349.611
  20319159.605    -9571510.79549  -7440675.39648  20319159.748    20319170.868
  20749604.235   -15988261.05149 -12445459.47847  20749603.279    20749615.744
  21689290.120   -15554995.66549 -12111989.56947  21689289.857    21689302.462
  21252133.223     2557769.90149   2128023.58547  21252132.525    21252145.570
 02  4  8 19 53 30.0000000  0  6G24G23G30G10G 6G 5
  22877182.493    12094538.04849   9422193.28246  22877182.156    22877197.729
  22464031.629   -12436420.04849  -9347040.26446  22464031.056    22464049.080
  20322771.507    -9552530.38049  -7425885.50948  20322771.658    20322782.788
  20746942.053   -16002250.59949 -12456360.39347  20746941.102    20746953.543
  21677891.769   -15614894.48449 -12158663.92647  21677891.468    21677904.131
  21265538.845     2628216.50049   2182916.90347  21265538.144    21265551.292
 02  4  8 19 54  0.0000000  0  6G24G23G30G10G 6G 5
  22892182.835    12173364.75149   9483616.53446  22892182.492    22892198.059
  22446782.944   -12527061.32249  -9417669.59246  22446782.396    22446800.523
  20326495.400    -9532961.51749  -7410637.09848  20326495.550    20326506.660
  20744400.039   -16015608.76549 -12466769.32347  20744399.082    20744411.533
  21666517.760   -15674665.02549 -12205238.30147  21666517.452    21666530.213
  21279024.823     2699085.28249   2238139.19247  21279024.098    21279037.345
 02  4  8 19 54 30.0000000  0  6G24G23G30G10G 6G 5
  22907194.097    12252248.58549   9545084.30746  22907193.739    22907209.205
  22429586.935   -12617426.64449  -9488083.84846  22429586.370    22429604.245
  20330331.082    -9512805.05349  -7394930.81448  20330331.234    20330342.328
  20741978.193   -16028335.34949 -12476686.11947  20741977.258    20741989.727
  21655168.299   -15734306.35649 -12251712.00247  21655167.989    21655180.835
  21292590.652     2770374.03649   2293688.73447  21292589.946    21292603.279
 02  4  8 19 55  0.0000000  0  6G24G23G30G10G 6G 5
  22922215.795    12331187.59849   9606595.09146  22922215.440    22922230.887
  22412443.869   -12707513.94649  -9558281.44746  22412443.209    22412460.677
  20334278.442    -9492061.89549  -7378767.36448  20334278.602    20334289.696
  20739676.482   -16040430.63449 -12486110.99447  20739675.542    20739688.073
  21643843.538   -15793817.83449 -12298084.53747  21643843.239    21643856.111
  21306235.995     2842080.23749   2349563.56447  21306235.280    21306248.698
 02  4  8 19 55 30.0000000  0  6G24G23G30G10G 6G 5
  22937248.021    12410181.54849   9668148.67846  22937247.704    22937263.115
  22395354.080   -12797319.81649  -9628259.76746  22395353.421    22395370.795
  20338337.459    -9470731.83649  -7362146.59448  20338337.632    20338348.728
  20737495.144   -16051893.39149 -12495042.99647  20737494.201    20737506.781
  21632543.876   -15853197.43449 -12344354.28847  21632543.552    21632556.397
  21319960.530     2914202.68849   2405762.73647  21319959.829    21319973.353
 02  4  8 19 56  0.0000000  0  6G24G23G30G10G 6G 5
  22952290.494    12489229.49649   9729744.33946  22952290.180    22952305.649
  22378318.396   -12886841.07749  -9698016.33946  22378317.793    22378335.094
  20342508.139    -9448814.86849  -7345068.49148  20342508.324    20342519.451
  20735434.401   -16062722.54949 -12503481.28947  20735433.468    20735446.064
  21621269.674   -15912443.40649 -12390519.91947  21621269.367    21621282.105
  21333763.927     2986739.57949   2462284.85647  21333763.233    21333776.841
 02  4  8 19 56 30.0000000  0  6G24G23G30G10G 6G 5
  22967342.655    12568328.55249   9791379.82746  22967342.350    22967357.957
  22361337.352   -12976076.29249  -9767549.99446  22361336.709    22361353.925
  20346790.200    -9426312.80449  -7327534.46448  20346790.380    20346801.549
  20733494.012   -16072919.19849 -12511426.71047  20733493.101    20733505.739
  21610020.950   -15971555.81749 -12436581.47147  21610020.644    21610033.298
  21347645.570     3059687.74249   2519127.44447  21347644.903    21347658.566
 02  4  8 19 57  0.0000000  0  6G24G23G30G10G 6G 5
  22982404.448    12647478.29949   9853054.81846  22982404.123    22982419.836
  22344411.366   -13065022.11849  -9836858.16746  22344410.717    22344427.889
  20351183.603    -9403225.46949  -7309544.38848  20351183.779    20351194.981
  20731674.191   -16082482.15149 -12518878.34747  20731673.311    20731685.978
  21598797.967   -16030532.72849 -12482537.43147  21598797.654    21598810.250
  21361605.169     3133045.67149   2576289.31747  21361604.519    21361618.161
 02  4  8 19 57 30.0000000  0  6G24G23G30G10G 6G 5
  22997475.480    12726676.59449   9914767.61446  22997475.158    22997490.890
  22327540.844   -13153676.55049  -9905939.27346  22327540.215    22327557.432
  20355688.135    -9379554.18549  -7291099.28248  20355688.320    20355699.541
  20729974.954   -16091411.73349 -12525836.45547  20729974.078    20729986.752
  21587600.946   -16089373.43649 -12528387.27347  21587600.605    21587613.213
  21375642.256     3206810.74749   2633768.43847  21375641.601    21375655.171
 02  4  8 19 58  0.0000000  0  6G24G23G30G10G 6G 5
  23012555.591    12805922.36549   9976517.41646  23012555.269    23012571.083
  22310726.255   -13242037.48949  -9974791.68946  22310725.616    22310742.804
  20360303.587    -9355299.86249  -7272199.85748  20360303.765    20360315.016
  20728396.216   -16099708.07649 -12532301.12947  20728395.350    20728408.000
  21576429.901   -16148077.10749 -12574130.33447  21576429.549    21576442.248
  21389756.423     3280980.37449   2691562.80047  21389755.760    21389769.272
 02  4  8 19 58 30.0000000  0  6G24G23G30G10G 6G 5
  23027644.608    12885215.10749  10038303.82646  23027644.274    23027660.250
  22293968.166   -13330100.95849 -10043412.31946  22293967.499    22293984.627
  20365030.085    -9330462.06949  -7252845.78047  20365030.263    20365041.541
  20726938.316   -16107369.55749 -12538271.10647  20726937.410    20726950.032
  21565285.339   -16206641.21749 -12619764.65347  21565285.024    21565297.837
  21403947.408     3355553.68849   2749671.72147  21403946.755    21403960.208
 02  4  8 19 59  0.0000000  0  6G24G23G30G10G 6G 5
  23042742.322    12964553.54149  10100125.83646  23042741.931    23042758.038
  22277266.997   -13417864.31349 -10111799.08846  22277266.360    22277283.415
  20369867.514    -9305041.26649  -7233037.40547  20369867.694    20369879.035
  20725601.240   -16114395.90149 -12543746.17347  20725600.336    20725612.959
  21554167.639   -16265064.37649 -12665289.13947  21554167.341    21554180.276
  21418214.867     3430528.64649   2808093.61847  21418214.198    21418227.641
 02  4  8 19 59 30.0000000  0  6G24G23G30G10G 6G 5
  23057848.400    13043935.88649  10161982.04646  23057848.073    23057864.122
  22260623.412   -13505325.58349 -10179950.47246  22260622.792    22260639.735
  20374815.596    -9279038.87549  -7212775.84747  20374815.788    20374827.158
  20724384.987   -16120787.28649 -12548726.47348  20724384.087    20724396.711
  21543076.948   -16323345.87149 -12710703.24547  21543076.679    21543089.620
  21432558.210     3505902.55549   2866826.37947  21432557.559    21432571.000
 02  4  8 20  0  0.0000000  0  6G24G23G30G10G 6G 5
  23072962.585    13123360.25349  10223870.99746  23072962.250    23072978.207
  22244037.815   -13592482.70849 -10247864.86646  22244037.194    22244054.100
  20379874.190    -9252455.86049  -7192061.85947  20379874.376    20379885.768
  20723289.472   -16126544.33549 -12553212.48248  20723288.586    20723301.189
  21532013.492   -16381484.83949 -12756006.27847  21532013.237    21532026.099
  21446976.912     3581672.65249   2925867.87047  21446976.257    21446989.755
 02  4  8 20  0 30.0000000  0  6G24G23G30G10G 6G 5
  23088084.474    13202825.95449  10285792.16446  23088084.142    23088100.176
  22227510.649   -13679332.93049 -10315540.13146  22227510.035    22227526.925
  20385043.143    -9225292.86749  -7170895.93647  20385043.328    20385054.710
  20722314.730   -16131666.85249 -12557204.05248  20722313.821    20722326.407
  21520977.488   -16439479.72649 -12801197.03947  21520977.227    21520989.999
  21461470.607     3657836.98049   2985216.54847  21461469.924    21461483.535
 02  4  8 20  1  0.0000000  0  6G24G23G30G10G 6G 5
  23103213.917    13282331.84749  10347744.66646  23103213.587    23103229.800
  22211042.480   -13765873.41449 -10382974.05046  22211041.836    22211058.626
  20390322.394    -9197550.49449  -7149278.55547  20390322.573    20390333.915
  20721460.831   -16136154.14749 -12560700.64447  20721459.912    20721472.515
  21509969.189   -16497329.02549 -12846274.35347  21509968.898    21509981.635
  21476038.852     3734393.54049   3044870.87247  21476038.168    21476051.912
 02  4  8 20  1 30.0000000  0  6G24G23G30G10G 6G 5
  23118350.821    13361876.11049  10409727.04446  23118350.479    23118366.724
  22194633.580   -13852102.41249 -10450165.26146  22194632.906    22194649.633
  20395711.584    -9169230.39249  -7127210.99547  20395711.763    20395723.064
  20720727.618   -16140007.24649 -12563703.05547  20720726.689    20720739.305
  21498988.600   -16555032.41449 -12891237.97647  21498988.300    21499001.050
  21490681.174     3811339.43049   3104828.55847  21490680.541    21490694.359
 02  4  8 20  2  0.0000000  0  6G24G23G30G10G 6G 5
  23133494.877    13441457.98849  10471738.74746  23133494.515    23133510.803
  22178284.504   -13938016.30949 -10517110.96546  22178283.814    22178300.617
  20401210.763    -9140332.25149  -7104693.02047  20401210.925    20401222.181
  20720115.317   -16143224.93649 -12566210.34447  20720114.353    20720127.000
  21488036.177   -16612587.31549 -12936085.89347  21488035.892    21488048.683
  21505397.457     3888673.46349   3165088.68247  21505396.823    21505410.647
 02  4  8 20  2 30.0000000  0  6G24G23G30G10G 6G 5
  23148645.891    13521076.95249  10533779.32746  23148645.546    23148661.884
  22161995.921   -14023612.11849 -10583808.80446  22161995.251    22162012.072
  20406819.919    -9110856.49849  -7081724.96247  20406820.062    20406831.252
  20719624.037   -16145806.71749 -12568222.11847  20719623.073    20719635.726
  21477112.353   -16669992.00749 -12980816.76847  21477112.055    21477124.887
  21520187.275     3966393.82849   3225649.83447  21520186.645    21520200.437
 02  4  8 20  3  0.0000000  0  6G24G23G30G10G 6G 5
  23163803.454    13600730.40549  10595846.79646  23163803.143    23163819.629
  22145768.155   -14108888.61649 -10650257.82546  22145767.494    22145784.184
  20412538.558    -9080805.32649  -7058308.52647  20412538.703    20412549.851
  20719253.489   -16147753.98849 -12569739.46248  20719252.520    20719265.178
  21466217.105   -16727246.48849 -13025430.59347  21466216.788    21466229.655
  21535049.928     4044497.00749   3286509.29447  21535049.325    21535063.119
 02  4  8 20  3 30.0000000  0  6G24G23G30G10G 6G 5
  23178967.595    13680417.60749  10657940.55246  23178967.304    23178983.838
  22129601.742   -14193842.76749 -10716455.66546  22129601.096    22129617.591
  20418366.650    -9050179.10249  -7034443.99847  20418366.749    20418377.860
  20719003.712   -16149066.25549 -12570761.99648  20719002.753    20719015.450
  21455350.810   -16784349.04249 -13069926.03247  21455350.490    21455363.345
  21549985.053     4122981.03749   3347665.53147  21549984.426    21549998.357
 02  4  8 20  4  0.0000000  0  6G24G23G30G10G 6G 5
  23194137.916    13760136.91949  10720059.33146  23194137.583    23194154.083
  22113497.105   -14278472.61149 -10782400.79546  22113496.485    22113512.871
  20424303.816    -9018979.36249  -7010132.57647  20424303.938    20424315.040
  20718874.775   -16149743.92349 -12571290.03748  20718873.802    20718886.500
  21444513.624   -16841298.64349 -13114302.29447  21444513.302    21444526.104
  21564992.118     4201843.28749   3409116.48247  21564991.497    21565005.564
 02  4  8 20  4 30.0000000  0  6G24G23G30G10G 6G 5
  23209314.060    13839887.37849  10782202.38246  23209313.676    23209330.282
  22097454.643   -14362775.74549 -10848091.36147  22097454.011    22097470.382
  20430349.931    -8987207.18049  -6985375.10047  20430350.033    20430361.161
  20718866.438   -16149787.57849 -12571324.03748  20718865.478    20718878.161
  21433705.720   -16898094.14349 -13158558.47247  21433705.385    21433718.199
  21580070.739     4281081.25249   3470860.20347  21580070.078    21580084.290
 02  4  8 20  5  0.0000000  0  6G24G23G30G10G 6G 5
  23224495.869    13919668.08449  10844369.01246  23224495.506    23224512.199
  22081474.888   -14446748.95549 -10913524.84547  22081474.264    22081490.696
  20436504.945    -8954862.71149  -6960171.68048  20436505.052    20436516.211
  20718978.914   -16149196.39649 -12570863.36248  20718977.960    20718990.631
  21422927.463   -16954733.59249 -13202693.05147  21422927.156    21422939.993
  21595220.546     4360693.52449   3532895.59147  21595219.861    21595234.191
 02  4  8 20  5 30.0000000  0  6G24G23G30G10G 6G 5
  23239683.205    13999477.30649  10906557.83646  23239682.842    23239699.547
  22065558.193   -14530390.27949 -10978699.72246  22065557.583    22065574.141
  20442768.546    -8921947.69249  -6934523.67648  20442768.646    20442779.844
  20719212.023   -16147971.13349 -12569908.59048  20719211.079    20719223.766
  21412179.071   -17011216.13049 -13246705.35947  21412178.797    21412191.632
  21610441.015     4440677.22449   3595220.40047  21610440.353    21610454.685
 02  4  8 20  6  0.0000000  0  6G24G23G30G10G 6G 5
  23254876.019    14079314.47249  10968768.44146  23254875.574    23254892.276
  22049705.207   -14613696.60849 -11043613.56946  22049704.658    22049721.298
  20449140.682    -8888462.31449  -6908431.23848  20449140.774    20449152.001
  20719565.834   -16146111.41949 -12568459.44948  20719564.914    20719577.630
  21401460.984   -17067539.71649 -13290593.81947  21401460.727    21401473.510
  21625731.970     4521030.58549   3657833.23847  21625731.287    21625745.567
 02  4  8 20  6 30.0000000  0  6G24G23G30G10G 6G 5
  23270073.535    14159177.56349  11030999.24846  23270073.103    23270089.898
  22033916.366   -14696666.61349 -11108265.32746  22033915.828    22033932.440
  20455620.901    -8854408.77949  -6881896.07648  20455620.988    20455632.287
  20720040.207   -16143618.51049 -12566516.90148  20720039.285    20720051.989
  21390773.203   -17123704.21749 -13334358.30547  21390772.926    21390785.659
  21641092.526     4601750.01949   3720731.33447  21641091.823    21641106.057
 02  4  8 20  7  0.0000000  0  6G24G23G30G10G 6G 5
  23285275.850    14239066.24049  11093250.01546  23285275.469    23285292.314
  22018192.197   -14779297.19649 -11172652.58546  22018191.653    22018208.076
  20462209.181    -8819787.44249  -6854918.47348  20462209.277    20462220.632
  20720635.132   -16140491.91349 -12564080.57547  20720634.214    20720646.922
  21380116.167   -17179707.29549 -13377997.01647  21380115.894    21380128.550
  21656522.442     4682834.09149   3783913.55547  21656521.742    21656535.883
 02  4  8 20  7 30.0000000  0  6G24G23G30G10G 6G 5
  23300482.850    14318979.01449  11155519.54046  23300482.541    23300499.296
  22002533.096   -14861586.08449 -11236773.57246  22002532.544    22002548.696
  20468905.227    -8784599.61649  -6827499.45048  20468905.342    20468916.757
  20721350.567   -16136732.24749 -12561150.94747  20721349.628    20721362.332
  21369490.012   -17235547.95749 -13421509.16747  21369489.760    21369502.334
  21672021.311     4764280.47449   3847378.08947  21672020.622    21672034.641
 02  4  8 20  8  0.0000000  0  7G24G23G15G30G10G 6G 5
  23315690.643    14398894.97849  11217791.54846  23315690.353    23315706.892
  21986935.694   -14943550.44049 -11300641.69646  21986935.102    21986951.177
  24762090.149    -2658774.55749  -1759858.40945  24762089.323    24762115.260
  20475705.133    -8748866.08549  -6799655.20848  20475705.244    20475716.706
  20722182.704   -16132359.47149 -12557743.57447  20722181.762    20722194.431
  21358891.356   -17291244.39449 -13464908.93247  21358891.067    21358903.584
  21687584.947     4846067.11849   3911107.76047  21687584.248    21687598.194
 02  4  8 20  8 30.0000000  0  7G24G23G15G30G10G 6G 5
  23330903.716    14478838.92449  11280085.36946  23330903.391    23330919.860
  21971405.395   -15025161.90149 -11364234.83546  21971404.793    21971420.852
  24744931.861    -2748941.34949  -1830117.95945  24744931.140    24744956.872
  20482613.596    -8712562.08949  -6771366.44948  20482613.711    20482625.174
  20723136.373   -16127347.87149 -12553838.41647  20723135.442    20723148.062
  21348325.301   -17346769.32749 -13508175.04747  21348324.992    21348337.488
  21703217.733     4928217.46549   3975120.84847  21703217.036    21703231.106
 02  4  8 20  9  0.0000000  0  7G24G23G15G30G10G 6G 5
  23346121.696    14558809.49649  11342399.93546  23346121.346    23346137.924
  21955942.558   -15106418.47449 -11427551.44646  21955941.968    21955958.046
  24727800.662    -2838967.17449  -1900267.63345  24727799.921    24727825.398
  20489630.353    -8675689.22549  -6742634.42548  20489630.454    20489641.904
  20724211.532   -16121698.08849 -12549435.97347  20724210.588    20724223.166
  21337792.133   -17402121.40049 -13551306.47647  21337791.824    21337804.318
  21718919.261     5010728.80949   4039415.23647  21718918.575    21718932.795
 02  4  8 20  9 30.0000000  0  7G24G23G15G30G10G 6G 5
  23361344.042    14638802.77249  11404732.20446  23361343.738    23361360.296
  21940547.203   -15187320.77249 -11490592.00646  21940546.586    21940562.652
  24710695.700    -2928854.15849  -1970309.12245  24710694.883    24710720.203
  20496754.535    -8638251.60249  -6713462.33147  20496754.642    20496766.062
  20725407.438   -16115413.63349 -12544538.98347  20725406.470    20725419.059
  21327291.476   -17457302.54349 -13594304.71747  21327291.164    21327303.664
  21734688.554     5093595.68349   4103986.65347  21734687.848    21734702.078
 02  4  8 20 10  0.0000000  0  7G24G23G15G30G10G 6G 5
  23376570.194    14718815.73349  11467079.79146  23376569.887    23376586.440
  21925219.410   -15267868.09549 -11553355.94846  21925218.787    21925234.790
  24693616.627    -3018603.28849  -2040243.21045  24693615.796    24693641.348
  20503985.649    -8600252.07749  -6683852.39147  20503985.766    20503997.157
  20726723.642   -16108496.65149 -12539149.11047  20726722.699    20726735.301
  21316823.282   -17512313.05949 -13637170.00947  21316822.971    21316835.517
  21750524.759     5176813.91649   4168831.83847  21750524.025    21750538.185
 02  4  8 20 10 30.0000000  0  7G24G23G15G30G10G 6G 5
  23391799.945    14798847.45749  11529442.01046  23391799.584    23391816.111
  21909959.595   -15348058.16549 -11615841.51246  21909958.991    21909974.904
  24676563.824    -3108214.20049  -2110069.61645  24676563.191    24676588.542
  20511323.401    -8561692.06649  -6653805.70847  20511323.526    20511334.929
  20728160.189   -16100947.66849 -12533266.77247  20728159.234    20728171.830
  21306387.833   -17567151.49849 -13679901.21047  21306387.535    21306400.088
  21766427.279     5260381.08049   4233948.91447  21766426.526    21766440.602
 02  4  8 20 11  0.0000000  0  7G24G23G15G30G10G 6G 5
  23407032.875    14878896.34049  11591817.59646  23407032.498    23407049.052
  21894768.166   -15427888.83649 -11678047.01346  21894767.568    21894783.416
  24659537.661    -3197686.48449  -2179787.95545  24659536.969    24659562.243
  20518767.519    -8522572.97249  -6623323.37547  20518767.643    20518779.073
  20729716.822   -16092767.35849 -12526892.49747  20729715.886    20729728.438
  21295985.376   -17621816.69849 -13722497.41647  21295985.096    21295997.633
  21782395.654     5344294.69049   4299335.95647  21782394.912    21782408.974
 02  4  8 20 11 30.0000000  0  7G24G23G15G30G10G 6G 5
  23422268.635    14958959.84549  11654204.57446  23422268.231    23422284.781
  21879645.204   -15507359.42649 -11739971.94746  21879644.598    21879660.364
  24642537.821    -3287021.23049  -2249399.14345  24642536.966    24642562.274
  20526317.468    -8482897.82049  -6592407.75047  20526317.596    20526329.088
  20731393.189   -16083958.04949 -12520028.08947  20731392.246    20731404.793
  21285615.838   -17676308.85149 -13764958.77747  21285615.565    21285628.052
  21798429.074     5428550.68549   4364989.78547  21798428.362    21798442.491
 02  4  8 20 12  0.0000000  0  7G24G23G15G30G10G 6G 5
  23437507.266    15039038.10349  11716603.04146  23437506.821    23437523.269
  21864591.574   -15586466.13149 -11801613.33246  21864590.949    21864606.633
  24625564.371    -3376216.20849  -2318901.43845  24625563.508    24625588.989
  20533973.291    -8442666.28949  -6561058.57747  20533973.416    20533984.990
  20733189.437   -16074518.71649 -12512672.76047  20733188.492    20733201.028
  21275279.823   -17730624.94349 -13807282.93547  21275279.551    21275291.973
  21814527.427     5513148.00749   4430909.57546  21814526.747    21814540.931
 02  4  8 20 12 30.0000000  0  7G24G23G15G30G10G 6G 5
  23452747.984    15119127.66549  11779010.32846  23452747.510    23452763.950
  21849607.136   -15665209.06049 -11862971.27546  21849606.512    21849622.175
  24608616.915    -3465273.18949  -2388296.22245  24608616.091    24608641.784
  20541734.173    -8401882.47049  -6529279.05347  20541734.323    20541745.954
  20735105.077   -16064452.11149 -12504828.64347  20735104.136    20735116.662
  21264977.056   -17784766.13249 -13849470.80647  21264976.763    21264989.133
  21830689.737     5598081.61349   4497091.40746  21830689.078    21830703.387
 02  4  8 20 13  0.0000000  0  7G24G23G15G30G10G 6G 5
  23467991.133    15199230.37849  11841427.85845  23467990.628    23468007.099
  21834692.903   -15743583.32449 -11924041.95247  21834692.277    21834707.936
  24591696.757    -3554188.70349  -2457580.77045  24591695.884    24591721.029
  20549600.547    -8360544.67349  -6497067.86547  20549600.697    20549612.354
  20737140.447   -16053756.26749 -12496494.21747  20737139.497    20737152.031
  21254708.376   -17838728.15949 -13891519.07647  21254708.092    21254720.416
  21846916.262     5683351.93149   4563535.62246  21846915.595    21846930.027
 02  4  8 20 13 30.0000000  0  7G24G23G15G30G10G 6G 5
  23483236.321    15279343.79149  11903853.71645  23483235.794    23483252.308
  21819849.070   -15821587.94949 -11984824.58747  21819848.434    21819864.022
  24574803.378    -3642963.76849  -2526755.84345  24574802.388    24574827.004
  20557571.751    -8318655.99349  -6464427.42047  20557571.909    20557583.577
  20739295.135   -16042433.30949 -12487671.12947  20739294.195    20739306.695
  21244473.757   -17892511.10349 -13933427.79847  21244473.477    21244485.769
  21863206.211     5768954.98949   4630239.11647  21863205.547    21863220.043
 02  4  8 20 14  0.0000000  0  7G24G23G15G30G10G 6G 5
  23498483.506    15359467.29649  11966287.43846  23498482.938    23498499.481
  21805076.058   -15899220.09049 -12045316.97847  21805075.411    21805090.951
  24557936.815    -3731597.53249  -2595820.82745  24557935.836    24557960.237
  20565647.672    -8276217.17249  -6431358.29847  20565647.818    20565659.450
  20741569.170   -16030483.26349 -12478359.40547  20741568.241    20741580.747
  21234273.587   -17946113.08749 -13975195.51947  21234273.308    21234285.590
  21879559.102     5854888.72249   4697200.27247  21879558.416    21879572.966
 02  4  8 20 14 30.0000000  0  7G24G23G15G30G10G 6G 5
  23513732.273    15439599.44949  12028727.91946  23513731.721    23513748.340
  21790374.163   -15976477.97049 -12105517.74647  21790373.539    21790389.047
  24541096.991    -3820089.73049  -2664775.48645  24541096.024    24541120.473
  20573827.846    -8233230.21049  -6397862.05747  20573827.975    20573839.627
  20743962.235   -16017907.41049 -12468560.04847  20743961.324    20743973.876
  21224108.053   -17999533.16749 -14016821.50747  21224107.776    21224120.033
  21895974.361     5941150.51949   4764417.05147  21895973.663    21895988.262
 02  4  8 20 15  0.0000000  0  7G24G23G15G30G10G 6G 5
  23528982.408    15519739.65949  12091174.66745  23528981.895    23528998.733
  21775743.979   -16053358.91549 -12165424.79547  21775743.367    21775758.877
  24524284.356    -3908439.40749  -2733619.11245  24524283.522    24524307.800
  20582112.124    -8189695.93049  -6363939.33047  20582112.270    20582123.960
  20746474.374   -16004706.27749 -12458273.45147  20746473.435    20746486.038
  21213977.476   -18052769.45449 -14058304.26547  21213977.189    21213989.459
  21912451.520     6027738.07149   4831887.67746  21912450.836    21912465.541
 02  4  8 20 15 30.0000000  0  7G24G23G15G30G10G 6G 5
  23544233.920    15599886.96349  12153626.94545  23544233.466    23544250.436
  21761186.039   -16129860.53349 -12225036.26647  21761185.415    21761200.882
  24507498.957    -3996645.81549  -2802351.11445  24507498.163    24507522.363
  20590500.265    -8145616.03149  -6329591.43747  20590500.443    20590512.188
  20749105.398   -15990880.24049 -12447499.92147  20749104.464    20749117.058
  21203882.259   -18105820.17549 -14099642.43147  21203881.978    21203894.201
  21928990.148     6114649.09649   4899610.35946  21928989.496    21929004.394
 02  4  8 20 16  0.0000000  0  7G24G23G15G30G10G 6G 5
  23559486.784    15680040.50149  12216084.06146  23559486.337    23559503.253
  21746700.722   -16205980.46249 -12284350.31947  21746700.103    21746715.496
  24490740.877    -4084708.19649  -2870970.86545  24490740.124    24490764.155
  20598992.059    -8100991.43849  -6294819.10947  20598992.254    20599004.034
  20751855.292   -15976429.58449 -12436239.67647  20751854.330    20751866.952
  21193822.681   -18158683.73649 -14140834.76147  21193822.372    21193834.566
  21945589.930     6201881.24549   4967583.28246  21945589.245    21945604.370
 02  4  8 20 16 30.0000000  0  7G24G23G15G30G10G 6G 5
  23574740.537    15760198.38649  12278544.56846  23574740.067    23574757.007
  21732288.371   -16281717.42249 -12343365.95647  21732287.761    21732303.086
  24474010.140    -4172626.79649  -2939478.58545  24474009.516    24474033.500
  20607587.069    -8055824.78949  -6259624.40447  20607587.264    20607599.067
  20754723.646   -15961356.14449 -12424494.14947  20754722.704    20754735.318
  21183798.739   -18211359.64349 -14181880.86147  21183798.432    21183810.594
  21962250.176     6289431.15549   5035803.78546  21962249.521    21962264.744
 02  4  8 20 17  0.0000000  0  7G24G23G15G30G10G 6G 5
  23589994.868    15840359.81749  12341007.85546  23589994.407    23590011.421
  21717949.313   -16357069.28549 -12402081.51647  21717948.717    21717964.010
  24457306.989    -4260401.17349  -3007873.90245  24457306.199    24457330.440
  20616284.899    -8010117.77249  -6224008.62847  20616285.093    20616296.920
  20757710.288   -15945661.26149 -12412264.38147  20757709.347    20757721.946
  21173810.796   -18263846.28849 -14222779.49147  21173810.496    21173822.678
  21978970.498     6377296.00949   5104269.68746  21978969.845    21978985.017
 02  4  8 20 17 30.0000000  0  7G24G23G15G30G10G 6G 5
  23605249.586    15920523.43049  12403472.82146  23605249.106    23605266.257
  21703683.975   -16432033.66549 -12460495.15147  21703683.373    21703698.671
  24440631.486    -4348030.75549  -3076156.41945  24440630.685    24440655.062
  20625085.254    -7963871.85049  -6187972.92647  20625085.450    20625097.349
  20760815.094   -15929345.42549 -12399550.76047  20760814.147    20760826.769
  21163859.171   -18316142.20049 -14263529.49747  21163858.875    21163871.060
  21995750.402     6465473.43249   5172979.14746  21995749.729    21995764.821
 02  4  8 20 18  0.0000000  0  7G24G23G15G30G10G 6G 5
  23620504.786    16000689.35349  12465939.57146  23620504.335    23620521.540
  21689492.826   -16506607.93749 -12518604.81447  21689492.207    21689507.508
  24423983.655    -4435514.53849  -3144325.32645  24423982.828    24424007.301
  20633988.012    -7917088.00149  -6151518.06247  20633988.207    20634000.171
  20764038.017   -15912408.81049 -12386353.41347  20764037.066    20764049.690
  21153944.236   -18368245.32049 -14304129.27347  21153943.929    21153956.105
  22012589.401     6553961.69049   5241930.82846  22012588.682    22012603.877
 02  4  8 20 18 30.0000000  0  7G24G23G15G30G10G 6G 5
  23635760.154    16080856.17749  12528407.02646  23635759.743    23635776.901
  21675376.272   -16580789.96649 -12576408.84147  21675375.630    21675391.006
  24407363.565    -4522851.94149  -3212380.18145  24407362.735    24407387.368
  20642992.789    -7869767.86049  -6114645.30647  20642992.973    20643005.011
  20767378.869   -15894852.44649 -12372673.14947  20767377.923    20767390.567
  21144066.266   -18420154.13949 -14344577.64647  21144065.978    21144078.127
  22029486.849     6642757.99149   5311122.55346  22029486.134    22029501.498
 02  4  8 20 19  0.0000000  0  7G24G23G15G30G10G 6G 5
  23651015.506    16161023.15849  12590874.59846  23651015.133    23651032.370
  21661334.770   -16654577.67349 -12633905.61147  21661334.111    21661349.508
  24390771.592    -4610042.54549  -3280320.62945  24390770.902    24390795.078
  20652099.304    -7821913.13849  -6077355.98747  20652099.489    20652111.538
  20770837.437   -15876677.53349 -12358510.89547  20770836.489    20770849.142
  21134225.538   -18471867.33249 -14384873.57347  21134225.240    21134237.345
  22046442.421     6731859.49449   5380552.09146  22046441.726    22046457.213
 02  4  8 20 19 30.0000000  0  7G24G23G15G30G10G 6G 5
  23666270.589    16241188.69249  12653341.06046  23666270.232    23666287.493
  21647368.617   -16727969.60349 -12691093.98047  21647367.959    21647383.284
  24374207.501    -4697086.28149  -3348146.63445  24374206.618    24374230.782
  20661307.179    -7773526.12949  -6039651.91447  20661307.354    20661319.380
  20774413.438   -15857885.65749 -12343867.89147  20774412.493    20774425.124
  21124422.171   -18523384.10649 -14425016.45747  21124421.867    21124433.951
  22063455.516     6821263.16349   5450217.07146  22063454.808    22063470.369
 02  4  8 20 20  0.0000000  0  7G24G23G15G30G10G 6G 5
  23681525.451    16321352.64149  12715806.28446  23681525.061    23681542.385
  21633478.364   -16800963.01249 -12747971.80047  21633477.715    21633492.901
  24357671.435    -4783982.08349  -3415857.38045  24357670.647    24357694.728
  20670616.151    -7724607.89249  -6001533.89247  20670616.320    20670628.285
  20778106.785   -15838477.13149 -12328744.37847  20778105.827    20778118.460
  21114656.578   -18574702.18949 -14465004.51347  21114656.308    21114668.346
  22080525.775     6910967.25649   5520116.15146  22080525.060    22080540.696
 02  4  8 20 20 30.0000000  0  7G24G23G15G30G10G 6G 5
  23696779.643    16401513.08549  12778268.77846  23696779.271    23696796.636
  21619664.227   -16873556.23749 -12804537.79147  21619663.589    21619678.657
  24341163.607    -4870730.00349  -3483452.89945  24341162.784    24341186.933
  20680025.767    -7675160.65449  -5963003.67047  20680025.926    20680037.868
  20781917.177   -15818453.40949 -12313141.49347  20781916.219    20781928.874
  21104928.991   -18625820.60649 -14504836.98847  21104928.722    21104940.728
  22097652.706     7000968.58149   5590246.82147  22097652.023    22097667.564
 02  4  8 20 21  0.0000000  0  7G24G23G15G30G10G 6G 5
  23712033.087    16481669.56449  12840728.19146  23712032.670    23712050.202
  21605926.622   -16945747.12849 -12860790.27547  21605925.999    21605940.992
  24324684.238    -4957329.20249  -3550932.54045  24324683.352    24324707.586
  20689535.730    -7625185.97449  -5924062.44747  20689535.892    20689547.832
  20785844.416   -15797815.45049 -12297059.97747  20785843.470    20785856.147
  21095239.712   -18676737.82649 -14544512.68447  21095239.460    21095251.414
  22114835.892     7091264.70849   5660607.19247  22114835.178    22114850.462
 02  4  8 20 21 30.0000000  0  7G24G23G15G30G10G 6G 5
  23727285.475    16561820.48749  12903183.26346  23727285.072    23727302.582
  21592265.960   -17017533.92649 -12916727.89947  21592265.316    21592280.279
  24308233.153    -5043779.79049  -3618296.36545  24308232.321    24308256.446
  20699145.625    -7574685.88049  -5884711.81147  20699145.780    20699157.735
  20789888.358   -15776564.41149 -12280500.73647  20789887.421    20789900.124
  21085588.958   -18727452.67349 -14584030.68347  21085588.711    21085600.621
  22132074.478     7181852.76749   5731195.04746  22132073.734    22132088.865
 02  4  8 20 22  0.0000000  0  7G24G23G15G30G10G 6G 5
  23742536.945    16641966.24949  12965634.29846  23742536.534    23742553.974
  21578682.747   -17088913.40349 -12972348.13747  21578682.120    21578697.062
  24291810.521    -5130080.31449  -3685543.27945  24291809.702    24291833.733
  20708855.384    -7523661.11449  -5844952.35047  20708855.527    20708867.486
  20794048.916   -15754700.32949 -12263463.80147  20794047.980    20794060.721
  21075977.266   -18777962.37649 -14623388.83347  21075977.005    21075988.926
  22149368.143     7272731.12549   5802009.11546  22149367.432    22149382.650
 02  4  8 20 22 30.0000000  0  7G24G23G15G30G10G 6G 5
  23757787.140    16722105.27249  13028080.08646  23757786.676    23757804.116
  21565177.354   -17159884.09049 -13027649.83747  21565176.709    21565191.676
  24275416.344    -5216230.67149  -3752673.17245  24275415.539    24275439.761
  20718664.519    -7472114.14849  -5804785.97547  20718664.667    20718676.624
  20798325.792   -15732225.01449 -12245950.57647  20798324.859    20798337.636
  21066404.795   -18828265.92249 -14662586.34047  21066404.542    21066416.467
  22166716.487     7363896.65149   5873046.96546  22166715.762    22166731.196
 02  4  8 20 23  0.0000000  0  7G24G23G15G30G10G 6G 5
  23773035.934    16802237.28049  13090520.41546  23773035.450    23773052.956
  21551750.258   -17230443.53249 -13082631.07547  21551749.614    21551764.533
  24259050.905    -5302229.95349  -3819685.33545  24259050.199    24259074.363
  20728572.828    -7420046.11349  -5764213.57247  20728572.967    20728584.926
  20802718.801   -15709139.41949 -12227961.80747  20802717.878    20802730.675
  21056871.931   -18878361.44849 -14701621.75447  21056871.671    21056883.585
  22184119.147     7455347.26149   5944306.95746  22184118.384    22184134.011
 02  4  8 20 23 30.0000000  0  7G24G23G15G30G10G 6G 5
  23788283.060    16882360.93149  13152954.25245  23788282.595    23788300.203
  21538401.763   -17300590.16549 -13137290.63947  21538401.125    21538415.935
  24242714.298    -5388077.96549  -3886579.62845  24242713.499    24242737.945
  20738579.852    -7367459.30549  -5723236.92947  20738579.990    20738591.964
  20807227.704   -15685444.84849 -12209498.51847  20807226.787    20807239.574
  21047378.889   -18928247.79149 -14740494.17547  21047378.603    21047390.543
  22201575.437     7547079.77449   6015786.60946  22201574.659    22201590.404
 02  4  8 20 24  0.0000000  0  7G24G23G15G30G10G 6G 5
  23803528.580    16962476.06849  13215381.43145  23803528.110    23803545.829
  21525132.383   -17370321.23349 -13191626.37947  21525131.721    21525146.391
  24226406.636    -5473773.77149  -3953355.33345  24226405.999    24226430.388
  20748685.350    -7314354.90649  -5681856.97047  20748685.494    20748697.506
  20811852.392   -15661141.82949 -12190561.11247  20811851.485    20811864.281
  21037926.034   -18977922.72249 -14779201.85747  21037925.737    21037937.707
  22219085.052     7639092.31549   6087484.44046  22219084.317    22219100.039
 02  4  8 20 24 30.0000000  0  7G24G23G15G30G10G 6G 5
  23818772.187    17042581.34749  13277800.91845  23818771.737    23818789.544
  21511942.198   -17439635.75749 -13245637.54047  21511941.533    21511956.087
  24210127.996    -5559317.66549  -4020012.66845  24210127.317    24210151.580
  20758888.832    -7260735.70349  -5640075.86847  20758888.980    20758901.023
  20816592.496   -15636232.60849 -12171151.34647  20816591.593    20816604.338
  21028513.532   -19027385.58249 -14817744.29047  21028513.233    21028525.213
  22236647.361     7731381.37149   6159397.73546  22236646.619    22236662.221
 02  4  8 20 25  0.0000000  0  7G24G23G15G30G10G 6G 5
  23834013.667    17122675.25949  13340211.56345  23834013.226    23834031.065
  21498831.550   -17508531.82649 -13299322.63147  21498830.899    21498845.377
  24193878.440    -5644709.18949  -4086551.25845  24193877.647    24193901.828
  20769189.904    -7206603.53649  -5597895.05147  20769190.049    20769202.104
  20821447.710   -15610718.61449 -12151270.31947  20821446.792    20821459.485
  21019141.608   -19076634.96049 -14856120.37147  21019141.312    21019153.265
  22254261.695     7823944.10549   6231524.29146  22254260.946    22254276.519
 02  4  8 20 25 30.0000000  0  7G24G23G15G30G10G 6G 5
  23849252.859    17202757.14349  13402612.84845  23849252.406    23849270.342
  21485800.948   -17577007.47349 -13352680.12647  21485800.290    21485814.711
  24177657.961    -5729947.90349  -4152970.75145  24177657.266    24177681.130
  20779588.260    -7151960.45649  -5555316.12347  20779588.390    20779600.433
  20826417.786   -15584600.98649 -12130918.93647  20826416.851    20826429.542
  21009810.575   -19125669.31349 -14894328.90547  21009810.271    21009822.230
  22271927.477     7916778.06549   6303862.19246  22271926.746    22271942.425
 02  4  8 20 26  0.0000000  0  7G24G23G15G30G10G 6G 5
  23864489.795    17282827.25049  13465004.97245  23864489.387    23864507.460
  21472850.845   -17645059.88749 -13405707.82947  21472850.205    21472864.608
  24161466.631    -5815032.78049  -4219270.41545  24161466.047    24161489.595
  20790083.628    -7096807.45049  -5512339.84547  20790083.754    20790095.826
  20831502.717   -15557879.84249 -12110097.28547  20831501.771    20831514.411
  21000520.961   -19174486.12849 -14932367.92947  21000520.662    21000532.600
  22289644.479     8009881.55849   6376410.10846  22289643.790    22289659.521
 02  4  8 20 26 30.0000000  0  7G24G23G15G30G10G 6G 5
  23879724.378    17362884.39249  13527386.96945  23879723.981    23879741.986
  21459981.785   -17712686.93849 -13458404.08047  21459981.134    21459995.464
  24145304.771    -5899963.03549  -4285449.60645  24145304.264    24145327.845
  20800675.667    -7041146.18049  -5468967.51247  20800675.782    20800687.898
  20836702.224   -15530556.38949 -12088806.30247  20836701.262    20836713.888
  20991273.072   -19223083.65049 -14970236.07347  20991272.784    20991284.705
  22307412.395     8103251.87849   6449165.94346  22307411.719    22307427.449
 02  4  8 20 27  0.0000000  0  7G24G23G15G30G10G 6G 5
  23894956.241    17442927.40649  13589757.95545  23894955.766    23894973.789
  21447193.883   -17779887.63849 -13510768.11247  21447193.217    21447207.447
  24129172.303    -5984738.99849  -4351508.56445  24129171.831    24129195.229
  20811363.897    -6984979.57949  -5425201.42447  20811364.012    20811376.170
  20842015.827   -15502633.28849 -12067048.06147  20842014.893    20842027.459
  20982067.051   -19271461.23849 -15007932.83847  20982066.768    20982078.664
  22325230.502     8196885.64949   6522127.07646  22325229.815    22325245.647
 02  4  8 20 27 30.0000000  0  7G24G23G15G30G10G 6G 5
  23910185.032    17522954.59849  13652116.63345  23910184.603    23910202.605
  21434487.300   -17846660.79349 -13562798.98647  21434486.614    21434500.778
  24113069.127    -6069361.28449  -4417447.75845  24113068.630    24113091.907
  20822147.808    -6928310.27049  -5381043.61947  20822147.927    20822160.069
  20847443.185   -15474112.28049 -12044823.91947  20847442.256    20847454.808
  20972903.132   -19319617.95649 -15045457.49447  20972902.832    20972914.697
  22343098.156     8290779.42849   6595290.82546  22343097.435    22343113.471
 02  4  8 20 28  0.0000000  0  7G24G23G15G30G10G 6G 5
  23925410.767    17602965.91049  13714462.91845  23925410.304    23925428.476
  21421862.540   -17913003.67049 -13614494.58347  21421861.874    21421876.015
  24096995.286    -6153828.51949  -4483266.12045  24096994.758    24097018.018
  20833027.158    -6871139.47249  -5336495.05547  20833027.275    20833039.387
  20852984.203   -15444994.15849 -12022134.49947  20852983.280    20852995.818
  20963781.695   -19367551.33349 -15082808.13047  20963781.386    20963793.245
  22361014.957     8384931.49549   6668655.80946  22361014.202    22361030.399
 02  4  8 20 28 30.0000000  0  7G24G23G15G30G10G 6G 5
  23940633.436    17682961.60749  13776797.04545  23940633.094    23940651.357
  21409320.146   -17978913.49649 -13665852.73947  21409319.487    21409333.618
  24080951.319    -6238139.21549  -4548962.52745  24080950.746    24080973.882
  20844001.761    -6813468.24149  -5291556.55147  20844001.878    20844013.944
  20858638.684   -15415279.46549 -11998980.22247  20858637.756    20858650.330
  20954703.192   -19415259.07249 -15119982.94647  20954702.881    20954714.710
  22378980.460     8479340.03249   6742220.64746  22378979.695    22378996.029
 02  4  8 20 29  0.0000000  0  7G24G23G15G30G10G 6G 5
  23955852.884    17762940.08149  13839117.75045  23955852.528    23955870.888
  21396860.320   -18044389.35349 -13716872.73947  21396859.663    21396873.787
  24064937.132    -6322293.75749  -4614537.24745  24064936.522    24064959.544
  20855070.987    -6755299.52249  -5246230.38947  20855071.105    20855083.157
  20864406.271   -15384970.48449 -11975362.85747  20864405.393    20864418.002
  20945667.789   -19462740.51649 -15156981.43347  20945667.476    20945679.277
  22396993.993     8574001.66849   6815982.70946  22396993.274    22397009.672
 02  4  8 20 29 30.0000000  0  7G24G23G15G30G10G 6G 5
  23971068.951    17842900.61649  13901424.47545  23971068.585    23971086.893
  21384483.494   -18109429.10649 -13767552.92047  21384482.841    21384496.942
  24048952.856    -6406291.65849  -4679989.89745  24048952.157    24048975.019
  20866234.527    -6696635.05049  -5200517.91747  20866234.656    20866246.740
  20870286.795   -15354068.19849 -11951283.18247  20870285.902    20870298.575
  20936675.794   -19509993.70949 -15193802.06447  20936675.491    20936687.272
  22415055.171     8668913.72049   6889939.89346  22415054.460    22415070.913
 02  4  8 20 30  0.0000000  0  7G24G23G15G30G10G 6G 5
  23986281.481    17922842.20349  13963716.44845  23986281.113    23986299.303
  21372189.976   -18174031.11949 -13817892.01247  21372189.341    21372203.419
  24032998.274    -6490132.79549  -4745320.39245  24032997.572    24033020.480
  20877491.946    -6637477.38749  -5154421.13747  20877492.063    20877504.205
  20876279.933   -15322574.27949 -11926742.48947  20876279.033    20876291.752
  20927727.529   -19557017.26149 -15230443.74147  20927727.226    20927738.979
  22433163.525     8764073.21649   6964089.87846  22433162.834    22433179.318
 02  4  8 20 30 30.0000000  0  7G24G23G15G30G10G 6G 5
  24001490.289    18002764.16649  14025993.11245  24001489.874    24001508.017
  21359980.153   -18238193.69349 -13867888.68747  21359979.514    21359993.558
  24017073.479    -6573816.89449  -4810528.54345  24017072.797    24017095.733
  20888842.834    -6577828.35749  -5107941.47747  20888842.955    20888855.147
  20882385.332   -15290490.33449 -11901742.03847  20882384.446    20882397.192
  20918823.240   -19603809.54149 -15266905.20747  20918822.930    20918834.663
  22451318.588     8859477.38849   7038430.52846  22451317.886    22451334.418
 02  4  8 20 31  0.0000000  0  7G24G23G15G30G10G 6G 5
  24016695.408    18082666.69249  14088254.62645  24016695.058    24016713.223
  21347854.479   -18301914.18549 -13917540.88247  21347853.849    21347867.882
  24001178.780    -6657342.52349  -4875613.20345  24001178.080    24001201.160
  20900287.003    -6517689.34149  -5061080.01347  20900287.132    20900299.360
  20888602.867   -15257817.32149 -11876282.57347  20888601.962    20888614.706
  20909963.337   -19650368.16049 -15303184.59847  20909963.024    20909974.794
  22469519.872     8955124.60849   7112960.55746  22469519.165    22469535.804
 02  4  8 20 31 30.0000000  0  7G24G23G15G30G10G 6G 5
  24031896.394    18162547.44849  14150499.18145  24031896.064    24031914.388
  21335812.960   -18365192.41849 -13966848.45547  21335812.345    21335826.382
  23985314.090    -6740711.10849  -4940575.49145  23985313.384    23985336.394
  20911823.674    -6457064.18149  -5013839.73547  20911823.805    20911836.105
  20894931.934   -15224558.43149 -11850366.57547  20894931.020    20894943.713
  20901147.806   -19696693.30349 -15339282.05647  20901147.507    20901159.341
  22487766.598     9051010.50649   7187676.58146  22487765.913    22487782.614
 02  4  8 20 32  0.0000000  0  7G24G23G15G30G10G 6G 5
  24047093.315    18242406.93349  14212727.17045  24047092.974    24047111.377
  21323856.161   -18428025.22249 -14015808.94247  21323855.522    21323869.592
  23969479.728    -6823920.60249  -5005413.79245  23969479.036    23969502.030
  20923452.677    -6395953.54049  -4966221.16747  20923452.825    20923465.171
  20901372.422   -15190713.72749 -11823994.09847  20901371.492    20901384.156
  20892377.325   -19742781.91149 -15375195.20947  20892377.039    20892388.908
  22506058.552     9147133.83649   7262577.60546  22506057.840    22506074.651
 02  4  8 20 32 30.0000000  0  7G24G23G15G30G10G 6G 5
  24062285.823    18322243.69949  14274937.41945  24062285.476    24062303.826
  21311984.317   -18490411.52149 -14064421.50547  21311983.671    21311997.739
  23953675.461    -6906971.55149  -5070128.56945  23953674.766    23953697.698
  20935173.555    -6334360.28049  -4918226.53747  20935173.701    20935186.068
  20907923.905   -15156285.43949 -11797166.88647  20907922.956    20907935.596
  20883652.056   -19788632.89049 -15410923.19547  20883651.779    20883663.661
  22524394.913     9243491.19849   7337661.00746  22524394.136    22524411.189
 02  4  8 20 33  0.0000000  0  7G24G23G15G30G10G 6G 5
  24077474.062    18402057.65349  14337129.91645  24077473.752    24077491.994
  21300197.858   -18552348.99349 -14112684.33347  21300197.231    21300211.259
  23937901.619    -6989862.76549  -5134718.87845  23937900.946    23937923.687
  20946986.007    -6272285.75849  -4869856.90247  20946986.173    20946998.527
  20914586.202   -15121274.66949 -11769885.78647  20914585.244    20914597.858
  20874972.499   -19834243.83149 -15446464.13347  20874972.238    20874984.077
  22542775.213     9340080.54449   7412925.17946  22542774.512    22542791.819
 02  4  8 20 33 30.0000000  0  7G24G23G15G30G10G 6G 5
  24092657.963    18481848.35149  14399304.28645  24092657.710    24092675.867
  21288497.115   -18613836.17349 -14160596.28347  21288496.501    21288510.469
  23922158.231    -7072594.17049  -5199184.63145  23922157.486    23922179.988
  20958889.654    -6209732.28049  -4821114.06447  20958889.812    20958902.118
  20921359.062   -15085682.88449 -11742151.94947  20921358.125    20921370.744
  20866338.946   -19879613.48349 -15481817.05447  20866338.674    20866350.410
  22561199.414     9436899.11249   7488367.93646  22561198.736    22561216.044
 02  4  8 20 34  0.0000000  0  7G24G23G15G30G10G 6G 5
  24107837.079    18561613.89449  14461459.08445  24107836.742    24107855.051
  21276882.218   -18674872.29149 -14208156.74847  21276881.622    21276895.498
  23906445.066    -7155166.30249  -5263526.28445  23906444.263    23906466.751
  20970883.779    -6146703.19149  -4772000.61547  20970883.939    20970896.246
  20928241.983   -15049512.87249 -11713967.54747  20928241.030    20928253.672
  20857751.455   -19924741.29749 -15516981.53247  20857751.179    20857762.788
  22579666.641     9533943.17549   7563986.39346  22579665.932    22579683.051
 02  4  8 20 34 30.0000000  0  7G24G23G15G30G10G 6G 5
  24123011.133    18641354.27349  14523594.28745  24123010.797    24123029.512
  21265353.642   -18735454.73549 -14255363.70547  21265353.063    21265366.904
  23890762.321    -7237577.93049  -5327742.89645  23890761.520    23890784.072
  20982968.116    -6083199.62649  -4722517.43147  20982968.273    20982980.698
  20935234.773   -15012765.61149 -11685333.34147  20935233.829    20935246.463
  20849210.457   -19969624.74849 -15551955.59947  20849210.172    20849221.693
  22598176.300     9631210.85549   7639779.10146  22598175.588    22598192.655
 02  4  8 20 35  0.0000000  0  7G24G23G15G30G10G 6G 5
  24138180.609    18721070.18149  14585710.38645  24138180.315    24138199.234
  21253911.963   -18795580.52049 -14302214.83547  21253911.383    21253925.227
  23875110.398    -7319827.55949  -5391833.26845  23875109.635    23875132.214
  20995142.525    -6019222.63049  -4672665.33547  20995142.685    20995155.274
  20942337.358   -14975441.47149 -11656249.62547  20942336.422    20942349.076
  20840716.533   -20014260.77749 -15586736.87847  20840716.232    20840727.719
  22616728.231     9728700.77549   7715744.97146  22616727.554    22616744.614
 02  4  8 20 35 30.0000000  0  7G24G23G15G30G10G 6G 5
  24153345.065    18800758.01049  14647804.59845  24153344.766    24153363.411
  21242556.904   -18855251.35649 -14348711.44447  21242556.334    21242570.167
  23859489.064    -7401917.75749  -5455799.40945  23859488.329    23859510.794
  21007406.060    -5954777.67549  -4622448.58247  21007406.225    21007418.929
  20949548.854   -14937544.93649 -11626719.86947  20949547.920    20949560.592
  20832269.344   -20058650.82349 -15621326.46847  20832269.031    20832280.574
  22635321.471     9826407.10649   7791879.48646  22635320.803    22635337.857
 02  4  8 20 36  0.0000000  0  7G24G23G15G30G10G 6G 5
  24168504.445    18880418.93749  14709877.82445  24168504.092    24168522.285
  21231289.043   -18914464.01649 -14394851.04447  21231288.465    21231302.267
  23843898.398    -7483846.61649  -5519639.81045  23843897.644    23843919.919
  21019758.623    -5889865.44049  -4571867.73447  21019758.753    21019771.462
  20956869.245   -14899076.29149 -11596744.32247  20956868.292    20956880.998
  20823869.512   -20102791.89349 -15655722.06047  20823869.225    20823880.821
  22653955.569     9924328.72449   7868181.76846  22653954.873    22653972.086
 02  4  8 20 36 30.0000000  0  7G24G23G15G30G10G 6G 5
  24183658.347    18960052.41949  14771929.70845  24183657.882    24183676.163
  21220108.753   -18973216.40949 -14440631.99647  21220108.165    21220121.922
  23828338.401    -7565613.46049  -5583353.97045  23828337.635    23828359.950
  21032199.719    -5824487.80649  -4520924.24247  21032199.861    21032212.513
  20964298.105   -14860037.27149 -11566324.33447  20964297.149    20964309.902
  20815517.460   -20146681.74849 -15689921.90547  20815517.167    20815528.874
  22672630.028    10022463.20749   7944649.92546  22672629.345    22672646.911
 02  4  8 20 37  0.0000000  0  7G24G23G15G30G10G 6G 5
  24198806.628    19039658.16449  14833960.00945  24198806.225    24198825.042
  21209016.393   -19031506.55349 -14486052.76347  21209015.804    21209029.514
  23812809.329    -7647217.44149  -5646941.24745  23812808.606    23812830.990
  21044729.049    -5758646.45949  -4469619.42247  21044729.187    21044741.803
  20971835.263   -14820429.19849 -11535460.93747  20971834.311    20971847.107
  20807213.587   -20190318.35249 -15723924.41047  20807213.306    20807225.091
  22691344.805    10120808.44849   8021282.29046  22691344.129    22691361.797
 02  4  8 20 37 30.0000000  0  7G24G23G15G30G10G 6G 5
  24213949.756    19119235.15449  14895967.84845  24213949.380    24213968.467
  21198012.146   -19089333.27049 -14531112.42447  21198011.572    21198025.306
  23797311.269    -7728658.60449  -5710401.63645  23797310.635    23797332.933
  21057346.038    -5692344.18849  -4417955.44447  21057346.182    21057358.773
  20979480.302   -14780254.19049 -11504155.77047  20979479.379    20979492.122
  20798958.085   -20233700.62649 -15757728.73248  20798957.831    20798969.694
  22710099.152    10219361.17549   8098076.32746  22710098.455    22710116.130
 02  4  8 20 38  0.0000000  0  7G24G23G15G30G10G 6G 5
  24229087.401    19198781.71449  14957951.99045  24229087.041    24229105.927
  21187096.287   -19146696.10849 -14575810.62047  21187095.719    21187109.391
  23781844.285    -7809937.93949  -5773735.95045  23781843.593    23781865.742
  21070050.070    -5625584.35849  -4365934.92347  21070050.208    21070062.825
  20987232.730   -14739515.12249 -11472411.08547  20987231.802    20987244.497
  20790751.156   -20276827.76049 -15791334.24648  20790750.913    20790762.835
  22728892.164    10318117.65849   8175029.12246  22728891.445    22728909.045
 02  4  8 20 38 30.0000000  0  7G24G23G15G30G10G 6G 5
  24244219.028    19278297.75949  15019912.34445  24244218.667    24244237.250
  21176269.143   -19203593.04749 -14620145.77447  21176268.554    21176282.157
  23766408.197    -7891054.40149  -5836943.33745  23766407.448    23766429.602
  21082840.817    -5558368.82749  -4313559.30547  21082840.963    21082853.643
  20995092.294   -14698213.36149 -11440227.93447  20995091.361    20995103.977
  20782593.228   -20319697.70649 -15824739.35548  20782592.990    20782604.906
  22747723.570    10417075.78849   8252139.03346  22747722.878    22747740.257
 02  4  8 20 39  0.0000000  0  7G24G23G15G30G10G 6G 5
  24259344.415    19357784.04449  15081849.52345  24259344.066    24259363.018
  21165531.117   -19260021.42449 -14664115.81147  21165530.508    21165544.044
  23751003.122    -7972006.82549  -5900022.92045  23751002.385    23751024.599
  21095718.019    -5490698.87649  -4260829.58847  21095718.178    21095730.945
  21003058.780   -14656349.57149 -11407606.83947  21003057.825    21003070.391
  20774484.831   -20362307.62349 -15857941.84848  20774484.593    20774496.437
  22766593.044    10516233.89249   8329404.79146  22766592.305    22766609.667
 02  4  8 20 39 30.0000000  0  7G24G23G15G30G10G 6G 5
  24274464.190    19437239.57649  15143762.73645  24274463.818    24274482.960
  21154882.517   -19315979.72949 -14707719.56747  21154881.910    21154895.390
  23735629.392    -8052794.50749  -5962974.13945  23735628.646    23735650.915
  21108681.280    -5422576.79849  -4207747.57347  21108681.444    21108694.244
  21011131.845   -14613925.66649 -11374549.28947  21011130.897    21011143.448
  20766426.293   -20404655.83549 -15890940.41948  20766426.042    20766437.767
  22785499.869    10615589.30649   8406824.31546  22785499.097    22785516.694
 02  4  8 20 40  0.0000000  0  7G24G23G15G30G10G 6G 5
  24289578.432    19516662.74349  15205650.71345  24289577.984    24289597.067
  21144323.368   -19371467.77449 -14750956.88447  21144322.760    21144336.237
  23720287.019    -8133418.63649  -6025797.88045  23720286.228    23720308.384
  21121729.912    -5354006.30549  -4154316.14747  21121730.080    21121742.852
  21019310.850   -14570944.62149 -11341057.59747  21019309.904    21019322.559
  20758417.627   -20446742.08349 -15923734.85848  20758417.357    20758428.975
  22804443.458    10715137.82549   8484394.28946  22804442.682    22804460.501
 02  4  8 20 40 30.0000000  0  7G24G23G15G30G10G 6G 5
  24304686.265    19596052.24549  15267512.45045  24304685.816    24304704.781
  21133853.833   -19426484.84549 -14793827.21347  21133853.208    21133866.703
  23704975.872    -8213879.56649  -6088494.45445  23704975.028    23704997.078
  21134863.327    -5284990.53549  -4100537.76747  21134863.498    21134876.232
  21027595.312   -14527409.23349 -11307133.95247  21027594.369    21027607.127
  20750458.990   -20488565.30449 -15956324.33948  20750458.716    20750470.244
  22823423.379    10814876.38849   8562112.32246  22823422.603    22823440.396
 02  4  8 20 41  0.0000000  0  7G24G23G15G30G10G 6G 5
  24319787.249    19675408.16749  15329348.05245  24319786.812    24319805.921
  21123474.307   -19481028.97049 -14836329.02047  21123473.674    21123487.189
  23689695.685    -8294176.62049  -6151063.35945  23689694.826    23689716.897
  21148081.084    -5215531.33349  -4046413.84747  21148081.248    21148094.026
  21035985.033   -14483321.04649 -11272779.55147  21035984.091    21035996.867
  20742550.753   -20530123.36249 -15988707.19848  20742550.461    20742561.972
  22842439.077    10914802.82349   8639976.75346  22842438.288    22842456.103
 02  4  8 20 41 30.0000000  0  7G24G23G15G30G10G 6G 5
  24334881.746    19754731.42249  15391158.20645  24334881.393    24334900.674
  21113185.392   -19535096.92149 -14878459.78847  21113184.767    21113198.318
  23674446.949    -8374307.76849  -6213502.98045  23674446.203    23674468.154
  21161383.055    -5145629.23749  -3991944.80947  21161383.239    21161396.139
  21044479.975   -14438680.16049 -11237994.48547  21044479.020    21044491.790
  20734693.657   -20571412.67649 -16020880.65248  20734693.351    20734704.870
  22861490.240    11014916.15449   8717986.82046  22861489.490    22861507.521
 02  4  8 20 42  0.0000000  0  8G24G23G15G26G30G10G 6G 5
  24349969.529    19834017.15349  15452939.09545  24349969.087    24349988.225
  21102986.492   -19588691.84949 -14920221.97047  21102985.907    21102999.454
  23659229.044    -8454277.04249  -6275816.45945  23659228.298    23659250.239
  24453294.050    -3664396.00049  -2821230.05645  24453294.158    24453322.011
  21174767.956    -5075291.25749  -3937136.11447  21174768.153    21174781.199
  21053078.853   -14393493.25549 -11202783.94947  21053077.887    21053090.613
  20726887.053   -20612436.32249 -16052847.08948  20726886.745    20726898.303
  22880575.607    11115208.92449   8796136.71346  22880574.837    22880593.041
 02  4  8 20 42 30.0000000  0  8G24G23G15G26G30G10G 6G 5
  24365050.480    19913266.29749  15514691.46345  24365050.056    24365069.096
  21092878.235   -19641810.74249 -14961613.21547  21092877.645    21092891.152
  23644042.408    -8534082.48849  -6338002.28845  23644041.640    23644063.436
  24435999.508    -3755278.77449  -2892047.27245  24435999.620    24436027.183
  21188235.695    -5004518.23049  -3881988.42447  21188235.879    21188249.021
  21061781.625   -14347760.36349 -11167147.97247  21061780.653    21061793.347
  20719131.648   -20653190.97149 -16084603.92048  20719131.334    20719142.949
  22899694.847    11215679.88649   8874425.43546  22899694.081    22899712.246
 02  4  8 20 43  0.0000000  0  8G24G23G15G26G30G10G 6G 5
  24380125.124    19992482.89849  15576418.48845  24380124.621    24380143.848
  21082861.746   -19694447.57249 -15002628.81847  21082861.159    21082874.586
  23628887.805    -8613719.40549  -6400056.77445  23628886.963    23628908.822
  24418706.671    -3846152.29349  -2962857.29845  24418706.801    24418733.972
  21201786.596    -4933308.08249  -3826500.12447  21201786.788    21201799.979
  21070588.694   -14301479.13849 -11131084.71747  21070587.726    21070600.434
  20711428.617   -20693670.24449 -16116146.17048  20711428.317    20711439.994
  22918848.225    11316330.98949   8952854.52846  22918847.442    22918865.577
 02  4  8 20 43 30.0000000  0  8G24G23G15G26G30G10G 6G 5
  24395192.071    20071660.19449  15638114.88245  24395191.520    24395211.089
  21072936.008   -19746607.51549 -15043272.82247  21072935.401    21072948.734
  23613764.056    -8693193.96849  -6461984.76545  23613763.123    23613785.039
  24401414.683    -3937019.69349  -3033662.58845  24401414.873    24401441.818
  21215418.991    -4861669.70249  -3770678.15447  21215419.191    21215432.331
  21079498.421   -14254658.07749 -11094600.81747  21079497.458    21079510.243
  20703777.112   -20733878.82649 -16147477.50148  20703776.814    20703788.514
  22938033.908    11417153.15449   9031416.93246  22938033.140    22938051.515
 02  4  8 20 44  0.0000000  0  9G24G23G18G15G26G30G10G 6G 5
  24410252.942    20150804.31549  15699785.45345  24410252.393    24410271.944
  21063102.550   -19798282.39249 -15083538.84047  21063101.908    21063115.162
                  -1261443.37049   -290194.61043
  23598672.595    -8772498.90749  -6523780.57445  23598671.641    23598693.550
  24384125.615    -4027870.91249  -3104455.23445  24384126.072    24384152.839
  21229133.757    -4789598.67749  -3714519.06647  21229133.956    21229147.040
  21088511.834   -14207292.12249 -11057692.32347  21088510.898    21088523.748
  20696178.767   -20773808.23349 -16178591.28848  20696178.484    20696190.147
  22957253.199    11518150.54849   9110115.85746  22957252.464    22957271.018
 02  4  8 20 44 30.0000000  0  9G24G23G18G15G26G30G10G 6G 5
  24425306.563    20229910.77749  15761426.67445  24425306.072    24425325.552
  21053360.825   -19849474.93049 -15123429.01447  21053360.212    21053373.379
                  -1373487.01249   -377504.23943
  23583612.706    -8851638.19849  -6585447.29045  23583611.786    23583633.633
  24366839.890    -4118706.97849  -3175236.05945  24366840.298    24366867.144
  21242929.658    -4717101.61449  -3658027.99547  21242929.835    21242942.869
  21097627.747   -14159387.67549 -11020364.22547  21097626.817    21097639.678
  20688633.144   -20813461.02849 -16209489.53248  20688632.838    20688644.456
  22976504.752    11619316.27549   9188945.93646  22976504.046    22976522.592
 02  4  8 20 45  0.0000000  0  9G24G23G18G15G26G30G10G 6G 5
  24440352.944    20308980.35449  15823039.17945  24440352.426    24440372.197
  21043711.402   -19900182.56549 -15162941.33847  21043710.802    21043723.914
                  -1485482.19749   -464779.20443
  23568584.637    -8930610.25849  -6646983.69045  23568583.749    23568605.518
  24349557.854    -4209523.36749  -3246001.53845  24349558.183    24349585.124
  21256806.403    -4644179.87649  -3601205.99647  21256806.539    21256819.636
  21106846.047   -14110945.65549 -10982617.23347  21106845.105    21106857.904
  20681140.677   -20852834.26049 -16240169.92948  20681140.374    20681151.904
  22995788.107    11720648.74149   9267905.93946  22995787.377    22995805.885
 02  4  8 20 45 30.0000000  0  9G24G23G18G15G26G30G10G 6G 5
  24455392.469    20388013.93849  15884623.63545  24455392.064    24455411.957
  21034154.680   -19950402.78949 -15202073.88047  21034154.068    21034167.179
                  -1597425.08449   -212822.92143
  23553588.720    -9009413.40449  -6708388.48045  23553587.861    23553609.592
  24332280.232    -4300315.22249  -3316747.90345  24332280.383    24332307.177
  21270763.643    -4570834.37449  -3544053.78047  21270763.766    21270777.108
  21116166.500   -14061966.73449 -10944451.88347  21116165.543    21116178.272
  20673702.019   -20891924.74649 -16270630.01048  20673701.724    20673713.183
  23015102.852    11822146.69649   9346994.90846  23015102.077    23015120.732
 02  4  8 20 46  0.0000000  0  9G24G23G18G15G26G30G10G 6G 5
  24470425.315    20467010.71749  15946179.39745  24470424.747    24470444.594
  21024690.861   -20000134.88749 -15240826.06247  21024690.270    21024703.401
                  -1709313.84349   -300009.34543
  23538624.948    -9088048.03649  -6769661.95645  23538624.110    23538645.759
  24315007.997    -4391080.16349  -3387473.30245  24315008.150    24315034.336
  21284800.884    -4497068.49449  -3486573.98747  21284801.009    21284814.570
  21125588.622   -14012453.56749 -10905870.24447  21125587.620    21125600.309
  20666317.315   -20930731.42349 -16300868.94048  20666316.997    20666328.420
  23034448.291    11923807.01649   9426210.40346  23034447.453    23034466.549
 02  4  8 20 46 30.0000000  0  9G24G23G18G15G26G30G10G 6G 5
  24485450.614    20545967.19649  16007703.73145  24485450.174    24485469.391
  21015319.749   -20049380.09549 -15279198.84247  21015319.157    21015332.258
                  -1821148.83049   -387152.85543
  23523692.841    -9166516.44449  -6830805.91345  23523691.977    23523713.565
  24297741.250    -4481817.14949  -3458176.87445  24297741.275    24297767.020
  21298917.238    -4422886.97449  -3428770.32647  21298917.376    21298931.059
  21135111.453   -13962410.60349 -10866875.77147  21135110.487    21135123.195
  20658986.483   -20969255.12749 -16330887.37248  20658986.162    20658997.560
  23053823.578    12025624.49249   9505548.37245  23053822.790    23053842.208
 02  4  8 20 47  0.0000000  0  9G24G23G18G15G26G30G10G 6G 5
  24500468.533    20624886.09949  16069198.81445  24500468.228    24500487.196
  21006042.114   -20098134.18749 -15317188.92747  21006041.530    21006054.567
                  -1932924.88149   -474250.47944                  24615833.794
  23508792.930    -9244815.40449  -6891817.82045  23508792.003    23508813.531
  24280480.688    -4572520.18649  -3528854.00845  24280480.664    24280506.374
  21313112.790    -4348289.62649  -3370642.66547  21313112.929    21313126.548
  21144735.263   -13911837.05949 -10827467.86047  21144734.295    21144747.072
  20651710.324   -21007491.25549 -16360681.71948  20651710.019    20651721.404
  23073228.935    12127599.15749   9585008.79545  23073228.146    23073247.627
 02  4  8 20 47 30.0000000  0  9G24G23G18G15G26G30G10G 6G 5
  24515478.733    20703765.79949  16130663.37245  24515478.568    24515497.715
  20996857.856   -20146397.36249 -15354796.48747  20996857.268    20996870.287
  24594550.378    -2044641.05849   -561301.52845  24594549.857    24594575.447
  23493924.925    -9322945.98849  -6952698.55445  23493924.045    23493945.430
  24263226.701    -4663187.14949  -3599503.08145  24263226.700    24263252.776
  21327386.701    -4273280.36349  -3312194.03947  21327386.837    21327400.337
  21154459.319   -13860736.65449 -10787649.39947  21154458.343    21154471.195
  20644488.933   -21045439.54149 -16390251.77348  20644488.618    20644500.020
  23092663.436    12229726.87949   9664588.48345  23092662.672    23092681.961
 02  4  8 20 48  0.0000000  0  9G24G23G18G15G26G30G10G 6G 5
  24530481.686    20782605.94849  16192097.10845  24530481.450    24530501.103
  20987767.270   -20194168.21449 -15392020.42647  20987766.682    20987779.682
  24573303.046    -2156294.80849   -648303.91545  24573301.577    24573328.729
  23479089.048    -9400907.63249  -7013447.62745  23479088.256    23479109.526
  24245980.236    -4753814.66349  -3670121.38445  24245980.168    24246006.405
  21341738.567    -4197861.48549  -3253426.24447  21341738.701    21341752.106
  21164283.251   -13809111.44349 -10747422.00747  21164282.322    21164295.239
  20637322.694   -21083097.96049 -16419595.96148  20637322.379    20637333.794
  23112126.580    12332005.31449   9744285.59345  23112125.917    23112145.060
 02  4  8 20 48 30.0000000  0  9G24G23G18G15G26G30G10G 6G 5
  24545476.968    20861404.72549  16253498.60745  24545476.690    24545496.472
  20978770.339   -20241446.86049 -15428860.82247  20978769.750    20978782.796
  24552067.751    -2267885.02749   -735256.81945  24552066.148    24552093.860
  23464285.266    -9478701.35549  -7074065.85945  23464284.464    23464305.658
  24228741.949    -4844400.58149  -3740707.28845  24228742.002    24228767.974
  21356167.672    -4122036.82749  -3194342.23547  21356167.812    21356181.198
  21174206.552   -13756964.58749 -10706788.11847  21174205.603    21174218.574
  20630211.679   -21120466.20249 -16448714.02248  20630211.392    20630222.811
  23131617.692    12434430.30149   9824096.90445  23131617.064    23131636.111
 02  4  8 20 49  0.0000000  0  9G24G23G18G15G26G30G10G 6G 5
  24560464.311    20940162.55449  16314868.18645  24560463.934    24560483.932
  20969867.436   -20288231.30049 -15465316.14947  20969866.853    20969879.906
  24530845.004    -2379408.57749   -822157.76445  24530843.432    24530871.397
  23449513.671    -9556326.02849  -7134552.37445  23449512.821    23449533.933
  24211512.465    -4934940.80049  -3811257.58645  24211512.420    24211537.908
  21370673.717    -4045808.09949  -3134943.38347  21370673.830    21370687.256
  21184228.791   -13704297.53849 -10665748.91447  21184227.854    21184240.834
  20623156.400   -21157541.66149 -16477603.96448  20623156.126    20623167.548
  23151136.498    12537000.04749   9904020.99845  23151135.832    23151154.719
 02  4  8 20 49 30.0000000  0  9G24G23G18G15G26G30G10G 6G 5
  24575443.409    21018878.93749  16376205.46745  24575443.045    24575463.099
  20961058.770   -20334520.63649 -15501385.67247  20961058.182    20961071.234
  24509634.944    -2490863.41849   -909005.19245  24509633.456    24509661.884
  23434774.082    -9633781.82149  -7194907.27345  23434773.215    23434794.351
  24194292.051    -5025432.19649  -3881769.85145  24194291.802    24194317.433
  21385256.133    -3969178.16149  -3075231.88847  21385256.215    21385269.651
  21194349.556   -13651112.90449 -10624306.38947  21194348.628    21194361.563
  20616157.154   -21194322.87049 -16506264.61148  20616156.882    20616168.307
  23170682.041    12639711.60849   9984055.62445  23170681.322    23170700.450
 02  4  8 20 50  0.0000000  0  9G24G23G18G15G26G30G10G 6G 5
  24590414.721    21097554.20349  16437510.71245  24590414.400    24590434.488
  20952344.756   -20380312.55049 -15537067.59247  20952344.154    20952357.207
  24488438.730    -2602246.22849   -995796.49744  24488437.457    24488465.850
  23420066.722    -9711067.51749  -7255129.64945  23420065.936    23420087.047
  24177081.696    -5115870.47549  -3952240.74645  24177081.415    24177107.358
  21399914.484    -3892148.73649  -3015209.09547  21399914.567    21399928.057
  21204568.654   -13597411.56549 -10582461.23647  21204567.713    21204580.612
  20609214.364   -21230807.09349 -16534693.84048  20609214.088    20609225.573
  23190254.139    12742563.44949  10064199.58145  23190253.491    23190273.078
 02  4  8 20 50 30.0000000  0  9G24G23G18G15G26G30G10G 6G 5
  24605378.268    21176186.74749  16498782.65345  24605377.890    24605397.892
  20943725.296   -20425607.62049 -15572362.36547  20943724.681    20943737.717
  24467256.974    -2713556.33049  -1082531.09245  24467256.011    24467283.119
  23405391.613    -9788184.34449  -7315220.41245  23405390.826    23405411.887
  24159882.219    -5206253.88949  -4022668.91445  24159881.942    24159907.619
  21414648.001    -3814723.81649  -2954878.12347  21414648.067    21414661.625
  21214885.274   -13543197.48249 -10540216.54547  21214884.331    21214897.242
  20602328.161   -21266994.25149 -16562891.59448  20602327.885    20602339.402
  23209852.380    12845551.37949  10144449.55745  23209851.744    23209871.618
 02  4  8 20 51  0.0000000  0  9G24G23G18G15G26G30G10G 6G 5
  24620333.643    21254775.75749  16560020.66845  24620333.217    24620353.247
  20935200.598   -20470405.13749 -15607269.42847  20935199.973    20935212.921
  24446089.601    -2824791.73449  -1169207.48245  24446088.734    24446114.781
  23390748.765    -9865132.49349  -7375179.75545  23390747.912    23390768.868
  24142693.450    -5296579.15949  -4093051.75945  24142693.203    24142718.741
  21429456.257    -3736906.31349  -2894241.25847  21429456.356    21429469.923
  21225298.928   -13488473.32349 -10497574.39347  21225297.992    21225310.951
  20595498.758   -21302882.79149 -16590856.66048  20595498.473    20595510.032
  23229476.025    12948672.39849  10224803.22645  23229475.398    23229495.265
 02  4  8 20 51 30.0000000  0  9G24G23G18G15G26G30G10G 6G 5
  24635280.672    21333322.13449  16621225.48345  24635280.171    24635300.519
  20926770.957   -20514703.14649 -15641787.25147  20926770.328    20926783.170
  24424936.850    -2935948.90549  -1255822.90645  24424936.010    24424961.974
  23376138.180    -9941910.49749  -7435006.50145  23376137.378    23376158.284
  24125516.191    -5386842.09249  -4163386.05745  24125515.884    24125541.549
  21444338.957    -3658697.99249  -2833299.86247  21444339.053    21444352.536
  21235809.458   -13433239.99549 -10454535.48347  21235808.546    21235821.527
  20588726.708   -21338470.00049 -16618586.92448  20588726.451    20588738.007
  23249124.691    13051924.66249  10305259.13645  23249124.065    23249143.781
 02  4  8 20 52  0.0000000  0  9G24G23G18G15G26G30G10G 6G 5
  24650219.238    21411825.82449  16682397.00345  24650218.869    24650239.340
  20918436.731   -20558499.91949 -15675914.50947  20918436.088    20918448.864
  24403799.348    -3047025.22849  -1342375.40945  24403798.573    24403824.910
  23361560.064   -10018517.58749  -7494700.08145  23361559.270    23361580.224
  24108351.972    -5477038.80149  -4233668.77345  24108351.716    24108376.861
  21459295.691    -3580100.73049  -2772055.41047  21459295.768    21459309.176
  21246416.604   -13377499.30749 -10411101.24047  21246415.702    21246428.689
  20582012.439   -21373753.73449 -16646080.71448  20582012.180    20582023.739
  23268797.865    13155305.85849  10385815.52145  23268797.246    23268816.725
 02  4  8 20 52 30.0000000  0  9G24G23G18G15G26G30G10G 6G 5
  24665149.766    21490285.96949  16743534.57845  24665149.381    24665169.727
  20910197.940   -20601794.72549 -15709650.63247  20910197.292    20910210.041
  24382677.353    -3158018.63149  -1428863.27845  24382676.546    24382703.349
  23347014.375   -10094953.94749  -7554260.63845  23347013.589    23347034.596
  24091201.221    -5567166.18149  -4303897.46645  24091200.919    24091226.082
  21474325.781    -3501117.79049  -2710510.42647  21474325.873    21474339.294
  21257119.774   -13321254.19249 -10367273.93647  21257118.843    21257131.806
  20575356.185   -21408732.54049 -16673336.89948  20575355.927    20575367.445
  23288494.922    13258812.94249  10466470.02445  23288494.271    23288513.858
 02  4  8 20 53  0.0000000  0  9G24G23G18G15G26G30G10G 6G 5
  24680072.007    21568701.13049  16804637.09545  24680071.561    24680091.747
  20902054.639   -20644587.73849 -15742995.75047  20902053.999    20902066.765
  24361571.221    -3268928.15249  -1515285.79845  24361570.616    24361597.713
  23332501.145   -10171220.69149  -7613689.00345  23332500.396    23332521.267
  24074063.519    -5657222.13249  -4374070.51045  24074063.315    24074088.988
  21489428.468    -3421752.83249  -2648667.75347  21489428.568    21489442.100
  21267918.316   -13264507.99649 -10323056.17547  21267917.367    21267930.291
  20568758.085   -21443405.88949 -16700355.06348  20568757.825    20568769.314
  23308215.065    13362442.15849  10547219.70245  23308214.379    23308234.309
 02  4  8 20 53 30.0000000  0  9G24G23G18G15G26G30G10G 6G 5
  24694985.617    21647071.72749  16865704.91445  24694985.247    24695005.606
  20894007.139   -20686877.43449 -15775948.67947  20894006.490    20894019.221
  24340482.109    -3379750.53049  -1601640.37745  24340481.525    24340508.627
  23318020.337   -10247317.06449  -7672984.61545  23318019.621    23318040.258
  24056940.398    -5747202.54949  -4444184.71445  24056940.207    24056965.933
  21504603.464    -3342007.95749  -2586529.04447  21504603.523    21504617.220
  21278811.821   -13207262.47349 -10278449.32547  21278810.866    21278823.755
  20562218.595   -21477771.22049 -16727133.21548  20562218.323    20562229.779
  23327958.216    13466191.58449  10628063.04145  23327957.600    23327977.698
 02  4  8 20 54  0.0000000  0  9G24G23G18G15G26G30G10G 6G 5
  24709890.192    21725397.21249  16926737.57345  24709890.169    24709910.836
  20886055.611   -20728663.07349 -15808508.83047  20886054.945    20886067.596
  24319410.278    -3490484.02849  -1687925.67545  24319409.633    24319436.337
  23303571.958   -10323242.87449  -7732147.29745  23303571.304    23303591.807
  24039832.636    -5837104.09449  -4514237.46545  24039832.311    24039857.580
  21519850.027    -3261886.11749  -2524096.59447  21519850.128    21519864.024
  21289799.846   -13149520.07649 -10233455.30847  21289798.879    21289811.798
  20555737.957   -21511827.07749 -16753670.21548  20555737.679    20555749.084
  23347723.671    13570058.34949  10708997.79045  23347723.017    23347743.249
 02  4  8 20 54 30.0000000  0  9G24G23G18G15G26G30G10G 6G 5
  24724786.322    21803677.65849  16987735.16345  24724785.187    24724808.614
  20878200.199   -20769943.28149 -15840675.12847  20878199.513    20878212.090
  24298355.847    -3601125.70249  -1774139.42945  24298355.179    24298381.301
  23289156.168   -10398997.38449  -7791176.51845  23289155.484    23289175.944
  24022740.611    -5926923.08949  -4584225.87445  24022740.323    24022764.984
  21535167.990    -3181389.41949  -2461372.06347  21535168.143    21535182.148
  21300882.001   -13091282.95949 -10188075.79647  21300881.087    21300894.020
  20549316.619   -21545571.41149 -16779964.46648  20549316.334    20549327.707
  23367510.875    13674039.98949  10790022.06045  23367510.239    23367530.611
 02  4  8 20 55  0.0000000  0  9G24G23G18G15G26G30G10G 6G 5
  24739674.131    21881912.78549  17048697.41445  24739674.010    24739696.578
  20870441.086   -20810717.51249 -15872447.15347  20870440.405    20870452.873
  24277318.854    -3711673.67649  -1860280.20645  24277318.254    24277344.078
  23274772.947   -10474580.67849  -7850072.32445  23274772.310    23274792.717
  24005664.677    -6016656.42149  -4654147.58145  24005664.445    24005689.013
  21550556.858    -3100521.05749  -2398357.92647  21550557.019    21550571.062
  21312057.865   -13032553.63549 -10142312.75547  21312056.970    21312069.903
  20542954.760   -21579002.97049 -16806015.00548  20542954.489    20542965.832
  23387319.672    13778133.49549  10871133.47846  23387318.995    23387339.345
 02  4  8 20 55 30.0000000  0  9G24G23G18G15G26G30G10G 6G 5
  24754553.302    21960101.39649  17109623.39645  24754553.150    24754575.153
  20862778.379   -20850984.93449 -15903824.26547  20862777.700    20862790.088
  24256299.711    -3822125.91149  -1946346.37745  24256299.175    24256325.082
  23260422.304   -10549992.84149  -7908834.78145  23260421.656    23260442.003
  23988605.273    -6106300.86649  -4724000.03845  23988605.285    23988629.791
  21566016.034    -3019283.72649  -2335056.28047  21566016.187    21566030.287
  21323326.970   -12973334.50149 -10096168.04447  21323326.048    21323338.986
  20536652.727   -21612120.16949 -16831820.58347  20536652.451    20536663.781
  23407149.273    13882336.09149  10952329.90446  23407148.567    23407168.949
 02  4  8 20 56  0.0000000  0  9G24G23G18G15G26G30G10G 6G 5
  24769423.436    22038243.75149  17170513.35745  24769423.066    24769444.963
  20855212.334   -20890744.31249 -15934805.49547  20855211.658    20855223.989
  24235299.542    -3932479.08549  -2032335.38245  24235299.123    24235325.251
  23246104.360   -10625233.51549  -7967463.59845  23246103.698    23246123.898
  23971563.807    -6195852.64549  -4793780.27745  23971563.881    23971588.132
  21581544.861    -2937680.08549  -2271469.18847  21581545.007    21581559.244
  21334688.890   -12913627.70049 -10049643.33647  21334687.953    21334700.907
  20530410.893   -21644920.98749 -16857379.62947  20530410.633    20530421.964
  23426998.936    13986645.38549  11033609.48846  23426998.127    23427018.724
 02  4  8 20 56 30.0000000  0  9G24G23G18G15G26G30G10G 6G 5
  24784284.685    22116339.85549  17231367.29645  24784284.456    24784306.160
  20847743.164   -20929994.75649 -15965390.16647  20847742.498    20847754.812
  24214318.836    -4042731.45249  -2118245.81045  24214318.187    24214344.521
  23231819.011   -10700302.07949  -8025958.31745  23231818.347    23231838.500
  23954540.857    -6285308.42049  -4863485.71845  23954540.877    23954564.697
  21597142.761    -2855712.47249  -2207598.47647  21597142.909    21597157.352
  21346143.125   -12853435.48949 -10002740.39447  21346142.193    21346155.174
  20524229.646   -21677403.53849 -16882690.67847  20524229.382    20524240.693
  23446868.292    14091059.06449  11114970.38445  23446867.551    23446888.377
 02  4  8 20 57  0.0000000  0  9G24G23G18G15G26G30G10G 6G 5
  24799137.132    22194388.12249  17292183.95245  24799136.834    24799158.129
  20840370.771   -20968736.43649 -15995578.39848  20840370.122    20840382.458
  24193357.877    -4152881.56949  -2204076.55445  24193357.217    24193383.348
  23217566.230   -10775199.49049  -8084319.66745  23217565.594    23217585.666
  23937536.407    -6374665.45049  -4933114.19245  23937536.499    23937560.327
  21612809.240    -2773384.77949  -2143447.19147  21612809.393    21612823.888
  21357689.031   -12792761.45249  -9955462.00447  21357688.100    21357701.131
  20518109.097   -21709567.03349 -16907753.11747  20518108.819    20518120.128
  23466756.959    14195573.21149  11196409.57745  23466756.252    23466777.101
 02  4  8 20 57 30.0000000  0  9G24G23G18G15G26G30G10G 6G 5
  24813980.792    22272389.92249  17352964.41145  24813980.368    24814001.225
  20833095.550   -21006967.56849 -16025368.80947  20833094.899    20833107.263
  24172416.812    -4262926.11549  -2289825.05345  24172416.285    24172442.047
  23203346.315   -10849924.55549  -8142546.73545  23203345.688    23203365.745
  23920551.545    -6463919.31949  -5002662.30845  23920551.607    23920575.558
  21628544.119    -2690698.46349  -2079016.47847  21628544.240    21628558.549
  21369326.429   -12731606.70249  -9907809.03147  21369325.494    21369338.571
  20512049.774   -21741408.81149 -16932564.86147  20512049.494    20512060.812
  23486664.534    14300186.32749  11277925.86946  23486663.880    23486684.766
 02  4  8 20 58  0.0000000  0  9G24G23G18G15G26G30G10G 6G 5
  24828815.054    22350343.65949  17413707.43845  24828814.639    24828835.314
  20825917.447   -21044688.24549 -16054761.46447  20825916.798    20825929.226
  24151495.846    -4372863.62449  -2375490.14345  24151495.289    24151521.026
  23189159.073   -10924478.17249  -8200640.20945  23189158.440    23189178.403
  23903586.916    -6553067.80449  -5072128.30445  23903586.981    23903610.771
  21644346.548    -2607657.62349  -2014309.52747  21644346.660    21644360.758
  21381054.636   -12669974.91149  -9859784.34447  21381053.694    21381066.805
  20506051.821   -21772928.23349 -16957125.41547  20506051.546    20506062.853
  23506590.247    14404894.40749  11359516.18346  23506589.596    23506610.693
 02  4  8 20 58 30.0000000  0  9G24G23G18G15G26G30G10G 6G 5
  24843640.016    22428250.05549  17474413.60245  24843639.667    24843660.648
  20818836.745   -21081896.72949 -16083755.01747  20818836.120    20818848.614
  24130595.986    -4482691.05649  -2461069.43345  24130595.417    24130620.781
  23175004.733   -10998859.14849  -8258599.16646  23175004.039    23175023.916
  23886643.354    -6642106.37349  -5141508.63045  23886643.351    23886666.879
  21660216.084    -2524263.76249  -1949327.47847  21660216.224    21660230.267
  21392873.400   -12607867.42149  -9811388.98047  21392872.452    21392885.559
  20500115.709   -21804122.71149 -16981432.77647  20500115.425    20500126.712
  23526533.553    14509696.08049  11441179.40746  23526532.970    23526554.414
 02  4  8 20 59  0.0000000  0  9G24G23G18G15G26G30G10G 6G 5
  24858455.936    22506108.09449  17535082.07445  24858455.689    24858476.904
  20811853.586   -21118592.92249 -16112349.39047  20811852.954    20811865.487
  24109717.535    -4592406.72449  -2546561.63645  24109716.982    24109741.660
  23160883.048   -11073067.76949  -8316423.81145  23160882.365    23160902.114
  23869720.997    -6731032.11349  -5210801.03345  23869721.047    23869744.483
  21676152.060    -2440520.41549  -1884073.09947  21676152.212    21676166.300
  21404782.086   -12545287.31249  -9762625.34647  21404781.138    21404794.255
  20494241.650   -21834991.09949 -17005486.04047  20494241.372    20494252.631
  23546494.015    14614587.94849  11522912.90746  23546493.451    23546515.077
 02  4  8 20 59 30.0000000  0  8G23G18G15G26G30G10G 6G 5
  20804967.856   -21154777.22949 -16140544.89047  20804967.231    20804979.779
  24088860.328    -4702009.16549  -2631965.60045  24088859.830    24088884.417
  23146794.126   -11147105.05849  -8374114.97145  23146793.368    23146812.961
  23852820.592    -6819842.61349  -5280003.64345  23852820.686    23852843.963
  21692153.801    -2356431.34949  -1818549.33747  21692153.994    21692168.117
  21416780.053   -12482237.96849  -9713496.07547  21416779.092    21416792.245
  20488429.792   -21865532.81649 -17029284.75547  20488429.485    20488440.742
  23566471.047    14719566.23549  11604713.75645  23566470.461    23566492.016
 02  4  8 21  0  0.0000000  0  8G23G18G15G26G30G10G 6G 5
  20798179.872   -21190448.09549 -16168340.29947  20798179.240    20798191.786
  24068025.468    -4811495.46249  -2717279.09145  24068024.983    24068049.717
  23132738.007   -11220969.95549  -8431671.78445  23132737.259    23132756.668
  23835942.883    -6908533.83149  -5349113.28545  23835942.980    23835966.343
  21708220.919    -2271998.62849  -1752757.79047  21708221.101    21708235.306
  21428866.898   -12418721.31049  -9664002.65147  21428865.955    21428879.158
  20482680.580   -21895745.26249 -17052826.89547  20482680.275    20482691.496
  23586464.173    14824629.11749  11686580.50445  23586463.600    23586484.931
 02  4  8 21  0 30.0000000  0  8G23G18G15G26G30G10G 6G 5
  20791490.041   -21225603.29449 -16195733.88748  20791489.411    20791501.949
  24047213.638    -4920861.72349  -2802499.05045  24047213.092    24047237.913
  23118714.986   -11294660.70949  -8489092.92346  23118714.168    23118733.500
  23819088.872    -6997100.67849  -5418126.02145  23819088.899    23819112.357
  21724353.196    -2187223.42349  -1686699.37947  21724353.423    21724367.729
  21441042.517   -12354738.20349  -9614145.76747  21441041.586    21441054.861
  20476994.611   -21925625.16849 -17076109.92147  20476994.312    20477005.506
  23606473.145    14929775.48549  11768512.31645  23606472.498    23606493.764
 02  4  8 21  1  0.0000000  0  8G23G18G15G26G30G10G 6G 5
  20784898.272   -21260242.97549 -16222725.76948  20784897.655    20784910.167
  24026424.785    -5030106.46249  -2887624.33945  24026424.174    24026448.993
  23104724.832   -11368178.16149  -8546379.03446  23104724.063    23104743.433
  23802259.087    -7085540.30249  -5487039.61045  23802259.010    23802282.411
  21740550.053    -2102109.41649  -1620376.95947  21740550.250    21740564.595
  21453306.329   -12290291.81449  -9563927.87947  21453305.406    21453318.679
  20471372.105   -21955171.71249 -17099133.18247  20471371.794    20471382.961
  23626497.443    15035001.83449  11850506.43245  23626496.846    23626517.957
 02  4  8 21  1 30.0000000  0  8G23G18G15G26G30G10G 6G 5
  20778404.707   -21294366.71449 -16249315.62648  20778404.090    20778416.590
  24005659.461    -5139227.76749  -2972653.43145  24005658.799    24005683.328
  23090767.666   -11441522.38349  -8603530.16746  23090766.925    23090786.329
  23785454.073    -7173849.76749  -5555851.77345  23785454.023    23785477.031
  21756810.923    -2016659.49449  -1553792.79847  21756811.053    21756825.398
  21465657.708   -12225385.13349  -9513351.32347  21465656.775    21465670.034
  20465813.264   -21984383.47849 -17121895.58047  20465812.943    20465824.104
  23646536.544    15140305.19749  11932560.54545  23646535.942    23646557.050
 02  4  8 21  2  0.0000000  0  8G23G18G15G26G30G10G 6G 5
  20772009.471   -21327973.65549 -16275502.77948  20772008.848    20772021.324
  23984918.124    -5248222.76849  -3057584.09745  23984917.499    23984941.500
  23076843.648   -11514693.06249  -8660546.08046  23076842.844    23076862.171
  23768674.612    -7262025.07949  -5624559.36945  23768674.569    23768697.479
  21773135.165    -1930876.36849  -1486949.00147  21773135.272    21773149.538
  21478096.191   -12160020.65649  -9462418.04647  21478095.234    21478108.503
  20460318.476   -22013258.51049 -17144395.58547  20460318.167    20460329.357
  23666589.760    15245683.29949  12014672.90445  23666589.140    23666610.516
 02  4  8 21  2 30.0000000  0  8G23G18G15G26G30G10G 6G 5
  20765712.504   -21361064.09349 -16301287.45748  20765711.877    20765724.356
  23964200.667    -5357090.15949  -3142415.34245  23964200.111    23964224.071
  23062952.530   -11587690.77449  -8717427.20546  23062951.741    23062970.874
  23751920.909    -7350063.71849  -5693160.47945  23751920.889    23751944.002
  21789522.113    -1844763.51149  -1419848.28447  21789522.227    21789536.366
  21490621.229   -12094201.06349  -9411130.12347  21490620.283    21490633.582
  20454887.958   -22041795.90549 -17166632.49647  20454887.666    20454898.863
  23686656.471    15351132.76049  12096840.89145  23686655.899    23686677.556
 02  4  8 21  3  0.0000000  0  8G23G18G15G26G30G10G 6G 5
  20759514.269   -21393635.84449 -16326667.97648  20759513.648    20759526.081
  23943508.315    -5465826.10149  -3227144.15045  23943507.795    23943531.692
  23049094.582   -11660513.69149  -8774172.13346  23049093.785    23049112.981
  23735193.985    -7437960.67149  -5761651.23545  23735194.029    23735217.475
  21805971.466    -1758322.35749  -1352491.75447  21805971.550    21805985.690
  21503232.632   -12027927.59249  -9359488.53847  21503231.702    21503245.045
  20449522.306   -22069992.54049 -17188603.88247  20449522.001    20449533.222
  23706736.353    15456652.19649  12179063.38345  23706735.807    23706757.900
 02  4  8 21  3 30.0000000  0  8G23G18G15G26G30G10G 6G 5
  20753414.485   -21425690.21849 -16351645.33047  20753413.841    20753426.217
  23922841.479    -5574430.26849  -3311770.27345  23922840.942    23922864.467
  23035269.428   -11733163.67249  -8830782.33246  23035268.696    23035287.962
  23718494.739    -7525714.37549  -5830030.33445  23718494.778    23718517.904
  21822482.279    -1671557.72849  -1284883.15847  21822482.380    21822496.630
  21515929.615   -11961204.90349  -9307496.91147  21515928.682    21515942.056
  20444221.479   -22097848.57549 -17210309.86547  20444221.180    20444232.364
  23726828.601    15562237.09549  12261336.91245  23726828.068    23726850.502
 02  4  8 21  4  0.0000000  0  8G23G18G15G26G30G10G 6G 5
  20747413.371   -21457225.92149 -16376218.53247  20747412.715    20747425.057
  23902200.107    -5682899.58249  -3396291.34045  23902199.623    23902223.115
  23021477.415   -11805639.67449  -8887256.96346  23021476.744    23021496.070
  23701823.804    -7613320.65549  -5898294.53645  23701823.749    23701846.416
  21839054.267    -1584471.58149  -1217024.01547  21839054.367    21839068.839
  21528711.755   -11894034.66349  -9255156.54047  21528710.814    21528724.212
  20438985.919   -22125361.50249 -17231748.49247  20438985.615    20438996.805
  23746932.867    15667885.76749  12343660.11345  23746932.381    23746955.082
 02  4  8 21  4 30.0000000  0  8G23G18G15G26G30G10G 6G 5
  20741511.007   -21488242.74049 -16400387.40547  20741510.351    20741522.645
  23881584.709    -5791232.17049  -3480705.90745  23881584.215    23881607.890
  23007718.625   -11877941.93049  -8943596.19046  23007717.869    23007737.235
  23685181.326    -7700776.24749  -5966441.32445  23685181.281    23685203.717
  21855686.786    -1497067.11749  -1148916.82547  21855686.923    21855701.609
  21541578.530   -11826419.79749  -9202469.71247  21541577.576    21541590.974
  20433815.875   -22152530.11049 -17252918.82047  20433815.574    20433826.740
  23767049.088    15773595.25549  12426030.67745  23767048.583    23767071.254
 02  4  8 21  5  0.0000000  0  8G23G18G15G26G30G10G 6G 5
  20735707.357   -21518740.83649 -16424152.08347  20735706.709    20735718.976
  23860995.683    -5899426.38549  -3565012.60045  23860995.198    23861018.855
  22993992.835   -11950071.05749  -8999800.51146  22993992.041    22994011.400
  23668567.830    -7788078.31949  -6034468.50445  23668567.903    23668590.331
  21872379.282    -1409347.67949  -1080564.22347  21872379.447    21872394.303
  21554529.337   -11758363.24349  -9149438.71247  21554528.380    21554541.772
  20428711.561   -22179353.52349 -17273820.16647  20428711.258    20428722.387
  23787176.603    15879362.29749  12508446.06845  23787175.999    23787198.376
 02  4  8 21  5 30.0000000  0  8G23G18G15G26G30G10G 6G 5
  20730002.562   -21548719.37149 -16447511.91047  20730001.929    20730014.180
  23840433.407    -6007479.73549  -3649209.54645  23840432.913    23840456.270
  22980299.967   -12022026.56149  -9055869.54646  22980299.210    22980318.524
  23651984.534    -7875223.00749  -6102373.07945  23651984.583    23652006.793
  21889131.357    -1321315.90049  -1011968.24147  21889131.499    21889146.375
  21567563.711   -11689867.52949  -9096065.51447  21567562.767    21567576.147
  20423673.259   -22205829.68149 -17294450.92247  20423672.956    20423684.094
  23807314.467    15985184.50349  12590904.46945  23807313.779    23807336.045
 02  4  8 21  6  0.0000000  0  8G23G18G15G26G30G10G 6G 5
  20724396.792   -21578177.70449 -16470466.38847  20724396.159    20724408.390
  23819898.569    -6115389.24249  -3733294.37445  23819898.059    23819921.163
  22966640.253   -12093807.90449  -9111802.86546  22966639.497    22966658.877
  23635432.128    -7962206.53849  -6170152.04045  23635432.041    23635453.899
  21905942.484    -1232974.35249   -943130.88947  21905942.611    21905957.414
  21580681.228   -11620935.11549  -9042352.02847  21580680.286    21580693.625
  20418701.458   -22231956.44949 -17314809.42447  20418701.167    20418712.319
  23827462.005    16091059.46649  12673403.97345  23827461.371    23827483.801
 02  4  8 21  6 30.0000000  0  8G23G18G15G26G30G10G 6G 5
  20718890.033   -21607115.48749 -16493015.24647  20718889.411    20718901.614
  23799391.597    -6223152.96149  -3817265.64945  23799391.135    23799413.797
  22953013.860   -12165415.05449  -9167600.43746  22953013.070    22953032.391
  23618910.750    -8049025.56849  -6237802.84245  23618910.620    23618932.403
  21922811.838    -1144325.80649   -874054.30746  21922811.963    21922826.854
  21593881.383   -11551568.19549  -8988299.96147  21593880.407    21593893.794
  20413796.412   -22257732.21249 -17334894.41947  20413796.143    20413807.342
  23847619.163    16196984.44149  12755942.42845  23847618.466    23847641.019
 02  4  8 21  7  0.0000000  0  8G23G18G15G26G30G10G 6G 5
  20713482.438   -21635532.18849 -16515158.06447  20713481.825    20713494.025
  23778912.646    -6330768.56849  -3901121.45745  23778912.083    23778934.692
  22939420.520   -12236848.22749  -9223262.45246  22939419.700    22939438.975
  23602421.100    -8135676.36749  -6305322.58245  23602421.055    23602442.781
  21939738.828    -1055373.33549   -804740.88146  21939738.975    21939754.159
  21607163.705   -11481769.42849  -8933911.39247  21607162.712    21607176.154
  20408958.507   -22283155.49549 -17354704.74947  20408958.232    20408969.465
  23867785.607    16302956.98549  12838517.95745  23867784.875    23867807.509
 02  4  8 21  7 30.0000000  0  8G23G18G15G26G30G10G 6G 5
  20708174.179   -21663427.00449 -16536894.22247  20708173.560    20708185.753
  23758462.385    -6438233.24549  -3984859.69945  23758461.901    23758484.182
  22925860.351   -12308106.59449  -9278788.24846  22925859.518    22925878.765
  23585964.415    -8222155.29149  -6372708.40345  23585964.267    23585985.970
  21956723.354     -966119.32349   -735192.50846  21956723.506    21956738.758
  21620527.765   -11411541.09749  -8879188.09747  21620526.801    21620540.258
  20404188.097   -22308224.14849 -17374238.75047  20404187.805    20404199.031
  23887960.414    16408974.84049  12921128.83445  23887959.709    23887982.856
 02  4  8 21  8  0.0000000  0  8G23G18G15G26G30G10G 6G 5
  20702965.193   -21690800.33649 -16558224.03047  20702964.566    20702976.733
  23738041.274    -6545545.76349  -4068479.35745  23738040.768    23738062.844
  22912333.301   -12379190.67549  -9334178.22346  22912332.483    22912351.680
  23569541.192    -8308459.45649  -6439958.02745  23569540.967    23569562.544
  21973764.794     -876567.29849   -665411.92146  21973764.938    21973780.089
  21633972.919   -11340886.80249  -8824132.88647  21633971.943    21633985.413
  20399485.344   -22332937.23949 -17393495.68847  20399485.030    20399496.264
  23908143.122    16515034.61349  13003772.35945  23908142.486    23908166.118
 02  4  8 21  8 30.0000000  0  8G23G18G15G26G30G10G 6G 5
  20697855.535   -21717651.45149 -16579146.92447  20697854.923    20697867.057
  23717649.493    -6652703.44049  -4151978.36045  23717648.995    23717671.136
  22898839.550   -12450100.07949  -9389432.09746  22898838.724    22898857.884
  23553151.806    -8394585.04649  -6507068.51745  23553151.583    23553173.033
  21990862.426     -786719.88849   -595401.15446  21990862.542    21990877.701
  21647498.702   -11269808.75949  -8768747.48647  21647497.719    21647511.195
  20394850.613   -22357292.83449 -17412474.05547  20394850.309    20394861.540
  23928333.747    16621133.99849  13086446.70945  23928333.108    23928356.592
 02  4  8 21  9  0.0000000  0  8G23G18G15G26G30G10G 6G 5
  20692845.334   -21743980.18149 -16599662.76347  20692844.712    20692856.820
  23697287.453    -6759703.88049  -4235354.86445  23697286.981    23697309.188
  22885379.016   -12520834.70249  -9444549.77446  22885378.173    22885397.344
  23536796.981    -8480528.58149  -6574037.17245  23536796.825    23536818.199
  22008015.577     -696580.02949   -525162.50846  22008015.737    22008031.040
  21661104.544   -11198309.65949  -8713033.99147  21661103.580    21661117.094
  20390284.169   -22381289.41949 -17431172.67647  20390283.880    20390295.113
  23948531.422    16727270.42749  13169149.91645  23948530.657    23948553.702
 02  4  8 21  9 30.0000000  0  8G23G18G15G26G30G10G 6G 5
  20687934.671   -21769785.78149 -16619770.97148  20687934.041    20687946.111
  23676955.927    -6866544.55249  -4318606.83845  23676955.476    23676977.544
  22871951.819   -12591394.14149  -9499530.93846  22871951.008    22871970.202
  23520477.597    -8566286.07749  -6640860.86645  23520477.513    23520498.791
  22025224.045     -606150.23649   -454697.94346  22025224.184    22025239.525
  21674790.127   -11126391.53949  -8656993.97947  21674789.186    21674802.767
  20385786.467   -22404924.92749 -17449589.93347  20385786.174    20385797.416
  23968735.442    16833441.61549  13251880.22045  23968734.710    23968757.617
 02  4  8 21 10  0.0000000  0  8G23G18G15G26G30G10G 6G 5
  20683123.520   -21795068.33249 -16639471.61048  20683122.902    20683134.928
  23656655.275    -6973223.60649  -4401732.89445  23656654.849    23656676.714
  22858557.861   -12661778.48849  -9554375.66546  22858557.041    22858576.343
  23504194.271    -8651854.29949  -6707537.08745  23504194.175    23504215.412
  22042487.057     -515433.76749   -384010.01246  22042487.183    22042502.477
  21688554.936   -11054057.38049  -8600629.78347  21688553.986    21688567.628
  20381357.741   -22428198.16049 -17467724.91047  20381357.450    20381368.658
  23988945.452    16939644.48449  13334635.20245  23988944.669    23988967.916
 02  4  8 21 10 30.0000000  0  8G23G18G15G26G30G10G 6G 5
  20678411.913   -21819827.92349 -16658764.74848  20678411.284    20678423.304
  23636385.675    -7079739.05249  -4484731.46145  23636385.241    23636406.977
  22845197.218   -12731988.06749  -9609084.21146  22845196.440    22845215.666
  23487947.513    -8737230.29549  -6774063.52045  23487947.333    23487968.626
  22059803.861     -424433.80849   -313101.17146  22059803.926    22059819.325
  21702398.299   -10981310.30349  -8543943.83947  21702397.353    21702411.023
  20376998.210   -22451107.76149 -17485576.53247  20376997.918    20377009.107
  24009160.982    17045876.14849  13417412.62645  24009160.264    24009183.675
 02  4  8 21 11  0.0000000  0  8G23G18G15G26G30G10G 6G 5
  20673799.854   -21844064.23649 -16677650.13048  20673799.227    20673811.253
  23616147.642    -7186088.58649  -4567600.76345  23616147.163    23616168.608
  22831870.003   -12802022.82149  -9663656.52646  22831869.226    22831888.229
  23471738.024    -8822410.40749  -6840437.31345  23471737.904    23471758.958
  22077173.941     -333153.36949   -241973.75946  22077174.080    22077189.611
  21716319.777   -10908152.76049  -8486938.04147  21716318.835    21716332.517
  20372708.223   -22473651.96049 -17503143.42947  20372707.927    20372719.123
  24029381.563    17152134.19249  13500210.61445  24029380.865    24029404.586
 02  4  8 21 11 30.0000000  0  8G23G18G15G26G30G10G 6G 5
  20669287.402   -21867777.24449 -16696127.74848  20669286.771    20669298.788
  23595941.623    -7292270.23249  -4650339.21345  23595941.191    23595962.190
  22818576.031   -12871882.61949  -9718092.51346  22818575.259    22818594.060
  23455566.476    -8907391.22549  -6906655.81445  23455566.429    23455587.275
  22094597.055     -241595.31649   -170630.03846  22094597.238    22094612.793
  21730318.784   -10834587.78649  -8429614.77647  21730317.854    21730331.524
  20368488.091   -22495829.27049 -17520424.43947  20368487.769    20368498.934
  24049606.734    17258415.89649  13583027.01645  24049606.073    24049629.891
 02  4  8 21 12  0.0000000  0  8G23G18G15G26G30G10G 6G 5
  20664874.564   -21890966.75049 -16714197.43948  20664873.926    20664885.939
  23575767.970    -7398281.50149  -4732944.94445  23575767.537    23575788.352
  22805315.279   -12941567.47249  -9772392.17246  22805314.509    22805333.276
  23439433.571    -8992169.23549  -6972716.28245  23439433.538    23439454.299
  22112072.569     -149762.60149    -99072.29847  22112072.700    22112088.141
  21744394.819   -10760618.14549  -8371976.18447  21744393.899    21744407.579
  20364337.969   -22517638.21549 -17537418.41047  20364337.642    20364348.800
  24069836.018    17364718.84849  13665859.96745  24069835.368    24069859.065
 02  4  8 21 12 30.0000000  0  8G23G18G15G26G30G10G 6G 5
  20660561.338   -21913632.50649 -16731859.01848  20660560.712    20660572.715
  23555627.078    -7504120.31049  -4815416.25945  23555626.680    23555647.798
  22792087.656   -13011077.39149  -9826555.53946  22792086.897    22792105.730
  23423339.892    -9076740.69849  -7038615.82745  23423339.910    23423360.636
  22129599.821      -57657.92949    -27302.65247  22129599.936    22129615.243
  21758547.438   -10686246.18249  -8314024.10147  21758546.541    21758560.211
  20360258.301   -22539077.04249 -17554123.97547  20360257.967    20360269.127
  24090068.726    17471040.24649  13748707.32445  24090068.012    24090091.642
 02  4  8 21 13  0.0000000  0  8G23G18G15G26G30G10G 6G 5
  20656347.840   -21935774.24149 -16749112.27548  20656347.219    20656359.231
  23535519.419    -7609784.28149  -4897751.38045  23535519.000    23535540.249
  22778893.526   -13080411.97649  -9880582.30746  22778892.771    22778911.576
  23407286.228    -9161102.03649  -7104351.63045  23407286.293    23407306.911
  22147178.193       34715.73949     44676.61646  22147178.277    22147193.595
  21772776.150   -10611474.50049  -8255760.54147  21772775.241    21772788.955
  20356249.376   -22560143.97749 -17570539.76147  20356249.072    20356260.212
  24110304.279    17577377.67649  13831567.14045  24110303.564    24110327.427
 02  4  8 21 13 30.0000000  0  8G23G18G15G26G30G10G 6G 5
  20652234.049   -21957392.17449 -16765957.37548  20652233.426    20652245.448
  23515445.309    -7715271.37049  -4979948.63845  23515444.878    23515466.301
  22765732.811   -13149571.59449  -9934472.72146  22765732.043    22765750.585
  23391273.222    -9245250.23049  -7169921.33845  23391273.329    23391293.645
  22164807.023      127355.07749    116862.90046  22164807.123    22164822.568
  21787080.236   -10536306.30849  -8197188.00847  21787079.299    21787093.109
  20352311.404   -22580838.02349 -17586664.98547  20352311.078    20352322.222
  24130542.297    17683728.24949  13914437.22745  24130541.594    24130565.946
 02  4  8 21 14  0.0000000  0  8G23G18G15G26G30G10G 6G 5
  20648220.012   -21978485.53349 -16782393.71848  20648219.405    20648231.413
  23495405.440    -7820578.74349  -5062005.88645  23495405.010    23495426.434
  22752605.537   -13218555.48149  -9988226.19346  22752604.739    22752622.956
  23375301.468    -9329181.08849  -7235321.70345  23375301.526    23375321.770
  22182486.012      220257.90349    189254.49446  22182486.114    22182501.643
  21801459.340   -10460743.56449  -8138308.02747  21801458.404    21801472.321
  20348444.817   -22601157.02349 -17602497.95847  20348444.505    20348455.632
  24150782.485    17790089.99549  13997316.01845  24150781.982    24150806.290
 02  4  8 21 14 30.0000000  0  8G23G18G15G26G30G10G 6G 5
  20644305.778   -21999054.65949 -16798421.57148  20644305.185    20644317.161
  23475400.230    -7925704.69449  -5143921.75645  23475399.859    23475421.069
  22739511.617   -13287363.95549 -10041842.99646  22739510.834    22739528.760
  23359371.504    -9412891.38849  -7300550.24145  23359371.525    23359392.016
  22200214.438      313420.76849    261848.69046  22200214.561    22200230.180
  21815912.950   -10384789.32649  -8079123.00047  21815912.028    21815925.991
  20344649.814   -22621099.75049 -17618037.73347  20344649.512    20344660.638
  24171024.311    17896460.07649  14080201.22345  24171023.797    24171048.289
 02  4  8 21 15  0.0000000  0  8G23G18G15G26G30G10G 6G 5
  20640491.286   -22019099.83849 -16814041.14847  20640490.676    20640502.600
  23455430.069    -8030647.52549  -5225694.93145  23455429.664    23455450.579
  22726451.072   -13355997.22949 -10095323.27446  22726450.256    22726467.950
  23343484.099    -9496378.13749  -7365604.57645  23343484.113    23343504.828
  22217991.684      406840.58949    334643.11246  22217991.844    22218007.529
  21830440.534   -10308446.69449  -8019635.32947  21830439.601    21830453.555
  20340926.639   -22640664.98349 -17633283.35347  20340926.330    20340937.479
  24191267.315    18002835.37449  14163090.52345  24191266.753    24191291.340
 02  4  8 21 15 30.0000000  0  8G23G18G15G26G30G10G 6G 5
  20636776.543   -22038620.86249 -16829252.29447  20636775.917    20636787.802
  23435495.180    -8135404.62549  -5307323.39745  23435494.755    23435515.331
  22713423.951   -13424455.07649 -10148666.87446  22713423.125    22713440.543
  23327640.247    -9579637.47549  -7430481.70945  23327640.231    23327660.943
  22235817.301      500514.45149    407635.48646  22235817.483    22235833.288
  21845041.585   -10231718.11049  -7959846.91447  21845040.683    21845054.571
  20337275.644   -22659850.86849 -17648233.37947  20337275.337    20337286.481
  24211510.951    18109213.68249  14245982.20245  24211510.289    24211535.067
 02  4  8 21 16  0.0000000  0  8G23G18G15G26G30G10G 6G 5
  20633161.387   -22057618.30449 -16844055.44647  20633160.770    20633172.612
  23415595.729    -8239974.53049  -5388805.98645  23415595.311    23415615.912
  22700430.119   -13492738.00349 -10201874.15146  22700429.310    22700446.431
  23311840.200    -9662666.52549  -7495179.37545  23311840.110    23311860.877
  22253690.696      594438.82349    480823.07746  22253690.890    22253706.801
  21859715.509   -10154606.85249  -7899760.31647  21859714.574    21859728.432
  20333697.016   -22678656.53349 -17662887.12247  20333696.715    20333707.857
  24231754.668    18215591.71049  14328873.63945  24231753.935    24231778.854
 02  4  8 21 16 30.0000000  0  8G23G18G15G26G30G10G 6G 5
  20629646.039   -22076091.50649 -16858450.09947  20629645.424    20629657.210
  23395732.665    -8344354.11749  -5470140.29045  23395732.212    23395752.667
  22687469.640   -13560845.33049 -10254944.61046  22687468.803    22687485.707
  23296084.507    -9745461.02349  -7559694.29345  23296084.417    23296105.303
  22271611.396      688611.40049    554204.06846  22271611.564    22271627.608
  21874461.866   -10077115.05249  -7839377.19747  21874460.886    21874474.748
  20330191.162   -22697079.77449 -17677242.88947  20330190.892    20330202.014
  24251997.957    18321967.52349  14411763.33845  24251997.220    24252022.183
 02  4  8 21 17  0.0000000  0  8G23G18G15G26G30G10G 6G 5
  20626230.436   -22094040.41749 -16872436.20647  20626229.818    20626241.565
  23375906.150    -8448541.32449  -5551324.66745  23375905.688    23375926.186
  22674542.542   -13628776.84149 -10307878.04846  22674541.721    22674558.509
  23280374.202    -9828017.54449  -7624023.76545  23280374.123    23280395.042
  22289578.772      783029.46249    627776.36347  22289578.895    22289595.032
  21889280.130    -9999245.14849  -7778699.45747  21889279.147    21889292.956
  20326758.432   -22715118.92849 -17691299.35747  20326758.158    20326769.267
  24272239.991    18428338.69649  14494649.45345  24272239.249    24272264.340
 02  4  8 21 17 30.0000000  0  8G23G18G15G26G30G10G 6G 5
  20622914.597   -22111465.20349 -16886013.90747  20622913.964    20622925.674
  23356116.755    -8552533.81449  -5632357.33945  23356116.288    23356136.729
  22661648.832   -13696532.63849 -10360674.60546  22661648.018    22661664.866
  23264710.082    -9910332.59949  -7688165.06045  23264709.957    23264730.712
  22307592.300      877689.69649    701537.34747  22307592.384    22307608.552
  21904169.710    -9921000.22249  -7717729.49447  21904168.719    21904182.498
  20323399.049   -22732772.59249 -17705055.44447  20323398.774    20323409.882
  24292480.304    18534702.52649  14577529.83445  24292479.576    24292505.306
 02  4  8 21 18  0.0000000  0  8G23G18G15G26G30G10G 6G 5
  20619698.449   -22128366.09949 -16899183.37448  20619697.810    20619709.505
  23336364.848    -8656329.78249  -5713236.88945  23336364.342    23336384.583
  22648788.627   -13764112.67349 -10413334.19446  22648787.841    22648804.688
  23249092.415    -9992402.75949  -7752115.52445  23249092.299    23249112.960
  22325651.334      972589.23649    775484.79746  22325651.423    22325667.572
  21919130.094    -9842383.01849  -7656469.44147  21919129.093    21919142.949
  20320113.291   -22750039.41349 -17718510.09947  20320112.999    20320124.094
  24312718.779    18641056.35549  14660402.37645  24312718.284    24312744.306
 02  4  8 21 18 30.0000000  0  8G23G18G15G26G30G10G 6G 5
  20616582.040   -22144742.90749 -16911944.47548  20616581.408    20616593.072
  23316650.608    -8759926.51749  -5793961.18245  23316650.050    23316670.399
  22635961.960   -13831516.51849 -10465856.49846  22635961.211    22635978.067
  23233521.838   -10074224.15749  -7815872.15445  23233521.759    23233542.596
  22343755.299     1067725.51549    849616.71146  22343755.400    22343771.542
  21934160.823    -9763396.00749  -7594921.22347  21934159.847    21934173.785
  20316901.532   -22766917.43149 -17731661.78947  20316901.232    20316912.302
  24332955.371    18747398.22549  14743265.61445  24332954.715    24332980.746
 02  4  8 21 19  0.0000000  0  8G23G18G15G26G30G10G 6G 5
  20613565.282   -22160596.10649 -16924297.57048  20613564.636    20613576.311
  23296974.470    -8863322.31049  -5874528.87845  23296974.050    23296994.169
  22623168.775   -13898744.75649 -10518241.96446  22623168.007    22623184.827
  23217999.206   -10155793.79049  -7879432.61345  23217999.175    23218020.218
  22361903.654     1163095.03249    923930.36046  22361903.796    22361919.904
  21949261.354    -9684042.39549  -7533087.34547  21949260.373    21949274.390
  20313763.937   -22783405.75149 -17744509.81747  20313763.644    20313774.701
  24353189.192    18853724.99349  14826117.04145  24353188.398    24353214.540
 02  4  8 21 19 30.0000000  0  8G23G18G15G26G30G10G 6G 5
  20610648.140   -22175925.57849 -16936242.56848  20610647.516    20610659.175
  23277337.332    -8966514.98949  -5954938.29045  23277336.945    23277356.636
  22610409.036   -13965797.14649 -10570490.39346  22610408.280    22610425.001
  23202525.371   -10237107.85049  -7942793.90145  23202525.326    23202546.429
  22380095.911     1258695.04049    998423.60446  22380096.081    22380112.177
  21964431.202    -9604324.67049  -7470969.74947  21964430.221    21964444.314
  20310700.799   -22799502.62149 -17757052.82147  20310700.525    20310711.567
  24373419.386    18960034.25849  14908954.89645  24373418.673    24373444.813
 02  4  8 21 20  0.0000000  0  9G22G23G18G15G26G30G10G 6G 5
  24420588.118    -7943888.79249  -2961402.79545  24420586.920    24420609.404
  20607829.910   -22190735.52749 -16947782.75048  20607829.277    20607840.966
  23257738.598    -9069506.32749  -6035190.83645  23257738.084    23257757.572
  22597682.031   -14032677.48149 -10622604.75446  22597681.241    22597697.939
  23187100.207   -10318167.05649  -8005956.59445  23187100.115    23187121.003
  22398330.714     1354518.49349   1073090.96946  22398330.878    22398347.017
  21979668.959    -9524249.71649  -7408573.79147  21979667.992    21979682.167
  20307711.692   -22815210.43149 -17769292.66247  20307711.434    20307722.467
  24393645.303    19066319.65349  14991774.14445  24393644.620    24393670.986
 02  4  8 21 20 30.0000000  0  9G22G23G18G15G26G30G10G 6G 5
  24407561.962    -8012341.29849  -3014742.33845  24407560.876    24407583.064
  20605110.815   -22205024.36749 -16958916.87548  20605110.179    20605121.884
  23238178.636    -9172292.30249  -6115283.36046  23238178.115    23238197.884
  22584988.137   -14099383.97849 -10674583.65846  22584987.368    22585003.955
  23171724.670   -10398965.90549  -8068916.41345  23171724.579    23171745.131
  22416607.829     1450564.25349   1147931.56346  22416607.915    22416624.212
  21994974.581    -9443818.24649  -7345900.02547  21994973.627    21994987.897
  20304797.234   -22830525.98449 -17781226.84947  20304796.991    20304807.989
  24413866.785    19172580.50949  15074574.25045  24413866.111    24413892.476
 02  4  8 21 21  0.0000000  0  9G22G23G18G15G26G30G10G 6G 5
  24394617.125    -8080368.16449  -3067750.19845  24394616.058    24394637.878
  20602491.623   -22218788.13349 -16969641.85848  20602490.982    20602502.714
  23218658.953    -9274866.48349  -6195210.87846  23218658.488    23218678.364
  22572328.040   -14165912.42649 -10726423.83646  22572327.244    22572343.880
  23156400.132   -10479496.77949  -8131667.40345  23156400.058    23156420.232
  22434927.396     1546833.58549   1222946.37846  22434927.502    22434944.062
  22010348.381    -9363028.82949  -7282947.33647  22010347.453    22010361.752
  20301958.513   -22845443.67549 -17792851.01747  20301958.267    20301969.232
  24434083.815    19278818.29949  15157356.40945  24434083.264    24434109.456
 02  4  8 21 21 30.0000000  0  9G22G23G18G15G26G30G10G 6G 5
  24381753.479    -8147967.51949  -3120424.91045  24381752.444    24381774.136
  20599972.260   -22232027.17649 -16979957.96648  20599971.616    20599983.382
  23199180.221    -9377226.63249  -6274971.61146  23199179.752    23199199.482
  22559701.790   -14232262.90249 -10778125.32746  22559700.945    22559717.671
  23141126.932   -10559756.55149  -8194207.14345  23141126.822    23141147.078
  22453288.994     1643323.22949   1298132.84846  22453289.131    22453305.886
  22025789.737    -9281884.56349  -7219718.14847  22025788.853    22025803.131
  20299195.766   -22859962.16649 -17804164.11447  20299195.490    20299206.452
  24454295.642    19385030.37049  15240118.47945  24454295.114    24454321.352
 02  4  8 21 22  0.0000000  0  9G22G23G18G15G26G30G10G 6G 5
  24368970.922    -8215140.00249  -3172767.00745  24368969.863    24368991.264
  20597552.170   -22244744.40549 -16989867.47247  20597551.542    20597563.339
  23179742.186    -9479373.58949  -6354566.20846  23179741.729    23179761.201
  22547108.795   -14298438.09749 -10829690.23946  22547107.973    22547124.762
  23125905.396   -10639744.23749  -8256534.89145  23125905.270    23125925.664
  22471691.558     1740027.66449   1373486.68546  22471691.671    22471708.473
  22041297.618    -9200390.82949  -7156216.65747  22041296.728    22041310.926
  20296508.693   -22874082.71549 -17815167.13047  20296508.420    20296519.417
  24474501.585    19491211.58449  15322856.56145  24474501.044    24474527.493
 02  4  8 21 22 30.0000000  0  9G22G23G18G15G26G30G10G 6G 5
  24356270.006    -8281882.44649  -3224774.00345  24356269.216    24356290.468
  20595231.540   -22256939.01349 -16999369.73847  20595230.919    20595242.770
  23160345.366    -9581304.26049  -6433992.24646  23160344.818    23160363.974
  22534549.430   -14364436.87349 -10881117.67846  22534548.627    22534565.480
  23110736.553   -10719455.17949  -8318647.00445  23110736.431    23110756.830
  22490134.554     1836944.92349   1449006.35346  22490134.613    22490151.346
  22056871.796    -9118548.88049  -7092443.83047  22056870.886    22056885.024
  20293897.786   -22887802.81949 -17825858.11147  20293897.517    20293908.556
  24494701.590    19597360.52849  15405569.45045  24494700.930    24494727.500
 02  4  8 21 23  0.0000000  0  9G22G23G18G15G26G30G10G 6G 5
  24343651.403    -8348192.84249  -3276444.33845  24343650.801    24343671.608
  20593010.370   -22268611.15249 -17008464.88547  20593009.746    20593021.620
  23140989.863    -9683016.46349  -6513248.08046  23140989.328    23141008.366
  22522023.606   -14430259.08949 -10932407.52946  22522022.799    22522039.822
  23095621.108   -10798886.03449  -8380540.85345  23095621.055    23095641.222
  22508617.217     1934072.19249   1524689.66746  22508617.329    22508633.975
  22072511.555    -9036362.01049  -7028402.23047  22072510.629    22072524.758
  20291363.408   -22901120.84449 -17836235.78847  20291363.152    20291374.214
  24514894.953    19703474.76849  15488255.31945  24514894.371    24514921.174
 02  4  8 21 23 30.0000000  0  9G22G23G18G15G26G30G10G 6G 5
  24331115.602    -8414069.37849  -3327776.59345  24331114.820    24331135.497
  20590888.479   -22279761.61249 -17017153.51847  20590887.865    20590899.713
  23121675.933    -9784508.33849  -6592332.25146  23121675.468    23121694.543
  22509531.432   -14495905.03149 -10983560.04446  22509530.616    22509547.735
  23080559.627   -10878033.62349  -8442213.97545  23080559.552    23080579.497
  22527139.328     2031405.98549   1600533.89646  22527139.475    22527156.109
  22088216.341    -8953833.18549  -6964094.16847  22088215.427    22088229.606
  20288905.762   -22914035.92649 -17846299.48547  20288905.483    20288916.542
  24535081.145    19809551.59549  15570912.06445  24535080.466    24535107.359
 02  4  8 21 24  0.0000000  0  9G22G23G18G15G26G30G10G 6G 5
  24318662.730    -8479510.20049  -3378769.33345  24318661.821    24318682.548
  20588865.889   -22290390.55149 -17025435.77548  20588865.255    20588877.059
  23102404.521    -9885777.87749  -6671243.19646  23102404.109    23102423.007
  22497072.789   -14561374.82149 -11034575.27546  22497071.982    22497089.131
  23065552.674   -10956894.34349  -8503663.57745  23065552.611    23065572.489
  22545700.421     2128943.64849   1676536.99346  22545700.536    22545717.222
  22103985.725    -8870964.95749  -6899521.63947  22103984.819    22103999.062
  20286525.069   -22926546.68049 -17856048.12447  20286524.801    20286535.851
  24555259.857    19915588.32949  15653537.53545  24555259.347    24555285.936
 02  4  8 21 24 30.0000000  0  9G22G23G18G15G26G30G10G 6G 5
  24306293.177    -8544513.40549  -3429421.08045  24306292.074    24306313.059
  20586942.387   -22300498.56849 -17033312.10648  20586941.747    20586953.514
  23083176.134    -9986822.92449  -6749979.18646  23083175.670    23083194.340
  22484647.704   -14626668.56149 -11085453.34346  22484646.893    22484664.088
  23050600.900   -11035465.01349  -8564887.18946  23050600.951    23050620.744
  22564299.520     2226681.72349   1752696.27146  22564299.670    22564316.577
  22119819.077    -8787760.57849  -6834687.17247  22119818.208    22119832.453
  20284221.529   -22938651.79649 -17865480.67847  20284221.236    20284232.316
  24575430.356    20021582.56349  15736129.92445  24575429.814    24575456.286
 02  4  8 21 25  0.0000000  0  9G22G23G18G15G26G30G10G 6G 5
  24294007.177    -8609077.03949  -3479730.29745  24294005.910    24294027.189
  20585117.932   -22310086.09349 -17040782.86248  20585117.290    20585129.018
  23063990.910   -10087641.39249  -6828538.64846  23063990.413    23064008.854
  22472256.110   -14691786.04649 -11136194.08146  22472255.302    22472272.543
  23035705.104   -11113742.12949  -8625882.05946  23035705.174    23035724.882
  22582936.178     2324617.30849   1829009.44146  22582936.368    22582953.491
  22135715.850    -8704222.72249  -6769592.85247  22135714.964    22135729.277
  20281995.516   -22950349.73249 -17874595.95547  20281995.227    20282006.297
  24595591.872    20127531.64249  15818687.09445  24595591.206    24595618.556
 02  4  8 21 25 30.0000000  0  9G22G23G18G15G26G30G10G 6G 5
  24281805.056    -8673199.47549  -3529695.75345  24281803.827    24281825.141
  20583392.385   -22319153.80249 -17047848.56448  20583391.744    20583403.437
  23044849.033   -10188231.65949  -6906920.28046  23044848.524    23044866.795
  22459897.994   -14756727.80949 -11186797.88846  22459897.197    22459914.436
  23020865.735   -11191722.62549  -8686645.79646  23020865.757    23020885.386
  22601610.071     2422747.04249   1905473.88146  22601610.200    22601627.255
  22151675.494    -8620354.41349  -6704241.03247  22151674.585    22151688.992
  20279847.160   -22961639.44849 -17883393.12947  20279846.864    20279857.923
  24615744.457    20233432.74249  15901206.93945  24615743.835    24615771.538
 02  4  8 21 26  0.0000000  0  9G22G23G18G15G26G30G10G 6G 5
  24269687.383    -8736878.05249  -3579315.31845  24269686.246    24269707.540
  20581765.818   -22327701.36649 -17054508.96148  20581765.181    20581776.867
  23025750.996   -10288590.54549  -6985121.64746  23025750.556    23025768.808
  22447573.453   -14821492.98249 -11237264.09346  22447572.639    22447589.902
  23006083.646   -11269402.13249  -8747175.00645  23006083.650    23006103.132
  22620320.403     2521068.79049   1982087.93746  22620320.468    22620337.561
  22167697.691    -8536157.65149  -6638633.27947  22167696.773    22167711.253
  20277776.912   -22972518.74649 -17891870.50347  20277776.607    20277787.660
  24635887.829    20339284.31849  15983688.14445  24635887.159    24635915.009
 02  4  8 21 26 30.0000000  0  9G22G23G18G15G26G30G10G 6G 5
  24257654.215    -8800111.78649  -3628588.25245  24257653.217    24257674.352
  20580237.907   -22335730.40349 -17060765.30948  20580237.258    20580248.951
  23006697.022   -10388717.19049  -7063142.02346  23006696.588    23006715.027
  22435282.270   -14886082.55349 -11287593.47146  22435281.498    22435298.745
  22991359.273   -11346778.38349  -8807467.91145  22991359.253    22991378.548
  22639066.220     2619578.63349   2058848.58946  22639066.300    22639083.668
  22183781.634    -8451636.39349  -6572772.67247  22183780.708    22183795.227
  20275784.735   -22982987.55149 -17900028.01247  20275784.437    20275795.508
  24656021.209    20445082.75349  16066127.96345  24656020.431    24656048.580
 02  4  8 21 27  0.0000000  0  9G22G23G18G15G26G30G10G 6G 5
  24245706.194    -8862898.26049  -3677512.67045  24245705.208    24245726.471
  20578808.707   -22343240.72449 -17066617.46948  20578808.058    20578819.755
  22987687.861   -10488608.99249  -7140979.43746  22987687.464    22987705.840
  22423024.730   -14950495.78349 -11337785.43646  22423023.984    22423041.178
  22976693.488   -11423847.27549  -8867521.32445  22976693.496    22976712.559
  22657847.404     2718273.97349   2135753.76046  22657847.518    22657864.994
  22199926.917    -8366792.70049  -6506660.82446  22199925.991    22199940.522
  20273871.050   -22993043.82149 -17907864.06547  20273870.791    20273881.867
  24676144.140    20550826.20249  16148524.89845  24676143.222    24676171.180
 02  4  8 21 27 30.0000000  0  9G22G23G18G15G26G30G10G 6G 5
  24233843.530    -8925236.73649  -3726087.98745  24233842.410    24233863.784
  20577477.938   -22350233.77049 -17072066.55748  20577477.299    20577489.002
  22968723.884   -10588265.05849  -7218633.16046  22968723.444    22968741.417
  22410800.572   -15014733.68449 -11387840.79146  22410799.856    22410816.949
  22962086.608   -11500606.53749  -8927333.47046  22962086.578    22962105.399
  22676663.290     2817150.96449   2212800.46746  22676663.402    22676680.785
  22216132.820    -8281630.42449  -6440300.74446  22216131.912    22216146.457
  20272035.928   -23002687.15449 -17915378.35147  20272035.662    20272046.804
  24696255.822    20656511.18149  16230876.29645  24696254.808    24696282.612
 02  4  8 21 28  0.0000000  0  9G22G23G18G15G26G30G10G 6G 5
  24222066.740    -8987124.11849  -3774311.82045  24222065.693    24222087.028
  20576245.694   -22356708.90549 -17077112.08048  20576245.072    20576256.778
  22949805.324   -10687681.97449  -7296100.51346  22949804.802    22949822.655
  22398610.011   -15078795.31249 -11437758.77746  22398609.266    22398626.253
  22947539.562   -11577051.45549  -8986900.66246  22947539.460    22947558.103
  22695513.245     2916207.58949   2289987.13946  22695513.323    22695530.611
  22232399.067    -8196151.01549  -6373693.54046  22232398.171    22232412.724
  20270279.793   -23011915.14849 -17922568.98746  20270279.548    20270290.780
  24716356.021    20762136.27949  16313181.04345  24716355.132    24716382.614
 02  4  8 21 28 30.0000000  0  9G22G23G18G15G26G30G10G 6G 5
  24210376.351    -9048558.64049  -3822182.77845  24210375.335    24210396.601
  20575111.877   -22362666.90249 -17081754.64548  20575111.257    20575122.947
  22930932.484   -10786858.00249  -7373380.20546  22930931.977    22930949.830
  22386452.922   -15142680.92349 -11487539.62546  22386452.132    22386469.024
  22933052.846   -11653178.77549  -9046220.39446  22933052.718    22933071.284
  22714396.971     3015440.78749   2367311.40846  22714397.079    22714414.308
  22248725.157    -8110357.54749  -6306841.62246  22248724.249    22248738.822
  20268602.908   -23020726.76449 -17929435.18446  20268602.688    20268613.998
  24736444.557    20867698.98149  16395437.15545  24736443.645    24736471.201
 02  4  8 21 29  0.0000000  0  9G22G23G18G15G26G30G10G 6G 5
  24198772.367    -9109538.80549  -3869699.67945  24198771.309    24198792.508
  20574076.292   -22368108.62749 -17085994.92248  20574075.694    20574087.371
  22912105.838   -10885791.32449  -7450470.78846  22912105.300    22912123.101
  22374329.259   -15206390.39449 -11537183.20546  22374328.465    22374345.306
  22918627.055   -11728985.48849  -9105290.29946  22918626.935    22918645.568
  22733313.784     3114847.22049   2444770.67146  22733313.923    22733331.214
  22265110.437    -8024252.98549  -6239747.28446  22265109.506    22265124.124
  20267005.536   -23029120.75249 -17935975.95346  20267005.304    20267016.673
  24756520.468    20973196.54749  16477642.53245  24756519.578    24756547.171
 02  4  8 21 29 30.0000000  0  9G22G23G18G15G26G30G10G 6G 5
  24187255.094    -9170062.34949  -3916860.76045  24187254.003    24187275.208
  20573138.936   -22373034.24649 -17089833.04148  20573138.343    20573150.017
  22893325.815   -10984479.18149  -7527370.12246  22893325.291    22893343.077
  22362239.099   -15269923.71049 -11586689.51046  22362238.365    22362255.123
  22904263.083   -11804467.60849  -9164107.27746  22904262.969    22904281.614
  22752262.987     3214424.23949   2522362.86346  22752263.096    22752280.632
  22281554.335    -7937839.87149  -6172412.49746  22281553.411    22281568.131
  20265488.017   -23037095.35849 -17942189.93346  20265487.775    20265499.125
  24776583.231    21078626.80649  16559795.47045  24776582.488    24776610.423
 02  4  8 21 30  0.0000000  0  9G22G23G18G15G26G30G10G 6G 5
  24175825.042    -9230127.08449  -3963664.34645  24175823.956    24175845.120
  20572299.780   -22377443.85749 -17093269.08047  20572299.184    20572310.826
  22874592.945   -11082919.50849  -7604076.55546  22874592.420    22874610.009
  22350182.630   -15333280.37549 -11636058.18846  22350181.871    22350198.614
  22889961.583   -11879621.54349  -9222668.53446  22889961.500    22889980.099
  22771243.942     3314169.43249   2600086.10646  22771244.046    22771262.006
  22298056.464    -7851120.76649  -6104839.28946  22298055.577    22298070.327
  20264050.601   -23044649.13749 -17948075.99146  20264050.360    20264061.680
  24796632.892    21183987.78649  16641894.44445  24796632.228    24796660.668
 02  4  8 21 30 30.0000000  0  8G22G23G18G15G26G30G10G 6
  24164482.891    -9289729.05049  -4010107.31045  24164481.888    24164503.083
  20571559.134   -22381335.82349 -17096301.75747  20571558.536    20571570.147
  22855907.927   -11181107.89149  -7680586.59846  22855907.406    22855924.912
  22338160.198   -15396458.00049 -11685287.35446  22338159.434    22338176.135
  22875723.624   -11954441.52949  -9280969.56846  22875723.536    22875741.984
  22790256.720     3414081.98849   2677939.73646  22790256.903    22790275.042
  22314616.913    -7764095.89949  -6037027.83946  22314616.033    22314630.702
  20262693.945   -23051778.58849 -17953631.41046  20262693.679    20262704.943
 02  4  8 21 31  0.0000000  0  8G22G23G18G15G26G30G10G 6
  24153228.396    -9348870.26749  -4056191.25045  24153227.459    24153248.759
  20570916.148   -22384714.64749 -17098934.58747  20570915.542    20570927.110
  22837270.359   -11279046.07549  -7756901.79846  22837269.898    22837287.535
  22326171.109   -15459460.55649 -11734380.11046  22326170.334    22326186.922
  22861549.096   -12028927.93949  -9339010.66846  22861549.059    22861567.340
  22809300.210     3514155.00149   2755918.39646  22809300.439    22809318.341
  22331234.291    -7676771.97249  -5968983.34747  22331233.368    22331247.989
  20261417.541   -23058486.25449 -17958858.16946  20261417.272    20261428.534
 02  4  8 21 31 30.0000000  0  8G22G23G18G15G26G30G10G 6
  24142062.139    -9407548.42649  -4101914.35745  24142061.269    24142082.493
  20570370.788   -22387580.47649 -17101167.67947  20570370.189    20570381.708
  22818680.934   -11376731.57949  -7833020.04746  22818680.477    22818698.405
  22314215.485   -15522287.49649 -11783336.00546  22314214.681    22314231.157
  22847438.806   -12103077.01949  -9396788.93546  22847438.788    22847456.986
  22828373.950     3614386.17749   2834020.27546  22828374.165    22828391.790
  22347908.167    -7589151.09749  -5900707.47347  22347907.225    22347921.885
  20260221.714   -23064770.39349 -17963754.90147  20260221.441    20260232.699
 02  4  8 21 32  0.0000000  0  8G22G23G18G15G26G30G10G 6
  24130984.591    -9465761.83049  -4147275.32145  24130983.707    24131004.794
  20569922.962   -22389933.84549 -17103001.44747  20569922.349    20569933.838
  22800140.494   -11474162.35749  -7908939.84246  22800140.001    22800157.726
  22302293.223   -15584938.80749 -11832155.05246  22302292.425    22302308.808
  22833393.320   -12176885.36949  -9454301.69446  22833393.321    22833411.500
  22847477.268     3714772.36249   2912242.95446  22847477.409    22847494.848
  22364637.972    -7501236.09449  -5832202.39547  22364637.033    22364651.724
  20259106.732   -23070629.66349 -17968320.56947  20259106.462    20259117.680
 02  4  8 21 32 30.0000000  0  8G22G23G18G15G26G30G10G 6
  24119995.858    -9523508.57549  -4192272.65945  24119994.945    24120015.855
  20569572.497   -22391775.43149 -17104436.42847  20569571.882    20569583.367
  22781648.951   -11571336.60449  -7984659.71146  22781648.373    22781665.900
  22290404.413   -15647414.42449 -11880837.20646  22290403.605    22290419.916
  22819413.409   -12250349.53749  -9511546.26746  22819413.359    22819431.494
  22866609.308     3815310.63049   2990584.14346  22866609.395    22866626.881
  22381423.230    -7413029.60849  -5763470.20047  22381422.294    22381436.978
  20258072.916   -23076062.78049 -17972554.17347  20258072.618    20258083.763
 02  4  8 21 33  0.0000000  0  8G22G23G18G15G26G30G10G 6
  24109096.039    -9580787.07849  -4236905.12545  24109095.061    24109116.060
  20569319.294   -22393106.00649 -17105473.21747  20569318.687    20569330.118
  22763206.278   -11668252.23049  -8060178.09046  22763205.692    22763223.187
  22278549.056   -15709714.32149 -11929382.42746  22278548.232    22278564.485
  22805499.639   -12323466.11449  -9568519.99146  22805499.552    22805517.611
  22885769.487     3915997.97749   3069041.52546  22885769.641    22885787.398
  22398263.413    -7324534.63249  -5694513.20846  22398262.465    22398277.165
  20257120.427   -23081068.59649 -17976454.81747  20257120.128    20257131.208
 02  4  8 21 33 30.0000000  0  8G22G23G18G15G26G30G10G 6
  24098285.486    -9637594.78549  -4281170.75945  24098284.625    24098305.888
  20569163.286   -22393925.76949 -17106111.97247  20569162.665    20569174.087
  22744813.196   -11764906.16449  -8135492.55446  22744812.615    22744830.243
  22266727.280   -15771837.91949 -11977790.26446  22266726.456    22266742.584
  22791652.670   -12396231.05849  -9625219.73346  22791652.528    22791670.533
  22904957.870     4016832.41849   3147613.49346  22904958.077    22904976.038
  22415158.054    -7235753.18049  -5625332.98746  22415157.099    22415171.862
  20256249.619   -23085645.04349 -17980020.88847  20256249.320    20256260.337
 02  4  8 21 34  0.0000000  0  8G22G23G18G15G26G30G10G 6
  24087564.806    -9693930.34349  -4325068.48445  24087563.937    24087585.581
  20569104.329   -22394235.53849 -17106353.32647  20569103.706    20569115.149
  22726470.292   -11861297.02549  -8210602.02546  22726469.742    22726487.259
  22254938.990   -15833785.28349 -12026060.77546  22254938.177    22254954.221
  22777873.252   -12468641.21349  -9681643.01546  22777873.137    22777891.097
  22924173.674     4117810.52049   3226297.40746  22924173.805    22924191.999
  22432106.612    -7146688.24949  -5555931.87946  22432105.676    22432120.499
  20255460.701   -23089791.16349 -17983251.63747  20255460.367    20255471.346
 02  4  8 21 34 30.0000000  0  8G22G23G18G15G26G30G10G 6
  24076934.563    -9749792.14949  -4368597.03545  24076933.765    24076955.210
  20569142.247   -22394036.14149 -17106197.93047  20569141.630    20569153.087
  22708178.051   -11957422.78649  -8285504.90546  22708177.506    22708194.738
  22243184.167   -15895556.44549 -12074193.99646  22243183.315    22243199.318
  22764161.969   -12540693.24749  -9737787.26146  22764161.869    22764179.854
  22943416.011     4218929.27249   3305090.91346  22943416.173    22943434.670
  22449108.615    -7057342.69449  -5486312.10446  22449107.666    22449122.562
  20254753.887   -23093505.73449 -17986146.11647  20254753.566    20254764.465
 02  4  8 21 35  0.0000000  0  8G22G23G18G15G26G30G10G 6
  24066394.894    -9805178.79549  -4411755.32845  24066393.982    24066415.202
  20569276.867   -22393328.54549 -17105646.53147  20569276.266    20569287.727
  22689936.662   -12053281.57449  -8360199.76746  22689936.124    22689953.176
  22231462.718   -15957151.67149 -12122190.11746  22231461.900    22231477.940
  22750519.420   -12612384.12349  -9793650.08446  22750519.334    22750537.443
  22962684.680     4320185.59049   3383991.62146  22962684.844    22962703.399
  22466163.370    -6967719.57949  -5416476.04846  22466162.430    22466177.391
  20254129.325   -23096787.89449 -17988703.64547  20254129.018    20254139.868
 02  4  8 21 35 30.0000000  0  8G22G23G18G15G26G30G10G 6
  24055946.046    -9860088.36349  -4454541.85445  24055945.026    24055965.971
  20569508.108   -22392113.32349 -17104699.58447  20569507.516    20569518.971
  22671746.405   -12148871.35049  -8434685.01646  22671745.848    22671762.827
  22219774.774   -16018570.62949 -12170048.91046  22219773.981    22219790.077
  22736946.271   -12683710.33049  -9849228.73946  22736946.160    22736964.327
  22981979.094     4421576.59849   3462997.25046  22981979.316    22981997.689
  22483270.516    -6877821.30149  -5346425.59446  22483269.606    22483284.523
  20253587.304   -23099636.34449 -17990923.22447  20253587.003    20253597.810
 02  4  8 21 36  0.0000000  0  8G22G23G18G15G26G30G10G 6
  24045588.077    -9914519.55249  -4496955.64545  24045586.977    24045607.795
  20569835.774   -22390391.52349 -17103357.89947  20569835.179    20569846.618
  22653607.541   -12244190.39749  -8508959.31446  22653606.995    22653623.925
  22208120.367   -16079813.91349 -12217770.79446  22208119.579    22208135.739
  22723443.118   -12754668.79149  -9904520.83346  22723442.978    22723461.120
  23001298.536     4523099.15049   3542105.39546  23001298.751    23001317.075
  22500429.461    -6787650.91549  -5276163.09946  22500428.547    22500443.482
  20253127.941   -23102050.26749 -17992804.21147  20253127.641    20253138.451
 02  4  8 21 36 30.0000000  0  8G22G23G18G15G26G30G10G 6
  24035321.453    -9968469.87449  -4538994.74145  24035320.395    24035341.215
  20570259.837   -22388163.14749 -17101621.48347  20570259.236    20570270.681
  22635520.823   -12339235.95149  -8583020.49546  22635520.265    22635536.950
  22196499.528   -16140880.72549 -12265355.17046  22196498.764    22196514.960
  22710010.832   -12825255.33249  -9959523.12046  22710010.717    22710028.672
  23020642.389     4624750.94749   3621314.27846  23020642.560    23020661.071
  22517639.762    -6697210.50249  -5205690.20146  22517638.863    22517653.871
  20252751.689   -23104027.48849 -17994344.91047  20252751.402    20252762.204
 02  4  8 21 37  0.0000000  0  8G22G23G18G15G26G30G10G 6
  24025146.398   -10021938.56449  -4580658.54245  24025145.468    24025166.172
  20570779.974   -22385429.86049 -17099491.63047  20570779.356    20570790.814
  22617486.487   -12434006.57649  -8656867.44546  22617485.911    22617502.364
  22184912.218   -16201771.49149 -12312802.37146  22184911.476    22184927.654
  22696649.765   -12895467.48649 -10014233.67946  22696649.627    22696667.462
  23040010.166     4726528.40049   3700621.06546  23040010.332    23040028.940
  22534900.848    -6606503.08649  -5135009.22846  22534899.963    22534915.118
  20252458.582   -23105567.67449 -17995545.06647  20252458.295    20252469.136
 02  4  8 21 37 30.0000000  0  8G22G23G18G15G26G30G10G 6
  24015063.581   -10074923.61749  -4621945.48045  24015062.738    24015083.284
  20571396.100   -22382192.07349 -17096968.66147  20571395.469    20571406.935
  22599504.706   -12528500.30849  -8730498.63646  22599504.169    22599520.521
  22173358.574   -16262485.98149 -12360112.21946  22173357.774    22173373.936
  22683360.565   -12965301.41649 -10068649.51046  22683360.507    22683378.271
  23059401.482     4828429.05749   3780023.85946  23059401.628    23059420.279
  22552212.304    -6515531.23549  -5064122.21146  22552211.449    22552226.635
  20252248.947   -23106669.22949 -17996403.42747  20252248.660    20252259.508
 02  4  8 21 38  0.0000000  0  8G22G23G18G15G26G30G10G 6
  24005073.004   -10127424.21549  -4662854.92445  24005072.115    24005092.601
  20572107.905   -22378451.32649 -17094053.77847  20572107.277    20572118.778
  22581575.909   -12622715.70349  -8803912.93546  22581575.351    22581591.715
  22161838.357   -16323024.85449 -12407285.22046  22161837.579    22161853.729
  22670143.880   -13034754.46649 -10122768.56146  22670143.866    22670161.534
  23078815.514     4930449.23649   3859519.76346  23078815.757    23078834.488
  22569573.541    -6424298.47249  -4993031.88746  22569572.620    22569587.784
  20252122.853   -23107331.72649 -17996919.66947  20252122.567    20252133.465
 02  4  8 21 38 30.0000000  0  8G22G23G18G15G26G30G10G 6
  23995175.035   -10179438.09549  -4703385.11745  23995174.067    23995194.606
  20572915.369   -22374208.10649 -17090747.35447  20572914.738    20572926.246
  22563700.568   -12716650.20849  -8877108.36546  22563700.016    22563716.311
  22150351.683   -16383387.59849 -12454320.98946  22150350.931    22150367.048
  22657000.438   -13103822.94549 -10176587.93746  22657000.436    22657017.984
  23098251.846     5032586.45449   3939106.87346  23098252.103    23098270.961
  22586983.943    -6332806.99549  -4921739.96946  22586982.977    22586998.147
  20252080.647   -23107553.49949 -17997092.48947  20252080.376    20252091.263
 02  4  8 21 39  0.0000000  0  8G22G23G18G15G26G30G10G 6
  23985369.692   -10230964.24149  -4743535.24445  23985368.816    23985389.398
  20573818.176   -22369463.63549 -17087050.35147  20573817.553    20573829.069
  22545878.923   -12810302.44949  -8950083.86246  22545878.383    22545894.589
  22138898.572   -16443574.41549 -12501219.66646  22138897.780    22138913.875
  22643930.780   -13172503.85949 -10230105.32146  22643930.743    22643948.161
  23117709.829     5134837.48249   4018782.63646  23117710.052    23117729.098
  22604442.821    -6241059.88949  -4850248.83546  22604441.841    22604457.207
  20252122.440   -23107334.03649 -17996921.48947  20252122.148    20252133.022
 02  4  8 21 39 30.0000000  0  8G22G23G18G15G26G30G10G 6
  23975657.521   -10282000.91849  -4783303.99345  23975656.639    23975677.370
  20574816.227   -22364218.66649 -17082963.34947  20574815.622    20574827.160
  22528111.402   -12903670.28249  -9022837.73146  22528110.884    22528126.928
  22127478.857   -16503584.95249 -12547980.98246  22127478.076    22127494.157
  22630935.570   -13240793.63949 -10283317.94246  22630935.510    22630952.813
  23137189.014     5237199.52449   4098544.94446  23137189.166    23137208.323
  22621949.887    -6149059.72449  -4778560.52446  22621948.930    22621964.426
  20252248.465   -23106671.94249 -17996405.58447  20252248.170    20252259.036
 02  4  8 21 40  0.0000000  0  8G22G23G18G15G26G30G10G 6
  23966038.833   -10332546.31049  -4822689.92245  23966038.018    23966058.892
  20575909.449   -22358473.67249 -17078486.71847  20575908.835    20575920.383
  22510398.440   -12996751.23649  -9095368.05346  22510397.936    22510413.846
  22116092.761   -16563418.84849 -12594604.65546  22116091.988    22116108.009
  22618015.397   -13308688.86349 -10336223.10546  22618015.354    22618032.561
  23156688.806     5339670.12549   4178391.83646  23156688.897    23156708.198
  22639504.851    -6056808.64049  -4706676.71146  22639503.907    22639519.354
  20252458.983   -23105565.60149 -17995543.51447  20252458.685    20252469.566
 02  4  8 21 40 30.0000000  0  8G22G23G18G15G26G30G10G 6
  23956513.988   -10382599.84549  -4861692.55645  23956513.141    23956533.908
  20577097.416   -22352230.69449 -17073622.04947  20577096.802    20577108.368
  22492740.256   -13089544.42249  -9167674.16446  22492739.731    22492755.563
  22104740.120   -16623076.82049 -12641091.24746  22104739.318    22104755.260
  22605170.821   -13376187.11449 -10388818.94246  22605170.796    22605187.957
  23176208.429     5442245.36649   4258320.23546  23176208.565    23176227.859
  22657106.824    -5964310.41549  -4634600.32446  22657105.882    22657121.293
  20252754.006   -23104015.03049 -17994335.28847  20252753.740    20252764.637
 02  4  8 21 41  0.0000000  0  8G22G23G18G15G26G30G10G 6
  23947083.138   -10432159.75149  -4900310.56645  23947082.210    23947102.732
  20578379.995   -22345490.42049 -17068369.87647  20578379.384    20578390.981
  22475137.258   -13182047.84149  -9239754.47646  22475136.717    22475152.545
  22093420.924   -16682558.94749 -12687440.81446  22093420.143    22093436.034
  22592402.395   -13443284.87749 -10441102.70946  22592402.376    22592419.510
  23195747.505     5544922.56049   4338328.10346  23195747.687    23195766.912
  22674755.355    -5871567.28549  -4562333.09046  22674754.404    22674769.846
  20253133.897   -23102018.85049 -17992779.83347  20253133.607    20253144.543
 02  4  8 21 41 30.0000000  0  8G22G23G18G15G26G30G10G 6
  23937746.351   -10481224.48949  -4938542.71545  23937745.483    23937765.689
  20579757.078   -22338253.61749 -17062730.79647  20579756.471    20579768.075
  22457589.825   -13274259.35949  -9311607.34046  22457589.295    22457605.138
  22082135.220   -16741865.03349 -12733653.21346  22082134.397    22082150.308
  22579710.799   -13509978.65549 -10493071.67646  22579710.812    22579727.952
  23215305.592     5647699.15449   4418413.42346  23215305.698    23215325.024
  22692450.040    -5778581.66649  -4489876.91146  22692449.084    22692464.445
  20253598.817   -23099575.75249 -17990876.13148  20253598.545    20253609.505
 02  4  8 21 42  0.0000000  0  8G22G23G18G15G26G30G10G 6
  23928504.081   -10529792.33149  -4976387.68745  23928503.242    23928523.170
  20581228.473   -22330521.06449 -17056705.41647  20581227.883    20581239.514
  22440098.249   -13366176.67249  -9383230.97346  22440097.704    22440113.617
  22070883.045   -16800994.87649 -12779728.29046  22070882.216    22070898.146
  22567096.767   -13576265.07149 -10544723.22546  22567096.824    22567113.817
  23234881.877     5750572.20749   4498573.89146  23234881.995    23234901.561
  22710190.460    -5685356.38949  -4417234.00146  22710189.482    22710204.682
  20254148.994   -23096684.57449 -17988623.27448  20254148.725    20254159.715
 02  4  8 21 42 30.0000000  0  8G22G23G18G15G26G30G10G 6
  23919356.432   -10577862.61449  -5013844.94545  23919355.565    23919375.587
  20582793.911   -22322294.56349 -17050295.14547  20582793.329    20582804.947
  22422662.818   -13457798.67049  -9454624.46546  22422662.294    22422678.133
  22059664.303   -16859949.07849 -12825666.49646  22059663.513    22059679.355
  22554560.728   -13642141.69849 -10596055.44446  22554560.773    22554577.623
  23254475.951     5853538.19449   4578806.78946  23254476.070    23254495.817
  22727975.756    -5591895.00249  -4344407.09346  22727974.741    22727989.898
  20254784.485   -23093345.04149 -17986021.04948  20254784.215    20254795.224
 02  4  8 21 43  0.0000000  0  8G22G23G18G15G26G30G10G 6
  23910304.128   -10625433.12349  -5050912.78445  23910303.201    23910323.105
  20584453.285   -22313574.25649 -17043500.09147  20584452.710    20584464.330
  22405284.293   -13549122.68649  -9525785.77746  22405283.755    22405299.394
  22048479.294   -16918726.77549 -12871467.15246  22048478.496    22048494.183
  22542103.457   -13707604.47649 -10647065.19346  22542103.507    22542120.169
  23274087.372     5956595.04849   4659110.48646  23274087.484    23274107.216
  22745805.551    -5498199.29549  -4271397.60346  22745804.517    22745819.819
  20255505.657   -23089555.37549 -17983068.06948  20255505.365    20255516.387
 02  4  8 21 43 30.0000000  0  8G22G23G18G15G26G30G10G 6
  23901347.056   -10672503.16549  -5087590.65845  23901346.163    23901365.894
  20586206.321   -22304361.98649 -17036321.68747  20586205.736    20586217.336
  22387962.638   -13640147.77249  -9596714.13446  22387962.077    22387977.659
  22037327.762   -16977328.61349 -12917130.78047  22037326.986    22037342.489
  22529725.348   -13772650.88549 -10697750.50446  22529725.347    22529741.945
  23293715.290     6059739.17849   4739482.17146  23293715.346    23293735.172
  22763679.296    -5404272.38849  -4198207.95246  22763678.263    22763693.744
  20256312.516   -23085315.15449 -17979764.00948  20256312.237    20256323.291
 02  4  8 21 44  0.0000000  0  8G22G23G18G15G26G30G10G 6
  23892485.670   -10719070.59449  -5123876.85745  23892484.776    23892504.236
  20588052.965   -22294657.97149 -17028760.10847  20588052.368    20588063.956
  22370698.188   -13730871.19949  -9667407.49346  22370697.649    22370713.381
  22026209.832   -17035753.72449 -12962656.70447  22026209.033    22026224.422
  22517427.138   -13837276.92149 -10748108.26446  22517427.160    22517443.761
  23313359.259     6162968.47449   4819920.21546  23313359.297    23313379.436
  22781596.764    -5310116.07149  -4124839.55546  22781595.759    22781611.268
  20257205.470   -23080622.63449 -17976107.51048  20257205.189    20257216.277
 02  4  8 21 44 30.0000000  0  8G22G23G18G15G26G30G10G 6
  23883719.900   -10765134.89849  -5159771.02945  23883719.045    23883738.372
  20589992.838   -22284463.88149 -17020816.64747  20589992.225    20590003.792
  22353491.403   -13821291.59449  -9737864.70346  22353490.911    22353506.725
  22015125.335   -17094002.85249 -13008045.51147  22015124.557    22015139.896
  22505209.533   -13901480.12649 -10798136.54446  22505209.598    22505226.030
  23333018.876     6266279.39449   4900421.88146  23333018.946    23333039.334
  22799557.278    -5215733.72449  -4051295.03246  22799556.276    22799571.718
  20258184.521   -23075477.52049 -17972098.33848  20258184.241    20258195.377
 02  4  8 21 45  0.0000000  0  8G22G23G18G15G26G30G10G 6
  23875049.842   -10810694.93649  -5195272.25545  23875049.039    23875068.337
  20592025.686   -22273781.24549 -17012492.50247  20592025.068    20592036.590
  22336342.820   -13911407.54549  -9808084.69246  22336342.342    22336357.987
  22004074.226   -17152076.34049 -13053297.45847  22004073.437    22004088.841
  22493073.083   -13965257.67449 -10847833.13546  22493073.109    22493089.308
  23352693.622     6369668.85249   4980984.74146  23352693.725    23352714.128
  22817560.177    -5121128.41249  -3977576.79046  22817559.212    22817574.528
  20259249.808   -23069879.27349 -17967736.07848  20259249.543    20259260.700
 02  4  8 21 45 30.0000000  0  8G22G23G18G15G26G30G10G 6
  23866476.088   -10855749.21949  -5230379.37945  23866475.214    23866494.578
  20594151.341   -22262610.92849 -17003788.34847  20594150.726    20594162.217
  22319252.649   -14001216.96049  -9878065.80546  22319252.123    22319267.559
  21993056.592   -17209973.77249 -13098412.21847  21993055.795    21993071.230
  22481018.163   -14028606.08949 -10897195.34146  22481018.165    22481034.174
  23372382.834     6473134.05249   5061606.59846  23372382.876    23372403.143
  22835605.095    -5026302.52149  -3903686.65846  22835604.120    22835619.395
  20260401.601   -23063826.51649 -17963019.66148  20260401.336    20260412.510
 02  4  8 21 46  0.0000000  0  8G22G23G18G15G26G30G10G 6
  23857999.011   -10900296.32049  -5265091.26045  23857998.092    23858017.196
  20596369.597   -22250954.00849 -16994705.02547  20596368.990    20596380.444
  22302221.086   -14090718.00149  -9947806.65146  22302220.494    22302235.820
  21982072.461   -17267695.24449 -13143389.88247  21982071.629    21982087.119
  22469045.402   -14091522.09949 -10946220.61246  22469045.384    22469061.420
  23392085.731     6576672.32949   5142285.39646  23392085.776    23392106.151
  22853691.533    -4931258.70749  -3829626.68046  22853690.519    22853705.835
  20261640.114   -23057318.15149 -17957948.21447  20261639.859    20261651.046
 02  4  8 21 46 30.0000000  0  8G22G23G18G15G26G30G10G 6
  23849618.811   -10944334.60349  -5299406.71845  23849617.903    23849636.808
  20598680.315   -22238811.17449 -16985243.06347  20598679.691    20598691.144
  22285248.453   -14179908.18749 -10017305.29446  22285247.865    22285263.252
  21971121.781   -17325240.14449 -13188229.95046  21971120.990    21971136.534
  22457155.592   -14154002.28749 -10994906.29646  22457155.575    22457171.669
  23411801.767     6680281.18149   5223019.21845  23411801.996    23411822.718
  22871818.965    -4835999.12349  -3755398.61146  22871817.950    22871833.282
  20262965.551   -23050353.00149 -17952520.83447  20262965.281    20262976.484
 02  4  8 21 47  0.0000000  0  8G22G23G18G15G26G30G10G 6
  23841335.629   -10987863.36149  -5333325.10045  23841334.847    23841353.546
  20601083.087   -22226184.29249 -16975403.92447  20601082.477    20601093.928
  22268335.167   -14268786.52249 -10086560.93146  22268334.603    22268350.059
  21960204.637   -17382608.85049 -13232932.74146  21960203.858    21960219.489
  22445349.408   -14216044.03449 -11043250.31546  22445349.348    22445365.473
  23431530.729     6783957.05349   5303805.28245  23431531.007    23431551.895
  22889986.782    -4740527.03649  -3681004.93646  22889985.782    22890001.082
  20264378.013   -23042930.55549 -17946737.11947  20264377.743    20264388.930
 02  4  8 21 47 30.0000000  0  9G22G23G18G15G26G30G29G10G 6
  23833148.595   -11030886.63649  -5366849.62045  23833147.626    23833166.698
  20603576.812   -22213079.79249 -16965192.61347  20603576.211    20603587.632
  22251480.728   -14357356.67749 -10155576.38946  22251480.151    22251495.456
  21949319.995   -17439806.66049 -13277502.35846  21949319.243    21949334.928
  22433626.191   -14277649.48849 -11091254.39646  22433626.044    22433642.245
  23451271.248     6887692.03449   5384637.36945  23451271.442    23451292.214
  24452801.435    -5391764.92149  -4180262.66345  24452801.439    24452829.165
  22908193.455    -4644850.51949  -3606451.96146  22908192.448    22908207.852
  20265876.658   -23035055.33249 -17940600.59147  20265876.386    20265887.571
 02  4  8 21 48  0.0000000  0  9G22G23G18G15G26G30G29G10G 6
  23825059.151   -11073396.47649  -5399974.06745  23825058.216    23825077.435
  20606162.484   -22199492.05449 -16954604.75547  20606161.861    20606173.285
  22234686.590   -14445609.76049 -10224344.78146  22234686.028    22234701.212
  21938469.297   -17496826.68049 -13321933.43346  21938468.574    21938484.263
  22421987.751   -14338808.79349 -11138910.82046  22421987.622    22422003.876
  23471023.723     6991489.87149   5465518.40645  23471023.809    23471044.446
  24434294.811    -5489014.89349  -4256041.22045  24434294.891    24434322.774
  22926439.912    -4548964.91649  -3531736.04746  22926438.946    22926454.541
  20267462.913   -23026719.71249 -17934105.31647  20267462.648    20267473.805
 02  4  8 21 48 30.0000000  0  9G22G23G18G15G26G30G29G10G 6
  23817067.643   -11115391.11949  -5432697.07045  23817066.649    23817086.198
  20608839.987   -22185421.75149 -16943640.87547  20608839.377    20608850.753
  22217953.033   -14533543.52949 -10292864.38446  22217952.482    22217967.738
  21927652.626   -17553668.46149 -13366225.60746  21927651.902    21927667.485
  22410434.737   -14399518.42749 -11186216.84846  22410434.659    22410450.938
  23490787.435     7095348.44649   5546446.76645  23490787.566    23490808.472
  24415775.599    -5586330.43449  -4331870.83245  24415775.571    24415804.082
  22944725.780    -4452872.57549  -3456859.04846  22944724.847    22944740.625
  20269137.043   -23017922.32449 -17927250.22647  20269136.769    20269147.929
 02  4  8 21 49  0.0000000  0  9G22G23G18G15G26G30G29G10G 6
  23809174.181   -11156870.63249  -5465018.67145  23809173.242    23809193.032
  20611608.863   -22170871.22649 -16932302.79547  20611608.251    20611619.609
  22201280.419   -14621157.40749 -10361134.71646  22201279.894    22201295.178
  21916869.697   -17610333.17849 -13410379.80346  21916868.937    21916884.359
  22398967.821   -14459776.34249 -11233170.89746  22398967.748    22398983.965
  23510562.053     7199263.61149   5627419.26145  23510562.314    23510583.354
  24397244.680    -5683709.94249  -4407750.38045  24397244.549    24397272.820
  22963050.390    -4356577.21749  -3381823.85946  22963049.451    22963065.274
  20270898.965   -23008663.45449 -17920035.54547  20270898.689    20270909.837
 02  4  8 21 49 30.0000000  0  9G22G23G18G15G26G30G29G10G 6
  23801378.858   -11197834.92849  -5496938.77945  23801377.909    23801397.669
  20614468.681   -22155842.87149 -16920592.38047  20614468.061    20614479.421
  22184669.028   -14708450.64649 -10429155.19246  22184668.484    22184683.632
  21906120.200   -17666821.76349 -13454396.73546  21906119.449    21906134.700
  22387587.336   -14519580.50849 -11279771.36846  22387587.246    22387603.408
  23530347.069     7303231.71949   5708433.00145  23530347.218    23530368.257
  24378701.878    -5781151.88149  -4483678.42945  24378701.816    24378729.531
  22981412.833    -4260082.41949  -3306633.25446  22981411.870    22981427.784
  20272748.713   -22998943.21749 -17912461.34848  20272748.438    20272759.601
 02  4  8 21 50  0.0000000  0  9G22G23G18G15G26G30G29G10G 6
  23793681.832   -11238282.62849  -5528456.35145  23793680.957    23793700.699
  20617419.231   -22140337.60949 -16908510.35347  20617418.588    20617429.953
  22168119.100   -14795421.24849 -10496924.27846  22168118.541    22168133.506
  21895404.375   -17723133.79449 -13498276.10546  21895403.598    21895418.700
  22376293.831   -14578927.76849 -11326015.82946  22376293.694    22376309.889
  23550141.373     7407249.79449   5789485.70145  23550141.447    23550162.539
  24360147.844    -5878653.17249  -4559652.86845  24360147.483    24360174.774
  22999812.746    -4163390.37449  -3231288.95846  22999811.791    22999827.796
  20274686.400   -22988760.63549 -17904526.89148  20274686.117    20274697.257
 02  4  8 21 50 30.0000000  0  9G22G23G18G15G26G30G29G10G 6
  23786083.321   -11278212.57849  -5559570.47445  23786082.468    23786102.234
  20620460.255   -22124356.85649 -16896057.81047  20620459.623    20620471.003
  22151630.715   -14882067.66749 -10564440.74846  22151630.126    22151644.997
  21884722.027   -17779269.60049 -13542018.15446  21884721.253    21884736.236
  22365087.747   -14637815.24949 -11371902.01146  22365087.632    22365103.878
  23569944.387     7511315.29149   5870575.32145  23569944.457    23569965.919
  24341581.888    -5976211.30949  -4635671.51444  24341581.386    24341609.063
  23018249.713    -4066504.14149  -3155793.34546  23018248.768    23018264.788
  20276712.250   -22978114.85849 -17896231.50348  20276711.964    20276723.079
 02  4  8 21 51  0.0000000  0  9G22G23G18G15G26G30G29G10G 6
  23778583.558   -11317623.71649  -5590280.34945  23778582.690    23778602.499
  20623591.506   -22107901.80249 -16883235.68847  20623590.875    20623602.280
  22135204.267   -14968387.74249 -10631702.93446  22135203.738    22135218.517
  21874073.308   -17835228.75349 -13585622.55646  21874072.505    21874087.462
  22353969.818   -14696239.74549 -11417427.43346  22353969.759    22353985.984
  23589756.038     7615425.37249   5951699.67845  23589756.192    23589777.753
  24323006.127    -6073823.28049  -4711732.20044  24323005.894    24323033.667
  23036723.240    -3969426.06849  -3080148.24846  23036722.249    23036738.314
  20278826.428   -22967004.95449 -17887574.45948  20278826.141    20278837.251
 02  4  8 21 51 30.0000000  0  9G22G23G18G15G26G30G29G10G 6
  23771182.546   -11356515.39849  -5620585.46745  23771181.634    23771201.646
  20626812.664   -22090974.46049 -16870045.54747  20626812.035    20626823.452
  22118840.115   -15054380.52249 -10698710.08246  22118839.636    22118854.265
  21863458.053   -17891011.69049 -13629089.64946  21863457.294    21863472.266
  22342940.532   -14754198.75349 -11462590.12646  22342940.465    22342956.606
  23609575.639     7719576.48349   6032855.99145  23609575.740    23609597.434
  24304420.791    -6171487.17549  -4787833.28945  24304420.661    24304448.102
  23055232.475    -3872159.43349  -3004356.22046  23055231.476    23055247.655
  20281028.914   -22955430.90349 -17878555.74448  20281028.636    20281039.719
 02  4  8 21 52  0.0000000  0  9G22G23G18G15G26G30G29G10G 6
  23763880.643   -11394886.70749  -5650485.08045  23763879.669    23763899.847
  20630123.502   -22073575.87549 -16856488.20647  20630122.873    20630134.311
  22102538.778   -15140044.19449 -10765460.77646  22102538.262    22102552.748
  21852876.341   -17946618.29149 -13672419.33846  21852875.580    21852890.628
  22332000.316   -14811689.35949 -11507387.83946  22332000.288    22332016.275
  23629402.602     7823766.27549   6114042.45445  23629402.733    23629424.615
  24285826.482    -6269199.97049  -4863972.48245  24285826.174    24285853.487
  23073777.034    -3774706.67749  -2928419.15046  23073776.097    23073792.363
  20283319.881   -22943391.81449 -17869174.65748  20283319.610    20283330.678
 02  4  8 21 52 30.0000000  0  9G22G23G18G15G26G30G29G10G 6
  23756678.021   -11432736.25549  -5679978.14145  23756677.134    23756697.325
  20633523.816   -22055707.03049 -16842564.42947  20633523.199    20633534.658
  22086300.378   -15225376.86749 -10831953.55846  22086299.833    22086314.276
  21842328.246   -18002048.18149 -13715611.33146  21842327.492    21842342.583
  22321149.886   -14868708.17249 -11551817.92746  22321149.840    22321165.799
  23649236.490     7927991.99549   6195256.90545  23649236.762    23649258.344
  24267223.005    -6366958.60549  -4940147.39644  24267222.752    24267249.785
  23092356.821    -3677069.83749  -2852338.65046  23092355.904    23092372.199
  20285699.585   -22930886.45549 -17859430.24448  20285699.323    20285710.386
 02  4  8 21 53  0.0000000  0  9G22G23G18G15G26G30G29G10G 6
  23749574.777   -11470064.23249  -5709064.77945  23749573.852    23749593.981
  20637013.166   -22037370.40549 -16828276.14847  20637012.544    20637024.031
  22070125.015   -15310377.88149 -10898187.91046  22070124.471    22070138.965
  21831813.553   -18057302.47549 -13758666.50146  21831812.781    21831827.960
  22310389.571   -14925253.35049 -11595878.95246  22310389.539    22310405.569
  23669076.562     8032249.80049   6276496.34445  23669076.848    23669098.000
  24248611.295    -6464761.42148  -5016356.80044  24248610.959    24248637.381
  23110971.105    -3579252.56349  -2776117.55746  23110970.158    23110986.414
  20288167.953   -22917915.32249 -17849322.88548  20288167.674    20288178.705
 02  4  8 21 53 30.0000000  0  9G22G23G18G15G26G30G29G10G 6
  23742571.070   -11506868.59049  -5737743.39245  23742570.131    23742590.175
  20640591.408   -22018566.56249 -16813623.80547  20640590.786    20640602.306
  22054013.161   -15395044.54649 -10964161.73946  22054012.665    22054027.213
  21821332.441   -18112380.21249 -13801584.09546  21821331.687    21821346.912
  22299720.041   -14981321.26449 -11639568.08846  22299720.036    22299736.197
  23688922.341     8136537.69449   6357759.27545  23688922.569    23688943.441
  24229991.202    -6562605.02449  -5092597.88844  24229990.877    24230018.064
  23129619.348    -3481256.59749  -2699757.20846  23129618.358    23129634.746
  20290725.269   -22904476.80649 -17838851.32848  20290724.973    20290736.008
 02  4  8 21 54  0.0000000  0  9G22G23G18G15G26G30G29G10G 6
  23735667.064   -11543148.69049  -5766013.49545  23735666.200    23735686.087
  20644258.250   -21999297.13749 -16798608.67147  20644257.628    20644269.171
  22037965.355   -15479375.49049 -11029873.95746  22037964.865    22037979.388
  21810884.964   -18167281.66149 -13844364.31847  21810884.219    21810899.486
  22289141.877   -15036909.00349 -11682883.06546  22289141.869    22289158.120
  23708773.114     8240852.85749   6439043.42645  23708773.337    23708794.453
  24211364.864    -6660486.57549  -5168868.72444  24211364.642    24211391.740
  23148300.918    -3383084.62449  -2623259.71346  23148299.965    23148316.510
  20293371.624   -22890570.34149 -17828015.13448  20293371.311    20293382.352
 02  4  8 21 54 30.0000000  0  9G22G23G18G15G26G30G29G10G 6
  23728862.908   -11578904.01849  -5793874.69045  23728862.101    23728881.833
  20648013.342   -21979563.86449 -16783232.09947  20648012.738    20648024.268
  22021981.753   -15563369.52849 -11095323.65346  22021981.220    22021995.722
  21800471.001   -18222007.10049 -13887007.38947  21800470.259    21800485.525
  22278655.617   -15092014.15449 -11725821.99946  22278655.608    22278671.857
  23728628.584     8345191.87849   6520346.18145  23728628.662    23728650.160
  24192731.349    -6758404.03349  -5245167.35545  24192731.080    24192758.504
  23167015.379    -3284739.97649  -2546627.67746  23167014.380    23167031.071
  20296107.010   -22876195.71149 -17816814.13647  20296106.688    20296117.745
 02  4  8 21 55  0.0000000  0  9G22G23G18G15G26G30G29G10G 6
  23722158.910   -11614133.18349  -5821325.87245  23722158.132    23722177.752
  20651856.540   -21959367.78549 -16767494.90348  20651855.928    20651867.457
  22006062.605   -15647024.58649 -11160509.22546  22006062.051    22006076.541
  21790090.658   -18276555.92349 -13929512.84747  21790089.925    21790105.089
  22268261.863   -15146633.53649 -11768382.42046  22268261.823    22268277.906
  23748488.078     8449552.58049   6601665.81245  23748488.073    23748509.983
  24174091.788    -6856353.98049  -5321491.43544  24174091.228    24174118.558
  23185762.343    -3186224.53849  -2469862.55846  23185761.321    23185778.032
  20298931.695   -22861351.83649 -17805247.49047  20298931.362    20298942.449
 02  4  8 21 55 30.0000000  0  9G22G23G18G15G26G30G29G10G 6
  23715555.253   -11648835.43749  -5848366.50145  23715554.393    23715573.959
  20655787.529   -21938710.37349 -16751398.22248  20655786.916    20655798.418
  21990208.151   -15730339.09749 -11225429.44546  21990207.616    21990222.107
  21779743.898   -18330928.34949 -13971880.84447  21779743.118    21779758.198
  22257961.023   -15200764.25249 -11810562.04446  22257960.974    22257976.936
  23768351.144     8553931.94249   6682999.97045  23768351.232    23768373.279
  24155445.981    -6954333.81149  -5397838.72745  24155445.544    24155472.539
  23204541.404    -3087540.74449  -2392966.24946  23204540.370    23204557.015
  20301845.812   -22846038.07249 -17793314.69847  20301845.485    20301856.593
 02  4  8 21 56  0.0000000  0 10G21G22G23G18G15G26G30G29G10G 6
  24859931.386    -5620647.80549  -4061065.17245  24859930.818    24859961.813
  23709051.687   -11683012.06649  -5874997.53545  23709050.836    23709070.352
  20659805.653   -21917595.07349 -16734944.75148  20659805.025    20659816.529
  21974418.515   -15813313.55249 -11290084.67547  21974417.977    21974432.420
  21769430.245   -18385126.46349 -14014113.01446  21769429.448    21769444.450
  22247753.284   -15254405.71249 -11852360.44146  22247753.241    22247769.103
  23788216.927     8658325.12949   6764344.89745  23788217.009    23788238.949
  24136794.949    -7052342.86249  -5474208.83844  24136794.715    24136820.932
  23223351.610    -2988693.53949  -2315942.62846  23223350.578    23223367.098
  20304848.963   -22830256.14549 -17781017.11447  20304848.646    20304859.775
 02  4  8 21 56 30.0000000  0 10G21G22G23G18G15G26G30G29G10G 6
  24841940.241    -5715190.09249  -4134733.84545  24841939.525    24841970.237
  23702648.031   -11716663.24649  -5901219.13745  23702647.149    23702666.746
  20663910.403   -21896024.47449 -16718136.50048  20663909.783    20663921.273
  21958693.747   -15895947.34949 -11354474.44047  21958693.204    21958707.557
  21759149.567   -18439151.22549 -14056210.10346  21759148.755    21759163.684
  22237639.016   -15307556.01349 -11893776.12646  22237638.993    22237654.792
  23808084.437     8762728.34649   6845697.66045  23808084.506    23808106.450
  24118139.208    -7150379.34849  -5550600.29745  24118138.940    24118164.683
  23242192.115    -2889686.38249  -2238794.34846  23242191.126    23242207.663
  20307941.207   -22814006.15349 -17768354.80247  20307940.895    20307952.029
 02  4  8 21 57  0.0000000  0 10G21G22G23G18G15G26G30G29G10G 6
  24823974.915    -5809595.47449  -4208295.82745  24823974.242    24824004.708
  23696345.507   -11749782.99749  -5927026.64345  23696344.612    23696364.287
  20668102.439   -21873995.10049 -16700970.76348  20668101.831    20668113.324
  21943034.946   -15978233.82049 -11418593.58747  21943034.404    21943048.784
  21748902.865   -18492997.28249 -14098167.94746  21748902.059    21748916.942
  22227619.778   -15360207.25249 -11934802.93046  22227619.769    22227635.437
  23827954.190     8867143.90049   6927060.03545  23827954.380    23827976.364
  24099479.413    -7248435.28949  -5627006.91645  24099479.059    24099504.570
  23261063.527    -2790516.58149  -2161519.32246  23261062.541    23261079.342
  20311123.613   -22797282.47549 -17755323.39047  20311123.312    20311134.434
 02  4  8 21 57 30.0000000  0 10G21G22G23G18G15G26G30G29G10G 6
  24806035.693    -5903863.03349  -4281750.42745  24806034.990    24806065.222
  23690144.045   -11782371.07349  -5952419.86245  23690143.156    23690162.966
  20672381.482   -21851508.72649 -16683448.92048  20672380.869    20672392.347
  21927442.435   -16060171.66549 -11482441.08947  21927441.918    21927456.389
  21738690.047   -18546665.18449 -14139986.96046  21738689.259    21738704.133
  22217695.927   -15412357.28249 -11975439.19446  22217695.909    22217711.466
  23847825.855     8971568.68049   7008429.57045  23847826.052    23847848.070
  24080816.418    -7346508.47349  -5703427.03045  24080815.919    24080841.504
  23279965.507    -2691186.98249  -2084119.77946  23279964.545    23279981.376
  20314396.181   -22780085.15049 -17741922.90847  20314395.896    20314406.988
